Wetterdaten: Sonntag, 15.09.2024
Datum Zeit Temp. I. Temp. A. Feuchte I. Feuchte A. Luftdruck Regen Wind Richtung Richtung Sonnenschein Solar Taupunkt Windchill Windböen
15.09.2024 00:00 26,2 °C 7,6 °C 46 % 83 % 1026,4 hPa 0,0 l/m² 0,0 km/h (0 Bft) W 267 ° 0 min 0 W/m² 4,9 °C 7,6 °C 0,0 km/h (0 Bft)
15.09.2024 00:02 26,2 °C 7,6 °C 46 % 83 % 1026,4 hPa 0,0 l/m² 0,0 km/h (0 Bft) W 267 ° 0 min 0 W/m² 4,9 °C 7,6 °C 0,0 km/h (0 Bft)
15.09.2024 00:03 26,2 °C 7,6 °C 46 % 83 % 1026,4 hPa 0,0 l/m² 0,0 km/h (0 Bft) W 267 ° 0 min 0 W/m² 4,9 °C 7,6 °C 0,0 km/h (0 Bft)
15.09.2024 00:05 26,1 °C 7,5 °C 46 % 83 % 1026,4 hPa 0,0 l/m² 0,0 km/h (0 Bft) W 267 ° 0 min 0 W/m² 4,8 °C 7,5 °C 0,0 km/h (0 Bft)
15.09.2024 00:07 26,1 °C 7,4 °C 46 % 83 % 1026,3 hPa 0,0 l/m² 0,0 km/h (0 Bft) W 267 ° 0 min 0 W/m² 4,7 °C 7,4 °C 0,0 km/h (0 Bft)
15.09.2024 00:09 26,1 °C 7,4 °C 46 % 83 % 1026,3 hPa 0,0 l/m² 0,0 km/h (0 Bft) W 267 ° 0 min 0 W/m² 4,7 °C 7,4 °C 0,0 km/h (0 Bft)
15.09.2024 00:10 26,0 °C 7,4 °C 47 % 83 % 1026,3 hPa 0,0 l/m² 0,0 km/h (0 Bft) W 267 ° 0 min 0 W/m² 4,7 °C 7,4 °C 0,0 km/h (0 Bft)
15.09.2024 00:11 26,0 °C 7,4 °C 47 % 83 % 1026,2 hPa 0,0 l/m² 0,0 km/h (0 Bft) W 267 ° 0 min 0 W/m² 4,7 °C 7,4 °C 0,0 km/h (0 Bft)
15.09.2024 00:12 26,0 °C 7,4 °C 47 % 83 % 1026,2 hPa 0,0 l/m² 0,0 km/h (0 Bft) W 267 ° 0 min 0 W/m² 4,7 °C 7,4 °C 0,0 km/h (0 Bft)
15.09.2024 00:13 26,0 °C 7,4 °C 47 % 84 % 1026,3 hPa 0,0 l/m² 0,0 km/h (0 Bft) W 267 ° 0 min 0 W/m² 4,9 °C 7,4 °C 0,0 km/h (0 Bft)
15.09.2024 00:15 25,9 °C 7,3 °C 47 % 83 % 1026,2 hPa 0,0 l/m² 0,0 km/h (0 Bft) W 267 ° 0 min 0 W/m² 4,6 °C 7,3 °C 0,0 km/h (0 Bft)
15.09.2024 00:17 25,9 °C 7,3 °C 47 % 83 % 1026,3 hPa 0,0 l/m² 0,0 km/h (0 Bft) W 267 ° 0 min 0 W/m² 4,6 °C 7,3 °C 0,0 km/h (0 Bft)
15.09.2024 00:19 25,8 °C 7,2 °C 47 % 84 % 1026,2 hPa 0,0 l/m² 0,0 km/h (0 Bft) W 267 ° 0 min 0 W/m² 4,7 °C 7,2 °C 0,0 km/h (0 Bft)
15.09.2024 00:21 25,8 °C 7,2 °C 47 % 84 % 1026,2 hPa 0,0 l/m² 0,0 km/h (0 Bft) W 267 ° 0 min 0 W/m² 4,7 °C 7,2 °C 0,0 km/h (0 Bft)
15.09.2024 00:22 25,8 °C 7,2 °C 47 % 84 % 1026,2 hPa 0,0 l/m² 0,0 km/h (0 Bft) W 267 ° 0 min 0 W/m² 4,7 °C 7,2 °C 0,0 km/h (0 Bft)
15.09.2024 00:23 25,7 °C 7,2 °C 47 % 84 % 1026,2 hPa 0,0 l/m² 0,0 km/h (0 Bft) W 267 ° 0 min 0 W/m² 4,7 °C 7,2 °C 0,0 km/h (0 Bft)
15.09.2024 00:25 25,7 °C 7,2 °C 47 % 84 % 1026,2 hPa 0,0 l/m² 0,0 km/h (0 Bft) W 267 ° 0 min 0 W/m² 4,7 °C 7,2 °C 0,0 km/h (0 Bft)
15.09.2024 00:27 25,7 °C 7,1 °C 47 % 84 % 1026,2 hPa 0,0 l/m² 0,0 km/h (0 Bft) W 267 ° 0 min 0 W/m² 4,6 °C 7,1 °C 0,0 km/h (0 Bft)
15.09.2024 00:29 25,7 °C 7,1 °C 47 % 85 % 1026,2 hPa 0,0 l/m² 0,0 km/h (0 Bft) W 267 ° 0 min 0 W/m² 4,8 °C 7,1 °C 0,0 km/h (0 Bft)
15.09.2024 00:31 25,6 °C 7,0 °C 47 % 85 % 1026,2 hPa 0,0 l/m² 0,0 km/h (0 Bft) W 267 ° 0 min 0 W/m² 4,7 °C 7,0 °C 0,0 km/h (0 Bft)
15.09.2024 00:32 25,6 °C 6,9 °C 47 % 85 % 1026,2 hPa 0,0 l/m² 0,0 km/h (0 Bft) W 267 ° 0 min 0 W/m² 4,6 °C 6,9 °C 0,0 km/h (0 Bft)
15.09.2024 00:33 25,6 °C 6,9 °C 47 % 85 % 1026,1 hPa 0,0 l/m² 0,0 km/h (0 Bft) W 267 ° 0 min 0 W/m² 4,6 °C 6,9 °C 0,0 km/h (0 Bft)
15.09.2024 00:35 25,6 °C 6,9 °C 47 % 85 % 1026,2 hPa 0,0 l/m² 0,0 km/h (0 Bft) W 267 ° 0 min 0 W/m² 4,6 °C 6,9 °C 0,0 km/h (0 Bft)
15.09.2024 00:37 25,6 °C 6,8 °C 47 % 85 % 1026,2 hPa 0,0 l/m² 0,0 km/h (0 Bft) W 267 ° 0 min 0 W/m² 4,5 °C 6,8 °C 0,0 km/h (0 Bft)
15.09.2024 00:39 25,4 °C 6,8 °C 48 % 85 % 1026,2 hPa 0,0 l/m² 0,0 km/h (0 Bft) W 267 ° 0 min 0 W/m² 4,5 °C 6,8 °C 0,0 km/h (0 Bft)
15.09.2024 00:41 25,4 °C 6,8 °C 48 % 85 % 1026,2 hPa 0,0 l/m² 0,0 km/h (0 Bft) W 267 ° 0 min 0 W/m² 4,5 °C 6,8 °C 0,0 km/h (0 Bft)
15.09.2024 00:42 25,4 °C 6,7 °C 48 % 85 % 1026,2 hPa 0,0 l/m² 0,0 km/h (0 Bft) W 267 ° 0 min 0 W/m² 4,4 °C 6,7 °C 0,0 km/h (0 Bft)
15.09.2024 00:43 25,4 °C 6,7 °C 48 % 85 % 1026,3 hPa 0,0 l/m² 0,0 km/h (0 Bft) W 267 ° 0 min 0 W/m² 4,4 °C 6,7 °C 0,0 km/h (0 Bft)
15.09.2024 00:47 25,4 °C 6,6 °C 48 % 86 % 1026,3 hPa 0,0 l/m² 0,3 km/h (0 Bft) W 278 ° 0 min 0 W/m² 4,4 °C 6,6 °C 4,8 km/h (1 Bft)
15.09.2024 00:49 25,3 °C 6,6 °C 48 % 86 % 1026,3 hPa 0,0 l/m² 0,9 km/h (0 Bft) W 280 ° 0 min 0 W/m² 4,4 °C 6,6 °C 3,2 km/h (1 Bft)
15.09.2024 00:51 25,3 °C 6,5 °C 48 % 86 % 1026,3 hPa 0,0 l/m² 0,1 km/h (0 Bft) W 280 ° 0 min 0 W/m² 4,3 °C 6,5 °C 1,6 km/h (1 Bft)
15.09.2024 00:52 25,3 °C 6,5 °C 48 % 86 % 1026,3 hPa 0,0 l/m² 0,8 km/h (0 Bft) W 278 ° 0 min 0 W/m² 4,3 °C 6,5 °C 3,2 km/h (1 Bft)
15.09.2024 00:53 25,3 °C 6,4 °C 48 % 86 % 1026,2 hPa 0,0 l/m² 3,4 km/h (1 Bft) W 273 ° 0 min 0 W/m² 4,2 °C 6,4 °C 6,4 km/h (2 Bft)
15.09.2024 00:55 25,2 °C 6,6 °C 48 % 87 % 1026,2 hPa 0,0 l/m² 1,4 km/h (1 Bft) W-NW 282 ° 0 min 0 W/m² 4,6 °C 6,6 °C 4,8 km/h (1 Bft)
15.09.2024 00:57 25,2 °C 6,8 °C 48 % 87 % 1026,2 hPa 0,0 l/m² 1,6 km/h (1 Bft) W 276 ° 0 min 0 W/m² 4,8 °C 6,8 °C 4,8 km/h (1 Bft)
15.09.2024 00:59 25,2 °C 7,1 °C 48 % 87 % 1026,2 hPa 0,0 l/m² 1,2 km/h (1 Bft) W 278 ° 0 min 0 W/m² 5,1 °C 7,1 °C 3,2 km/h (1 Bft)
15.09.2024 01:01 25,2 °C 7,2 °C 48 % 87 % 1026,2 hPa 0,0 l/m² 2,1 km/h (1 Bft) W-NW 290 ° 0 min 0 W/m² 5,2 °C 7,2 °C 6,4 km/h (2 Bft)
15.09.2024 01:03 25,1 °C 7,4 °C 48 % 87 % 1026,1 hPa 0,0 l/m² 1,1 km/h (1 Bft) W-NW 284 ° 0 min 0 W/m² 5,4 °C 7,4 °C 3,2 km/h (1 Bft)
15.09.2024 01:05 25,1 °C 7,4 °C 48 % 86 % 1026,2 hPa 0,0 l/m² 2,2 km/h (1 Bft) W-NW 286 ° 0 min 0 W/m² 5,2 °C 7,4 °C 6,4 km/h (2 Bft)
15.09.2024 01:07 25,1 °C 7,6 °C 48 % 86 % 1026,2 hPa 0,0 l/m² 0,5 km/h (0 Bft) W-NW 284 ° 0 min 0 W/m² 5,4 °C 7,6 °C 3,2 km/h (1 Bft)
15.09.2024 01:09 25,1 °C 7,6 °C 48 % 86 % 1026,1 hPa 0,0 l/m² 1,2 km/h (1 Bft) W-NW 294 ° 0 min 0 W/m² 5,4 °C 7,6 °C 3,2 km/h (1 Bft)
15.09.2024 01:11 25,1 °C 7,6 °C 48 % 86 % 1026,1 hPa 0,0 l/m² 0,7 km/h (0 Bft) W-NW 294 ° 0 min 0 W/m² 5,4 °C 7,6 °C 3,2 km/h (1 Bft)
15.09.2024 01:12 25,0 °C 7,6 °C 48 % 85 % 1026,1 hPa 0,0 l/m² 1,6 km/h (1 Bft) W 277 ° 0 min 0 W/m² 5,2 °C 7,6 °C 6,4 km/h (2 Bft)
15.09.2024 01:13 25,0 °C 7,6 °C 48 % 85 % 1026,1 hPa 0,0 l/m² 1,3 km/h (1 Bft) W 278 ° 0 min 0 W/m² 5,2 °C 7,6 °C 3,2 km/h (1 Bft)
15.09.2024 01:15 25,0 °C 7,6 °C 48 % 85 % 1026,0 hPa 0,0 l/m² 0,8 km/h (0 Bft) W-NW 288 ° 0 min 0 W/m² 5,2 °C 7,6 °C 4,8 km/h (1 Bft)
15.09.2024 01:17 24,9 °C 7,6 °C 49 % 85 % 1026,1 hPa 0,0 l/m² 0,5 km/h (0 Bft) W-SW 253 ° 0 min 0 W/m² 5,2 °C 7,6 °C 3,2 km/h (1 Bft)
15.09.2024 01:19 24,9 °C 7,6 °C 49 % 85 % 1026,1 hPa 0,0 l/m² 0,2 km/h (0 Bft) W-SW 253 ° 0 min 0 W/m² 5,2 °C 7,6 °C 1,6 km/h (1 Bft)
15.09.2024 01:21 24,9 °C 7,6 °C 49 % 85 % 1026,0 hPa 0,0 l/m² 0,2 km/h (0 Bft) W-SW 253 ° 0 min 0 W/m² 5,2 °C 7,6 °C 1,6 km/h (1 Bft)
15.09.2024 01:22 24,9 °C 7,6 °C 49 % 85 % 1026,0 hPa 0,0 l/m² 0,4 km/h (0 Bft) W-SW 254 ° 0 min 0 W/m² 5,2 °C 7,6 °C 1,6 km/h (1 Bft)
15.09.2024 01:23 24,9 °C 7,5 °C 49 % 85 % 1026,0 hPa 0,0 l/m² 0,8 km/h (0 Bft) W-SW 258 ° 0 min 0 W/m² 5,1 °C 7,5 °C 3,2 km/h (1 Bft)
15.09.2024 01:25 24,9 °C 7,5 °C 49 % 85 % 1026,1 hPa 0,0 l/m² 0,4 km/h (0 Bft) W 261 ° 0 min 0 W/m² 5,1 °C 7,5 °C 3,2 km/h (1 Bft)
15.09.2024 01:27 24,8 °C 7,5 °C 49 % 85 % 1026,1 hPa 0,0 l/m² 0,4 km/h (0 Bft) W 261 ° 0 min 0 W/m² 5,1 °C 7,5 °C 1,6 km/h (1 Bft)
15.09.2024 01:29 24,8 °C 7,4 °C 49 % 85 % 1026,0 hPa 0,0 l/m² 0,5 km/h (0 Bft) W 261 ° 0 min 0 W/m² 5,0 °C 7,4 °C 3,2 km/h (1 Bft)
15.09.2024 01:31 24,8 °C 7,3 °C 49 % 85 % 1026,0 hPa 0,0 l/m² 0,0 km/h (0 Bft) W 261 ° 0 min 0 W/m² 4,9 °C 7,3 °C 0,0 km/h (0 Bft)
15.09.2024 01:32 24,8 °C 7,3 °C 49 % 85 % 1026,0 hPa 0,0 l/m² 0,1 km/h (0 Bft) W 261 ° 0 min 0 W/m² 4,9 °C 7,3 °C 1,6 km/h (1 Bft)
15.09.2024 01:33 24,8 °C 7,2 °C 49 % 84 % 1026,0 hPa 0,0 l/m² 0,3 km/h (0 Bft) W 261 ° 0 min 0 W/m² 4,7 °C 7,2 °C 1,6 km/h (1 Bft)
15.09.2024 01:35 24,8 °C 7,0 °C 49 % 85 % 1026,0 hPa 0,0 l/m² 0,2 km/h (0 Bft) W 261 ° 0 min 0 W/m² 4,7 °C 7,0 °C 1,6 km/h (1 Bft)
15.09.2024 01:37 24,8 °C 6,8 °C 49 % 85 % 1026,0 hPa 0,0 l/m² 0,0 km/h (0 Bft) W 261 ° 0 min 0 W/m² 4,5 °C 6,8 °C 0,0 km/h (0 Bft)
15.09.2024 01:39 24,7 °C 6,8 °C 49 % 85 % 1026,0 hPa 0,0 l/m² 0,1 km/h (0 Bft) W 261 ° 0 min 0 W/m² 4,5 °C 6,8 °C 1,6 km/h (1 Bft)
15.09.2024 01:41 24,7 °C 6,6 °C 49 % 85 % 1026,0 hPa 0,0 l/m² 0,2 km/h (0 Bft) W 261 ° 0 min 0 W/m² 4,3 °C 6,6 °C 1,6 km/h (1 Bft)
15.09.2024 01:42 24,7 °C 6,6 °C 49 % 85 % 1026,0 hPa 0,0 l/m² 0,1 km/h (0 Bft) W 263 ° 0 min 0 W/m² 4,3 °C 6,6 °C 1,6 km/h (1 Bft)
15.09.2024 01:43 24,7 °C 6,5 °C 49 % 85 % 1026,0 hPa 0,0 l/m² 0,0 km/h (0 Bft) W 263 ° 0 min 0 W/m² 4,2 °C 6,5 °C 0,0 km/h (0 Bft)
15.09.2024 01:45 24,7 °C 6,4 °C 49 % 86 % 1025,9 hPa 0,0 l/m² 0,0 km/h (0 Bft) W 263 ° 0 min 0 W/m² 4,2 °C 6,4 °C 1,6 km/h (1 Bft)
15.09.2024 01:47 24,6 °C 6,3 °C 49 % 86 % 1025,9 hPa 0,0 l/m² 0,1 km/h (0 Bft) W 263 ° 0 min 0 W/m² 4,1 °C 6,3 °C 1,6 km/h (1 Bft)
15.09.2024 01:49 24,6 °C 6,3 °C 49 % 86 % 1025,9 hPa 0,0 l/m² 0,0 km/h (0 Bft) W 263 ° 0 min 0 W/m² 4,1 °C 6,3 °C 0,0 km/h (0 Bft)
15.09.2024 01:51 24,6 °C 6,2 °C 49 % 87 % 1025,8 hPa 0,0 l/m² 0,1 km/h (0 Bft) W 263 ° 0 min 0 W/m² 4,2 °C 6,2 °C 1,6 km/h (1 Bft)
15.09.2024 01:52 24,6 °C 6,2 °C 49 % 87 % 1025,9 hPa 0,0 l/m² 0,4 km/h (0 Bft) W 263 ° 0 min 0 W/m² 4,2 °C 6,2 °C 1,6 km/h (1 Bft)
15.09.2024 01:53 24,6 °C 6,2 °C 49 % 87 % 1025,8 hPa 0,0 l/m² 1,3 km/h (1 Bft) W 263 ° 0 min 0 W/m² 4,2 °C 6,2 °C 3,2 km/h (1 Bft)
15.09.2024 01:55 24,6 °C 6,2 °C 49 % 87 % 1025,8 hPa 0,0 l/m² 0,9 km/h (0 Bft) W 264 ° 0 min 0 W/m² 4,2 °C 6,2 °C 3,2 km/h (1 Bft)
15.09.2024 01:57 24,6 °C 6,2 °C 49 % 87 % 1025,8 hPa 0,0 l/m² 1,1 km/h (1 Bft) W 269 ° 0 min 0 W/m² 4,2 °C 6,2 °C 4,8 km/h (1 Bft)
15.09.2024 01:59 24,5 °C 6,2 °C 49 % 87 % 1025,9 hPa 0,0 l/m² 0,8 km/h (0 Bft) W 273 ° 0 min 0 W/m² 4,2 °C 6,2 °C 3,2 km/h (1 Bft)
15.09.2024 02:01 24,5 °C 6,4 °C 49 % 88 % 1025,8 hPa 0,0 l/m² 1,8 km/h (1 Bft) W 269 ° 0 min 0 W/m² 4,6 °C 6,4 °C 4,8 km/h (1 Bft)
15.09.2024 02:02 24,5 °C 6,4 °C 49 % 88 % 1025,9 hPa 0,0 l/m² 1,5 km/h (1 Bft) W 271 ° 0 min 0 W/m² 4,6 °C 6,4 °C 4,8 km/h (1 Bft)
15.09.2024 02:03 24,4 °C 6,6 °C 49 % 89 % 1026,0 hPa 0,0 l/m² 1,7 km/h (1 Bft) W 274 ° 0 min 0 W/m² 4,9 °C 6,6 °C 3,2 km/h (1 Bft)
15.09.2024 02:05 24,4 °C 6,9 °C 49 % 89 % 1025,9 hPa 0,0 l/m² 1,1 km/h (1 Bft) W 274 ° 0 min 0 W/m² 5,2 °C 6,9 °C 3,2 km/h (1 Bft)
15.09.2024 02:07 24,4 °C 7,1 °C 49 % 88 % 1025,9 hPa 0,0 l/m² 2,0 km/h (1 Bft) W 275 ° 0 min 0 W/m² 5,2 °C 7,1 °C 6,4 km/h (2 Bft)
15.09.2024 02:09 24,4 °C 7,2 °C 49 % 88 % 1025,9 hPa 0,0 l/m² 0,9 km/h (0 Bft) W 275 ° 0 min 0 W/m² 5,3 °C 7,2 °C 3,2 km/h (1 Bft)
15.09.2024 02:11 24,4 °C 7,3 °C 50 % 88 % 1026,0 hPa 0,0 l/m² 0,6 km/h (0 Bft) W 276 ° 0 min 0 W/m² 5,4 °C 7,3 °C 4,8 km/h (1 Bft)
15.09.2024 02:12 24,4 °C 7,3 °C 49 % 87 % 1026,0 hPa 0,0 l/m² 2,3 km/h (1 Bft) W 277 ° 0 min 0 W/m² 5,3 °C 7,3 °C 3,2 km/h (1 Bft)
15.09.2024 02:13 24,4 °C 7,3 °C 50 % 87 % 1026,0 hPa 0,0 l/m² 1,3 km/h (1 Bft) W 277 ° 0 min 0 W/m² 5,3 °C 7,3 °C 4,8 km/h (1 Bft)
15.09.2024 02:15 24,4 °C 7,3 °C 50 % 87 % 1025,9 hPa 0,0 l/m² 1,3 km/h (1 Bft) W 277 ° 0 min 0 W/m² 5,3 °C 7,3 °C 4,8 km/h (1 Bft)
15.09.2024 02:17 24,3 °C 7,2 °C 50 % 87 % 1026,0 hPa 0,0 l/m² 0,6 km/h (0 Bft) W 277 ° 0 min 0 W/m² 5,2 °C 7,2 °C 1,6 km/h (1 Bft)
15.09.2024 02:19 24,3 °C 7,2 °C 50 % 87 % 1025,9 hPa 0,0 l/m² 1,2 km/h (1 Bft) W 278 ° 0 min 0 W/m² 5,2 °C 7,2 °C 4,8 km/h (1 Bft)
15.09.2024 02:21 24,3 °C 7,2 °C 50 % 87 % 1025,9 hPa 0,0 l/m² 0,3 km/h (0 Bft) W 278 ° 0 min 0 W/m² 5,2 °C 7,2 °C 1,6 km/h (1 Bft)
15.09.2024 02:22 24,3 °C 7,2 °C 50 % 87 % 1026,0 hPa 0,0 l/m² 0,7 km/h (0 Bft) W 278 ° 0 min 0 W/m² 5,2 °C 7,2 °C 3,2 km/h (1 Bft)
15.09.2024 02:23 24,3 °C 7,2 °C 50 % 87 % 1026,0 hPa 0,0 l/m² 0,7 km/h (0 Bft) W 278 ° 0 min 0 W/m² 5,2 °C 7,2 °C 3,2 km/h (1 Bft)
15.09.2024 02:25 24,3 °C 7,2 °C 50 % 87 % 1025,9 hPa 0,0 l/m² 0,2 km/h (0 Bft) W 277 ° 0 min 0 W/m² 5,2 °C 7,2 °C 1,6 km/h (1 Bft)
15.09.2024 02:27 24,3 °C 7,3 °C 50 % 87 % 1025,9 hPa 0,0 l/m² 0,8 km/h (0 Bft) W 277 ° 0 min 0 W/m² 5,3 °C 7,3 °C 3,2 km/h (1 Bft)
15.09.2024 02:29 24,3 °C 7,3 °C 50 % 87 % 1025,9 hPa 0,0 l/m² 0,6 km/h (0 Bft) W 278 ° 0 min 0 W/m² 5,3 °C 7,3 °C 3,2 km/h (1 Bft)
15.09.2024 02:31 24,2 °C 7,3 °C 50 % 87 % 1025,9 hPa 0,0 l/m² 0,2 km/h (0 Bft) W 278 ° 0 min 0 W/m² 5,3 °C 7,3 °C 1,6 km/h (1 Bft)
15.09.2024 02:32 24,3 °C 7,4 °C 50 % 87 % 1025,8 hPa 0,0 l/m² 0,4 km/h (0 Bft) W 278 ° 0 min 0 W/m² 5,4 °C 7,4 °C 1,6 km/h (1 Bft)
15.09.2024 02:33 24,2 °C 7,3 °C 50 % 86 % 1025,8 hPa 0,0 l/m² 0,3 km/h (0 Bft) W 278 ° 0 min 0 W/m² 5,1 °C 7,3 °C 1,6 km/h (1 Bft)
15.09.2024 02:35 24,2 °C 7,3 °C 50 % 86 % 1025,8 hPa 0,0 l/m² 0,3 km/h (0 Bft) W 278 ° 0 min 0 W/m² 5,1 °C 7,3 °C 3,2 km/h (1 Bft)
15.09.2024 02:37 24,2 °C 7,3 °C 50 % 86 % 1025,9 hPa 0,0 l/m² 0,5 km/h (0 Bft) W 278 ° 0 min 0 W/m² 5,1 °C 7,3 °C 3,2 km/h (1 Bft)
15.09.2024 02:39 24,2 °C 7,2 °C 50 % 86 % 1025,8 hPa 0,0 l/m² 0,0 km/h (0 Bft) W 278 ° 0 min 0 W/m² 5,0 °C 7,2 °C 0,0 km/h (0 Bft)
15.09.2024 02:41 24,2 °C 7,2 °C 50 % 86 % 1025,7 hPa 0,0 l/m² 0,2 km/h (0 Bft) W 277 ° 0 min 0 W/m² 5,0 °C 7,2 °C 1,6 km/h (1 Bft)
15.09.2024 02:42 24,2 °C 7,1 °C 50 % 86 % 1025,7 hPa 0,0 l/m² 0,4 km/h (0 Bft) W 277 ° 0 min 0 W/m² 4,9 °C 7,1 °C 1,6 km/h (1 Bft)
15.09.2024 02:43 24,2 °C 7,1 °C 50 % 86 % 1025,7 hPa 0,0 l/m² 0,0 km/h (0 Bft) W 277 ° 0 min 0 W/m² 4,9 °C 7,1 °C 0,0 km/h (0 Bft)
15.09.2024 02:45 24,1 °C 7,1 °C 50 % 87 % 1025,6 hPa 0,0 l/m² 0,0 km/h (0 Bft) W 277 ° 0 min 0 W/m² 5,1 °C 7,1 °C 1,6 km/h (1 Bft)
15.09.2024 02:47 24,1 °C 7,0 °C 50 % 86 % 1025,6 hPa 0,0 l/m² 0,1 km/h (0 Bft) W 277 ° 0 min 0 W/m² 4,8 °C 7,0 °C 1,6 km/h (1 Bft)
15.09.2024 02:49 24,1 °C 6,8 °C 50 % 86 % 1025,6 hPa 0,0 l/m² 0,0 km/h (0 Bft) W 277 ° 0 min 0 W/m² 4,6 °C 6,8 °C 0,0 km/h (0 Bft)
15.09.2024 02:51 24,1 °C 6,8 °C 50 % 87 % 1025,6 hPa 0,0 l/m² 0,3 km/h (0 Bft) W 277 ° 0 min 0 W/m² 4,8 °C 6,8 °C 1,6 km/h (1 Bft)
15.09.2024 02:52 24,1 °C 6,7 °C 50 % 86 % 1025,5 hPa 0,0 l/m² 0,0 km/h (0 Bft) W 277 ° 0 min 0 W/m² 4,5 °C 6,7 °C 0,0 km/h (0 Bft)
15.09.2024 02:53 24,1 °C 6,6 °C 50 % 86 % 1025,5 hPa 0,0 l/m² 0,1 km/h (0 Bft) W 277 ° 0 min 0 W/m² 4,4 °C 6,6 °C 1,6 km/h (1 Bft)
15.09.2024 02:55 24,1 °C 6,3 °C 50 % 86 % 1025,5 hPa 0,0 l/m² 0,3 km/h (0 Bft) W 277 ° 0 min 0 W/m² 4,1 °C 6,3 °C 1,6 km/h (1 Bft)
15.09.2024 02:57 24,1 °C 6,3 °C 50 % 87 % 1025,4 hPa 0,0 l/m² 1,0 km/h (0 Bft) W 276 ° 0 min 0 W/m² 4,3 °C 6,3 °C 3,2 km/h (1 Bft)
15.09.2024 02:59 24,1 °C 6,4 °C 50 % 88 % 1025,4 hPa 0,0 l/m² 0,5 km/h (0 Bft) W 276 ° 0 min 0 W/m² 4,6 °C 6,4 °C 3,2 km/h (1 Bft)
15.09.2024 03:00 24,1 °C 6,4 °C 50 % 88 % 1025,4 hPa 0,0 l/m² 0,0 km/h (0 Bft) W 270 ° 0 min 0 W/m² 4,6 °C 6,4 °C 3,2 km/h (1 Bft)
15.09.2024 03:01 24,1 °C 6,3 °C 50 % 87 % 1025,5 hPa 0,0 l/m² 0,0 km/h (0 Bft) W 270 ° 0 min 0 W/m² 4,3 °C 6,3 °C 3,2 km/h (1 Bft)
15.09.2024 03:08 24,0 °C 6,4 °C 50 % 89 % 1025,4 hPa 0,0 l/m² 0,6 km/h (0 Bft) W 269 ° 0 min 0 W/m² 4,7 °C 6,4 °C 3,2 km/h (1 Bft)
15.09.2024 03:09 24,0 °C 6,6 °C 50 % 89 % 1025,4 hPa 0,0 l/m² 0,6 km/h (0 Bft) W 269 ° 0 min 0 W/m² 4,9 °C 6,6 °C 1,6 km/h (1 Bft)
15.09.2024 03:11 23,9 °C 6,7 °C 50 % 89 % 1025,3 hPa 0,0 l/m² 0,9 km/h (0 Bft) W-SW 255 ° 0 min 0 W/m² 5,0 °C 6,7 °C 3,2 km/h (1 Bft)
15.09.2024 03:12 23,9 °C 6,8 °C 50 % 89 % 1025,3 hPa 0,0 l/m² 1,1 km/h (1 Bft) W 265 ° 0 min 0 W/m² 5,1 °C 6,8 °C 3,2 km/h (1 Bft)
15.09.2024 03:14 23,9 °C 6,9 °C 50 % 89 % 1025,4 hPa 0,0 l/m² 1,0 km/h (0 Bft) W 272 ° 0 min 0 W/m² 5,2 °C 6,9 °C 4,8 km/h (1 Bft)
15.09.2024 03:16 23,9 °C 7,1 °C 50 % 89 % 1025,3 hPa 0,0 l/m² 1,0 km/h (0 Bft) W 273 ° 0 min 0 W/m² 5,4 °C 7,1 °C 4,8 km/h (1 Bft)
15.09.2024 03:17 23,9 °C 7,1 °C 50 % 89 % 1025,3 hPa 0,0 l/m² 2,3 km/h (1 Bft) W-SW 246 ° 0 min 0 W/m² 5,4 °C 7,1 °C 4,8 km/h (1 Bft)
15.09.2024 03:18 23,9 °C 7,2 °C 50 % 89 % 1025,3 hPa 0,0 l/m² 1,7 km/h (1 Bft) W 273 ° 0 min 0 W/m² 5,5 °C 7,2 °C 4,8 km/h (1 Bft)
15.09.2024 03:20 23,9 °C 7,3 °C 50 % 89 % 1025,3 hPa 0,0 l/m² 1,9 km/h (1 Bft) W 279 ° 0 min 0 W/m² 5,6 °C 7,3 °C 4,8 km/h (1 Bft)
15.09.2024 03:21 23,9 °C 7,3 °C 50 % 89 % 1025,3 hPa 0,0 l/m² 1,1 km/h (1 Bft) W 279 ° 0 min 0 W/m² 5,6 °C 7,3 °C 3,2 km/h (1 Bft)
15.09.2024 03:22 23,9 °C 7,4 °C 50 % 89 % 1025,3 hPa 0,0 l/m² 1,2 km/h (1 Bft) W 279 ° 0 min 0 W/m² 5,7 °C 7,4 °C 3,2 km/h (1 Bft)
15.09.2024 03:24 23,9 °C 7,5 °C 50 % 88 % 1025,3 hPa 0,0 l/m² 2,0 km/h (1 Bft) W-SW 251 ° 0 min 0 W/m² 5,6 °C 7,5 °C 6,4 km/h (2 Bft)
15.09.2024 03:26 23,9 °C 7,6 °C 50 % 88 % 1025,3 hPa 0,0 l/m² 2,8 km/h (1 Bft) W 264 ° 0 min 0 W/m² 5,7 °C 7,6 °C 6,4 km/h (2 Bft)
15.09.2024 03:28 23,9 °C 7,7 °C 50 % 88 % 1025,3 hPa 0,0 l/m² 2,1 km/h (1 Bft) W 264 ° 0 min 0 W/m² 5,8 °C 7,7 °C 8,0 km/h (2 Bft)
15.09.2024 03:30 23,9 °C 7,8 °C 50 % 88 % 1025,3 hPa 0,0 l/m² 3,1 km/h (1 Bft) W 272 ° 0 min 0 W/m² 5,9 °C 7,8 °C 6,4 km/h (2 Bft)
15.09.2024 03:31 23,8 °C 7,9 °C 50 % 88 % 1025,3 hPa 0,0 l/m² 4,0 km/h (1 Bft) W-NW 298 ° 0 min 0 W/m² 6,0 °C 7,9 °C 11,3 km/h (2 Bft)
15.09.2024 03:32 23,8 °C 7,9 °C 50 % 88 % 1025,3 hPa 0,0 l/m² 1,5 km/h (1 Bft) W-NW 298 ° 0 min 0 W/m² 6,0 °C 7,9 °C 3,2 km/h (1 Bft)
15.09.2024 03:34 23,8 °C 8,0 °C 50 % 88 % 1025,3 hPa 0,0 l/m² 1,4 km/h (1 Bft) W-NW 294 ° 0 min 0 W/m² 6,1 °C 8,0 °C 4,8 km/h (1 Bft)
15.09.2024 03:36 23,9 °C 8,0 °C 50 % 87 % 1025,3 hPa 0,0 l/m² 2,2 km/h (1 Bft) NW 309 ° 0 min 0 W/m² 6,0 °C 8,0 °C 8,0 km/h (2 Bft)
15.09.2024 03:38 23,8 °C 8,1 °C 50 % 87 % 1025,4 hPa 0,0 l/m² 1,6 km/h (1 Bft) W 275 ° 0 min 0 W/m² 6,1 °C 8,1 °C 4,8 km/h (1 Bft)
15.09.2024 03:40 23,8 °C 8,1 °C 50 % 87 % 1025,4 hPa 0,0 l/m² 3,9 km/h (1 Bft) W-NW 292 ° 0 min 0 W/m² 6,1 °C 8,1 °C 9,7 km/h (2 Bft)
15.09.2024 03:41 23,8 °C 8,2 °C 50 % 87 % 1025,4 hPa 0,0 l/m² 3,3 km/h (1 Bft) W-NW 293 ° 0 min 0 W/m² 6,2 °C 8,2 °C 6,4 km/h (2 Bft)
15.09.2024 03:42 23,8 °C 8,1 °C 50 % 87 % 1025,4 hPa 0,0 l/m² 2,1 km/h (1 Bft) W-NW 289 ° 0 min 0 W/m² 6,1 °C 8,1 °C 4,8 km/h (1 Bft)
15.09.2024 03:43 23,8 °C 8,1 °C 50 % 87 % 1025,3 hPa 0,0 l/m² 0,8 km/h (0 Bft) W-NW 289 ° 0 min 0 W/m² 6,1 °C 8,1 °C 1,6 km/h (1 Bft)
15.09.2024 03:45 23,8 °C 8,1 °C 50 % 87 % 1025,3 hPa 0,0 l/m² 2,6 km/h (1 Bft) W 281 ° 0 min 0 W/m² 6,1 °C 8,1 °C 6,4 km/h (2 Bft)
15.09.2024 03:47 23,8 °C 8,2 °C 50 % 87 % 1025,3 hPa 0,0 l/m² 4,3 km/h (1 Bft) W-NW 295 ° 0 min 0 W/m² 6,2 °C 8,2 °C 8,0 km/h (2 Bft)
15.09.2024 03:48 23,8 °C 8,2 °C 50 % 87 % 1025,3 hPa 0,0 l/m² 4,0 km/h (1 Bft) W-NW 284 ° 0 min 0 W/m² 6,2 °C 8,2 °C 6,4 km/h (2 Bft)
15.09.2024 03:50 23,8 °C 8,3 °C 50 % 87 % 1025,3 hPa 0,0 l/m² 3,1 km/h (1 Bft) W-NW 283 ° 0 min 0 W/m² 6,3 °C 8,3 °C 8,0 km/h (2 Bft)
15.09.2024 03:51 23,7 °C 8,3 °C 50 % 87 % 1025,4 hPa 0,0 l/m² 3,1 km/h (1 Bft) W-NW 286 ° 0 min 0 W/m² 6,3 °C 8,3 °C 11,3 km/h (2 Bft)
15.09.2024 03:52 23,7 °C 8,3 °C 50 % 87 % 1025,4 hPa 0,0 l/m² 2,1 km/h (1 Bft) W 271 ° 0 min 0 W/m² 6,3 °C 8,3 °C 6,4 km/h (2 Bft)
15.09.2024 03:53 23,8 °C 8,4 °C 50 % 87 % 1025,3 hPa 0,0 l/m² 2,3 km/h (1 Bft) W 277 ° 0 min 0 W/m² 6,4 °C 8,4 °C 6,4 km/h (2 Bft)
15.09.2024 03:55 23,7 °C 8,3 °C 50 % 86 % 1025,2 hPa 0,0 l/m² 2,6 km/h (1 Bft) W 259 ° 0 min 0 W/m² 6,1 °C 8,3 °C 6,4 km/h (2 Bft)
15.09.2024 03:57 23,7 °C 8,4 °C 50 % 86 % 1025,3 hPa 0,0 l/m² 3,2 km/h (1 Bft) W-NW 286 ° 0 min 0 W/m² 6,2 °C 8,4 °C 9,7 km/h (2 Bft)
15.09.2024 03:59 23,7 °C 8,5 °C 50 % 86 % 1025,4 hPa 0,0 l/m² 2,8 km/h (1 Bft) W 279 ° 0 min 0 W/m² 6,3 °C 8,5 °C 8,0 km/h (2 Bft)
15.09.2024 04:00 23,7 °C 8,6 °C 51 % 86 % 1025,2 hPa 0,0 l/m² 4,1 km/h (1 Bft) W-NW 283 ° 0 min 0 W/m² 6,4 °C 8,6 °C 11,3 km/h (2 Bft)
15.09.2024 04:02 23,7 °C 8,7 °C 51 % 86 % 1025,2 hPa 0,0 l/m² 1,9 km/h (1 Bft) W 279 ° 0 min 0 W/m² 6,5 °C 8,7 °C 4,8 km/h (1 Bft)
15.09.2024 04:04 23,7 °C 8,8 °C 51 % 86 % 1025,3 hPa 0,0 l/m² 3,1 km/h (1 Bft) W-NW 303 ° 0 min 0 W/m² 6,6 °C 8,8 °C 9,7 km/h (2 Bft)
15.09.2024 04:06 23,7 °C 8,8 °C 51 % 86 % 1025,3 hPa 0,0 l/m² 4,2 km/h (1 Bft) W-NW 285 ° 0 min 0 W/m² 6,6 °C 8,8 °C 9,7 km/h (2 Bft)
15.09.2024 04:08 23,7 °C 8,8 °C 51 % 85 % 1025,2 hPa 0,0 l/m² 3,0 km/h (1 Bft) W-NW 285 ° 0 min 0 W/m² 6,4 °C 8,8 °C 9,7 km/h (2 Bft)
15.09.2024 04:10 23,7 °C 8,8 °C 51 % 86 % 1025,2 hPa 0,0 l/m² 4,0 km/h (1 Bft) W-NW 285 ° 0 min 0 W/m² 6,6 °C 8,8 °C 11,3 km/h (2 Bft)
15.09.2024 04:11 23,7 °C 8,8 °C 51 % 85 % 1025,2 hPa 0,0 l/m² 4,9 km/h (1 Bft) W 279 ° 0 min 0 W/m² 6,4 °C 8,8 °C 11,3 km/h (2 Bft)
15.09.2024 04:12 23,7 °C 8,9 °C 51 % 85 % 1025,2 hPa 0,0 l/m² 2,8 km/h (1 Bft) W 265 ° 0 min 0 W/m² 6,5 °C 8,9 °C 6,4 km/h (2 Bft)
15.09.2024 04:14 23,7 °C 8,9 °C 51 % 85 % 1025,2 hPa 0,0 l/m² 3,8 km/h (1 Bft) W-NW 286 ° 0 min 0 W/m² 6,5 °C 8,9 °C 9,7 km/h (2 Bft)
15.09.2024 04:16 23,7 °C 8,8 °C 51 % 85 % 1025,2 hPa 0,0 l/m² 3,1 km/h (1 Bft) W-NW 287 ° 0 min 0 W/m² 6,4 °C 8,8 °C 8,0 km/h (2 Bft)
15.09.2024 04:18 23,7 °C 8,8 °C 51 % 85 % 1025,1 hPa 0,0 l/m² 3,8 km/h (1 Bft) W 279 ° 0 min 0 W/m² 6,4 °C 8,8 °C 6,4 km/h (2 Bft)
15.09.2024 04:20 23,7 °C 8,8 °C 51 % 85 % 1025,2 hPa 0,0 l/m² 4,1 km/h (1 Bft) NW 309 ° 0 min 0 W/m² 6,4 °C 8,8 °C 9,7 km/h (2 Bft)
15.09.2024 04:21 23,7 °C 8,8 °C 51 % 85 % 1025,2 hPa 0,0 l/m² 3,0 km/h (1 Bft) W 277 ° 0 min 0 W/m² 6,4 °C 8,8 °C 6,4 km/h (2 Bft)
15.09.2024 04:22 23,7 °C 8,8 °C 51 % 85 % 1025,1 hPa 0,0 l/m² 1,8 km/h (1 Bft) W-NW 288 ° 0 min 0 W/m² 6,4 °C 8,8 °C 4,8 km/h (1 Bft)
15.09.2024 04:24 23,6 °C 8,8 °C 51 % 85 % 1025,2 hPa 0,0 l/m² 4,7 km/h (1 Bft) W 265 ° 0 min 0 W/m² 6,4 °C 8,8 °C 9,7 km/h (2 Bft)
15.09.2024 04:26 23,6 °C 8,8 °C 51 % 85 % 1025,2 hPa 0,0 l/m² 3,0 km/h (1 Bft) W 264 ° 0 min 0 W/m² 6,4 °C 8,8 °C 8,0 km/h (2 Bft)
15.09.2024 04:28 23,6 °C 8,8 °C 51 % 85 % 1025,2 hPa 0,0 l/m² 2,8 km/h (1 Bft) W 267 ° 0 min 0 W/m² 6,4 °C 8,8 °C 6,4 km/h (2 Bft)
15.09.2024 04:30 23,6 °C 8,8 °C 51 % 85 % 1025,1 hPa 0,0 l/m² 3,7 km/h (1 Bft) W 277 ° 0 min 0 W/m² 6,4 °C 8,8 °C 6,4 km/h (2 Bft)
15.09.2024 04:31 23,6 °C 8,8 °C 51 % 85 % 1025,2 hPa 0,0 l/m² 4,9 km/h (1 Bft) W-NW 285 ° 0 min 0 W/m² 6,4 °C 8,8 °C 9,7 km/h (2 Bft)
15.09.2024 04:32 23,6 °C 8,8 °C 51 % 85 % 1025,1 hPa 0,0 l/m² 3,9 km/h (1 Bft) W 267 ° 0 min 0 W/m² 6,4 °C 8,8 °C 8,0 km/h (2 Bft)
15.09.2024 04:34 23,6 °C 8,8 °C 51 % 85 % 1025,0 hPa 0,0 l/m² 3,9 km/h (1 Bft) W 277 ° 0 min 0 W/m² 6,4 °C 8,8 °C 9,7 km/h (2 Bft)
15.09.2024 04:36 23,6 °C 8,8 °C 51 % 85 % 1025,1 hPa 0,0 l/m² 4,2 km/h (1 Bft) W 267 ° 0 min 0 W/m² 6,4 °C 8,8 °C 9,7 km/h (2 Bft)
15.09.2024 04:38 23,6 °C 8,8 °C 51 % 85 % 1025,1 hPa 0,0 l/m² 1,9 km/h (1 Bft) W 267 ° 0 min 0 W/m² 6,4 °C 8,8 °C 6,4 km/h (2 Bft)
15.09.2024 04:40 23,6 °C 8,8 °C 51 % 85 % 1025,0 hPa 0,0 l/m² 4,0 km/h (1 Bft) W-NW 285 ° 0 min 0 W/m² 6,4 °C 8,8 °C 12,9 km/h (3 Bft)
15.09.2024 04:41 23,6 °C 8,8 °C 51 % 85 % 1024,9 hPa 0,0 l/m² 4,5 km/h (1 Bft) W-NW 293 ° 0 min 0 W/m² 6,4 °C 8,8 °C 9,7 km/h (2 Bft)
15.09.2024 04:42 23,6 °C 8,8 °C 51 % 85 % 1025,0 hPa 0,0 l/m² 4,4 km/h (1 Bft) W-NW 293 ° 0 min 0 W/m² 6,4 °C 8,8 °C 8,0 km/h (2 Bft)
15.09.2024 04:44 23,6 °C 8,8 °C 51 % 85 % 1025,0 hPa 0,0 l/m² 4,1 km/h (1 Bft) W 269 ° 0 min 0 W/m² 6,4 °C 8,8 °C 9,7 km/h (2 Bft)
15.09.2024 04:46 23,6 °C 8,8 °C 51 % 85 % 1024,9 hPa 0,0 l/m² 3,1 km/h (1 Bft) W-NW 297 ° 0 min 0 W/m² 6,4 °C 8,8 °C 9,7 km/h (2 Bft)
15.09.2024 04:48 23,5 °C 8,8 °C 51 % 85 % 1024,9 hPa 0,0 l/m² 2,4 km/h (1 Bft) W 270 ° 0 min 0 W/m² 6,4 °C 8,8 °C 8,0 km/h (2 Bft)
15.09.2024 04:50 23,6 °C 8,8 °C 51 % 85 % 1024,9 hPa 0,0 l/m² 4,2 km/h (1 Bft) W-NW 290 ° 0 min 0 W/m² 6,4 °C 8,8 °C 12,9 km/h (3 Bft)
15.09.2024 04:51 23,6 °C 8,9 °C 51 % 85 % 1024,9 hPa 0,0 l/m² 3,2 km/h (1 Bft) W 279 ° 0 min 0 W/m² 6,5 °C 8,9 °C 6,4 km/h (2 Bft)
15.09.2024 04:52 23,5 °C 8,8 °C 51 % 85 % 1024,9 hPa 0,0 l/m² 2,0 km/h (1 Bft) W 265 ° 0 min 0 W/m² 6,4 °C 8,8 °C 8,0 km/h (2 Bft)
15.09.2024 04:54 23,5 °C 8,8 °C 51 % 85 % 1025,0 hPa 0,0 l/m² 4,0 km/h (1 Bft) W-NW 296 ° 0 min 0 W/m² 6,4 °C 8,8 °C 12,9 km/h (3 Bft)
15.09.2024 04:56 23,4 °C 8,9 °C 51 % 85 % 1024,9 hPa 0,0 l/m² 3,3 km/h (1 Bft) W 269 ° 0 min 0 W/m² 6,5 °C 8,9 °C 11,3 km/h (2 Bft)
15.09.2024 04:58 23,5 °C 8,9 °C 51 % 85 % 1024,8 hPa 0,0 l/m² 4,1 km/h (1 Bft) W-NW 288 ° 0 min 0 W/m² 6,5 °C 8,9 °C 9,7 km/h (2 Bft)
15.09.2024 05:00 23,4 °C 8,8 °C 51 % 85 % 1024,9 hPa 0,0 l/m² 3,2 km/h (1 Bft) W-SW 258 ° 0 min 0 W/m² 6,4 °C 8,8 °C 9,7 km/h (2 Bft)
15.09.2024 05:01 23,4 °C 8,9 °C 51 % 85 % 1024,8 hPa 0,0 l/m² 4,8 km/h (1 Bft) W-NW 294 ° 0 min 0 W/m² 6,5 °C 8,9 °C 11,3 km/h (2 Bft)
15.09.2024 05:02 23,4 °C 8,8 °C 51 % 85 % 1024,8 hPa 0,0 l/m² 5,4 km/h (2 Bft) W 259 ° 0 min 0 W/m² 6,4 °C 8,8 °C 11,3 km/h (2 Bft)
15.09.2024 05:03 23,4 °C 8,9 °C 51 % 85 % 1024,8 hPa 0,0 l/m² 6,0 km/h (2 Bft) W-SW 250 ° 0 min 0 W/m² 6,5 °C 8,9 °C 11,3 km/h (2 Bft)
15.09.2024 05:04 23,4 °C 8,9 °C 51 % 85 % 1024,8 hPa 0,0 l/m² 4,4 km/h (1 Bft) W 279 ° 0 min 0 W/m² 6,5 °C 8,9 °C 6,4 km/h (2 Bft)
15.09.2024 05:06 23,4 °C 8,9 °C 51 % 85 % 1024,8 hPa 0,0 l/m² 5,5 km/h (2 Bft) W 277 ° 0 min 0 W/m² 6,5 °C 8,9 °C 11,3 km/h (2 Bft)
15.09.2024 05:08 23,4 °C 8,8 °C 51 % 85 % 1024,9 hPa 0,0 l/m² 4,2 km/h (1 Bft) W 260 ° 0 min 0 W/m² 6,4 °C 8,8 °C 11,3 km/h (2 Bft)
15.09.2024 05:10 23,4 °C 8,8 °C 51 % 85 % 1024,8 hPa 0,0 l/m² 0,2 km/h (0 Bft) W 263 ° 0 min 0 W/m² 6,4 °C 8,8 °C 1,6 km/h (1 Bft)
15.09.2024 05:11 23,4 °C 8,8 °C 51 % 85 % 1024,8 hPa 0,0 l/m² 5,7 km/h (2 Bft) W-NW 286 ° 0 min 0 W/m² 6,4 °C 8,8 °C 12,9 km/h (3 Bft)
15.09.2024 05:13 23,4 °C 8,8 °C 51 % 85 % 1024,8 hPa 0,0 l/m² 3,1 km/h (1 Bft) W 281 ° 0 min 0 W/m² 6,4 °C 8,8 °C 9,7 km/h (2 Bft)
15.09.2024 05:14 23,4 °C 8,8 °C 51 % 85 % 1024,8 hPa 0,0 l/m² 6,2 km/h (2 Bft) W 278 ° 0 min 0 W/m² 6,4 °C 8,8 °C 11,3 km/h (2 Bft)
15.09.2024 05:16 23,4 °C 8,8 °C 51 % 85 % 1024,8 hPa 0,0 l/m² 2,4 km/h (1 Bft) W 259 ° 0 min 0 W/m² 6,4 °C 8,8 °C 4,8 km/h (1 Bft)
15.09.2024 05:18 23,4 °C 8,8 °C 51 % 85 % 1024,8 hPa 0,0 l/m² 3,1 km/h (1 Bft) W-NW 296 ° 0 min 0 W/m² 6,4 °C 8,8 °C 6,4 km/h (2 Bft)
15.09.2024 05:20 23,4 °C 8,8 °C 51 % 85 % 1024,8 hPa 0,0 l/m² 5,3 km/h (1 Bft) W-NW 298 ° 0 min 0 W/m² 6,4 °C 8,8 °C 12,9 km/h (3 Bft)
15.09.2024 05:21 23,4 °C 8,8 °C 51 % 85 % 1024,8 hPa 0,0 l/m² 2,6 km/h (1 Bft) W 276 ° 0 min 0 W/m² 6,4 °C 8,8 °C 6,4 km/h (2 Bft)
15.09.2024 05:23 23,4 °C 8,7 °C 51 % 85 % 1024,8 hPa 0,0 l/m² 3,0 km/h (1 Bft) W-NW 292 ° 0 min 0 W/m² 6,3 °C 8,7 °C 12,9 km/h (3 Bft)
15.09.2024 05:24 23,4 °C 8,7 °C 51 % 85 % 1024,8 hPa 0,0 l/m² 1,8 km/h (1 Bft) W-NW 292 ° 0 min 0 W/m² 6,3 °C 8,7 °C 3,2 km/h (1 Bft)
15.09.2024 05:26 23,4 °C 8,7 °C 51 % 85 % 1024,8 hPa 0,0 l/m² 4,2 km/h (1 Bft) W 268 ° 0 min 0 W/m² 6,3 °C 8,7 °C 11,3 km/h (2 Bft)
15.09.2024 05:28 23,4 °C 8,7 °C 51 % 85 % 1024,8 hPa 0,0 l/m² 2,3 km/h (1 Bft) W-NW 296 ° 0 min 0 W/m² 6,3 °C 8,7 °C 8,0 km/h (2 Bft)
15.09.2024 05:30 23,4 °C 8,7 °C 51 % 85 % 1024,8 hPa 0,0 l/m² 4,2 km/h (1 Bft) W 271 ° 0 min 0 W/m² 6,3 °C 8,7 °C 14,5 km/h (3 Bft)
15.09.2024 05:31 23,4 °C 8,7 °C 51 % 85 % 1024,7 hPa 0,0 l/m² 4,3 km/h (1 Bft) NW 309 ° 0 min 0 W/m² 6,3 °C 8,7 °C 8,0 km/h (2 Bft)
15.09.2024 05:32 23,4 °C 8,7 °C 51 % 85 % 1024,7 hPa 0,0 l/m² 2,0 km/h (1 Bft) W-NW 290 ° 0 min 0 W/m² 6,3 °C 8,7 °C 4,8 km/h (1 Bft)
15.09.2024 05:34 23,3 °C 8,7 °C 51 % 85 % 1024,8 hPa 0,0 l/m² 3,1 km/h (1 Bft) NW 304 ° 0 min 0 W/m² 6,3 °C 8,7 °C 8,0 km/h (2 Bft)
15.09.2024 05:36 23,3 °C 8,7 °C 51 % 85 % 1024,8 hPa 0,0 l/m² 3,7 km/h (1 Bft) W 271 ° 0 min 0 W/m² 6,3 °C 8,7 °C 8,0 km/h (2 Bft)
15.09.2024 05:38 23,3 °C 8,8 °C 51 % 86 % 1024,8 hPa 0,0 l/m² 3,9 km/h (1 Bft) W 278 ° 0 min 0 W/m² 6,6 °C 8,8 °C 11,3 km/h (2 Bft)
15.09.2024 05:40 23,3 °C 8,8 °C 51 % 86 % 1024,8 hPa 0,0 l/m² 2,6 km/h (1 Bft) W 281 ° 0 min 0 W/m² 6,6 °C 8,8 °C 8,0 km/h (2 Bft)
15.09.2024 05:41 23,3 °C 8,8 °C 51 % 86 % 1024,7 hPa 0,0 l/m² 3,5 km/h (1 Bft) W-SW 258 ° 0 min 0 W/m² 6,6 °C 8,8 °C 9,7 km/h (2 Bft)
15.09.2024 05:43 23,3 °C 8,8 °C 51 % 85 % 1024,8 hPa 0,0 l/m² 5,1 km/h (1 Bft) W 269 ° 0 min 0 W/m² 6,4 °C 8,8 °C 12,9 km/h (3 Bft)
15.09.2024 05:44 23,3 °C 8,8 °C 51 % 86 % 1024,7 hPa 0,0 l/m² 2,7 km/h (1 Bft) W-NW 284 ° 0 min 0 W/m² 6,6 °C 8,8 °C 6,4 km/h (2 Bft)
15.09.2024 05:46 23,3 °C 8,8 °C 51 % 86 % 1024,7 hPa 0,0 l/m² 1,4 km/h (1 Bft) W-NW 285 ° 0 min 0 W/m² 6,6 °C 8,8 °C 6,4 km/h (2 Bft)
15.09.2024 05:48 23,3 °C 8,8 °C 51 % 86 % 1024,7 hPa 0,0 l/m² 4,2 km/h (1 Bft) W 270 ° 0 min 0 W/m² 6,6 °C 8,8 °C 11,3 km/h (2 Bft)
15.09.2024 05:50 23,3 °C 8,8 °C 51 % 86 % 1024,8 hPa 0,0 l/m² 1,9 km/h (1 Bft) W-NW 288 ° 0 min 0 W/m² 6,6 °C 8,8 °C 6,4 km/h (2 Bft)
15.09.2024 05:51 23,3 °C 8,8 °C 51 % 86 % 1024,8 hPa 0,0 l/m² 4,0 km/h (1 Bft) W 271 ° 0 min 0 W/m² 6,6 °C 8,8 °C 6,4 km/h (2 Bft)
15.09.2024 05:53 23,3 °C 8,8 °C 51 % 86 % 1024,6 hPa 0,0 l/m² 5,0 km/h (1 Bft) W 274 ° 0 min 0 W/m² 6,6 °C 8,8 °C 12,9 km/h (3 Bft)
15.09.2024 05:54 23,3 °C 8,8 °C 51 % 86 % 1024,7 hPa 0,0 l/m² 5,2 km/h (1 Bft) W 267 ° 0 min 0 W/m² 6,6 °C 8,8 °C 11,3 km/h (2 Bft)
15.09.2024 05:56 23,3 °C 8,8 °C 51 % 86 % 1024,6 hPa 0,0 l/m² 3,1 km/h (1 Bft) W 272 ° 0 min 0 W/m² 6,6 °C 8,8 °C 9,7 km/h (2 Bft)
15.09.2024 05:58 23,3 °C 8,8 °C 51 % 86 % 1024,6 hPa 0,0 l/m² 4,5 km/h (1 Bft) W-NW 296 ° 0 min 0 W/m² 6,6 °C 8,8 °C 11,3 km/h (2 Bft)
15.09.2024 06:00 23,3 °C 8,8 °C 51 % 86 % 1024,6 hPa 0,0 l/m² 3,6 km/h (1 Bft) W 277 ° 0 min 0 W/m² 6,6 °C 8,8 °C 8,0 km/h (2 Bft)
15.09.2024 06:01 23,3 °C 8,8 °C 51 % 86 % 1024,6 hPa 0,0 l/m² 3,1 km/h (1 Bft) W 278 ° 0 min 0 W/m² 6,6 °C 8,8 °C 6,4 km/h (2 Bft)
15.09.2024 06:03 23,3 °C 8,8 °C 51 % 86 % 1024,7 hPa 0,0 l/m² 5,6 km/h (2 Bft) W-NW 284 ° 0 min 0 W/m² 6,6 °C 8,8 °C 14,5 km/h (3 Bft)
15.09.2024 06:04 23,3 °C 8,8 °C 51 % 86 % 1024,6 hPa 0,0 l/m² 3,7 km/h (1 Bft) W 276 ° 0 min 0 W/m² 6,6 °C 8,8 °C 6,4 km/h (2 Bft)
15.09.2024 06:06 23,3 °C 8,9 °C 51 % 86 % 1024,6 hPa 0,0 l/m² 1,5 km/h (1 Bft) W-SW 255 ° 0 min 0 W/m² 6,7 °C 8,9 °C 4,8 km/h (1 Bft)
15.09.2024 06:08 23,3 °C 8,9 °C 51 % 86 % 1024,7 hPa 0,0 l/m² 2,6 km/h (1 Bft) W 273 ° 0 min 0 W/m² 6,7 °C 8,9 °C 4,8 km/h (1 Bft)
15.09.2024 06:10 23,2 °C 8,9 °C 51 % 86 % 1024,6 hPa 0,0 l/m² 2,0 km/h (1 Bft) N-NW 327 ° 0 min 0 W/m² 6,7 °C 8,9 °C 6,4 km/h (2 Bft)
15.09.2024 06:11 23,3 °C 8,9 °C 51 % 86 % 1024,7 hPa 0,0 l/m² 2,6 km/h (1 Bft) W-NW 284 ° 0 min 0 W/m² 6,7 °C 8,9 °C 6,4 km/h (2 Bft)
15.09.2024 06:13 23,2 °C 8,9 °C 51 % 86 % 1024,7 hPa 0,0 l/m² 1,3 km/h (1 Bft) W 275 ° 0 min 0 W/m² 6,7 °C 8,9 °C 6,4 km/h (2 Bft)
15.09.2024 06:14 23,2 °C 8,9 °C 51 % 86 % 1024,7 hPa 0,0 l/m² 3,3 km/h (1 Bft) W-NW 298 ° 0 min 0 W/m² 6,7 °C 8,9 °C 6,4 km/h (2 Bft)
15.09.2024 06:16 23,2 °C 8,9 °C 51 % 86 % 1024,7 hPa 0,0 l/m² 2,4 km/h (1 Bft) W 275 ° 0 min 0 W/m² 6,7 °C 8,9 °C 6,4 km/h (2 Bft)
15.09.2024 06:18 23,3 °C 9,0 °C 51 % 86 % 1024,7 hPa 0,0 l/m² 2,5 km/h (1 Bft) W-NW 298 ° 0 min 0 W/m² 6,8 °C 9,0 °C 6,4 km/h (2 Bft)
15.09.2024 06:20 23,2 °C 9,0 °C 51 % 86 % 1024,7 hPa 0,0 l/m² 1,1 km/h (1 Bft) W-NW 286 ° 0 min 0 W/m² 6,8 °C 9,0 °C 3,2 km/h (1 Bft)
15.09.2024 06:21 23,2 °C 9,0 °C 51 % 86 % 1024,6 hPa 0,0 l/m² 3,3 km/h (1 Bft) W 279 ° 0 min 0 W/m² 6,8 °C 9,0 °C 6,4 km/h (2 Bft)
15.09.2024 06:23 23,2 °C 9,0 °C 51 % 86 % 1024,7 hPa 0,0 l/m² 2,3 km/h (1 Bft) W 280 ° 0 min 0 W/m² 6,8 °C 9,0 °C 4,8 km/h (1 Bft)
15.09.2024 06:24 23,2 °C 9,0 °C 51 % 86 % 1024,7 hPa 0,0 l/m² 2,1 km/h (1 Bft) W 280 ° 0 min 0 W/m² 6,8 °C 9,0 °C 4,8 km/h (1 Bft)
15.09.2024 06:26 23,2 °C 9,1 °C 51 % 86 % 1024,8 hPa 0,0 l/m² 2,9 km/h (1 Bft) W-NW 290 ° 0 min 0 W/m² 6,9 °C 9,1 °C 11,3 km/h (2 Bft)
15.09.2024 06:28 23,2 °C 9,1 °C 51 % 86 % 1024,8 hPa 0,0 l/m² 2,7 km/h (1 Bft) W-NW 285 ° 0 min 0 W/m² 6,9 °C 9,1 °C 9,7 km/h (2 Bft)
15.09.2024 06:30 23,2 °C 9,1 °C 51 % 86 % 1024,9 hPa 0,0 l/m² 3,2 km/h (1 Bft) W-NW 288 ° 0 min 0 W/m² 6,9 °C 9,1 °C 6,4 km/h (2 Bft)
15.09.2024 06:31 23,2 °C 9,1 °C 51 % 86 % 1024,8 hPa 0,0 l/m² 0,4 km/h (0 Bft) W-NW 288 ° 0 min 0 W/m² 6,9 °C 9,1 °C 3,2 km/h (1 Bft)
15.09.2024 06:33 23,2 °C 9,1 °C 51 % 86 % 1024,9 hPa 0,0 l/m² 1,3 km/h (1 Bft) W 267 ° 0 min 0 W/m² 6,9 °C 9,1 °C 3,2 km/h (1 Bft)
15.09.2024 06:34 23,2 °C 9,1 °C 51 % 86 % 1024,9 hPa 0,0 l/m² 2,0 km/h (1 Bft) W 268 ° 0 min 0 W/m² 6,9 °C 9,1 °C 4,8 km/h (1 Bft)
15.09.2024 06:36 23,2 °C 9,1 °C 51 % 86 % 1024,8 hPa 0,0 l/m² 0,7 km/h (0 Bft) W 272 ° 0 min 0 W/m² 6,9 °C 9,1 °C 3,2 km/h (1 Bft)
15.09.2024 06:38 23,2 °C 9,1 °C 51 % 86 % 1024,9 hPa 0,0 l/m² 2,2 km/h (1 Bft) W 271 ° 0 min 0 W/m² 6,9 °C 9,1 °C 6,4 km/h (2 Bft)
15.09.2024 06:40 23,2 °C 9,2 °C 51 % 86 % 1024,9 hPa 0,0 l/m² 2,4 km/h (1 Bft) W-NW 294 ° 0 min 0 W/m² 7,0 °C 9,2 °C 4,8 km/h (1 Bft)
15.09.2024 06:41 23,2 °C 9,2 °C 51 % 86 % 1024,9 hPa 0,0 l/m² 4,1 km/h (1 Bft) W-NW 290 ° 0 min 0 W/m² 7,0 °C 9,2 °C 6,4 km/h (2 Bft)
15.09.2024 06:43 23,2 °C 9,2 °C 51 % 86 % 1024,9 hPa 0,0 l/m² 2,8 km/h (1 Bft) W 278 ° 0 min 0 W/m² 7,0 °C 9,2 °C 6,4 km/h (2 Bft)
15.09.2024 06:44 23,2 °C 9,2 °C 51 % 86 % 1024,8 hPa 0,0 l/m² 1,8 km/h (1 Bft) W 278 ° 0 min 0 W/m² 7,0 °C 9,2 °C 4,8 km/h (1 Bft)
15.09.2024 06:46 23,2 °C 9,2 °C 51 % 86 % 1024,8 hPa 0,0 l/m² 3,5 km/h (1 Bft) W 265 ° 0 min 0 W/m² 7,0 °C 9,2 °C 8,0 km/h (2 Bft)
15.09.2024 06:47 23,2 °C 9,3 °C 51 % 86 % 1024,8 hPa 0,0 l/m² 2,0 km/h (1 Bft) W 265 ° 0 min 0 W/m² 7,1 °C 9,3 °C 4,8 km/h (1 Bft)
15.09.2024 06:49 23,2 °C 9,3 °C 51 % 86 % 1024,9 hPa 0,0 l/m² 2,8 km/h (1 Bft) W 263 ° 0 min 0 W/m² 7,1 °C 9,3 °C 8,0 km/h (2 Bft)
15.09.2024 06:51 23,2 °C 9,3 °C 51 % 86 % 1024,8 hPa 0,0 l/m² 3,9 km/h (1 Bft) W 277 ° 0 min 0 W/m² 7,1 °C 9,3 °C 6,4 km/h (2 Bft)
15.09.2024 06:52 23,2 °C 9,3 °C 51 % 86 % 1024,8 hPa 0,0 l/m² 2,9 km/h (1 Bft) W-NW 302 ° 0 min 0 W/m² 7,1 °C 9,3 °C 6,4 km/h (2 Bft)
15.09.2024 06:53 23,2 °C 9,3 °C 51 % 86 % 1024,8 hPa 0,0 l/m² 3,1 km/h (1 Bft) W-NW 282 ° 0 min 0 W/m² 7,1 °C 9,3 °C 4,8 km/h (1 Bft)
15.09.2024 06:55 23,2 °C 9,3 °C 51 % 86 % 1024,9 hPa 0,0 l/m² 3,1 km/h (1 Bft) W-NW 282 ° 0 min 5 W/m² 7,1 °C 9,3 °C 6,4 km/h (2 Bft)
15.09.2024 06:57 23,2 °C 9,3 °C 51 % 86 % 1024,9 hPa 0,0 l/m² 4,1 km/h (1 Bft) W-SW 257 ° 0 min 5 W/m² 7,1 °C 9,3 °C 8,0 km/h (2 Bft)
15.09.2024 06:59 23,1 °C 9,4 °C 51 % 86 % 1024,9 hPa 0,0 l/m² 4,5 km/h (1 Bft) W 261 ° 0 min 5 W/m² 7,2 °C 9,4 °C 11,3 km/h (2 Bft)
15.09.2024 07:01 23,2 °C 9,4 °C 51 % 86 % 1024,9 hPa 0,0 l/m² 4,0 km/h (1 Bft) W 276 ° 0 min 7 W/m² 7,2 °C 9,4 °C 9,7 km/h (2 Bft)
15.09.2024 07:02 23,1 °C 9,3 °C 51 % 86 % 1024,9 hPa 0,0 l/m² 3,2 km/h (1 Bft) W 269 ° 0 min 7 W/m² 7,1 °C 9,3 °C 6,4 km/h (2 Bft)
15.09.2024 07:03 23,1 °C 9,4 °C 51 % 86 % 1024,9 hPa 0,0 l/m² 3,5 km/h (1 Bft) W 280 ° 0 min 9 W/m² 7,2 °C 9,4 °C 6,4 km/h (2 Bft)
15.09.2024 07:05 23,2 °C 9,4 °C 51 % 86 % 1024,8 hPa 0,0 l/m² 3,3 km/h (1 Bft) W 269 ° 0 min 11 W/m² 7,2 °C 9,4 °C 6,4 km/h (2 Bft)
15.09.2024 07:07 23,1 °C 9,4 °C 51 % 86 % 1024,9 hPa 0,0 l/m² 3,8 km/h (1 Bft) W 273 ° 0 min 12 W/m² 7,2 °C 9,4 °C 9,7 km/h (2 Bft)
15.09.2024 07:09 23,1 °C 9,4 °C 51 % 86 % 1024,8 hPa 0,0 l/m² 3,7 km/h (1 Bft) W 277 ° 0 min 18 W/m² 7,2 °C 9,4 °C 8,0 km/h (2 Bft)
15.09.2024 07:11 23,2 °C 9,4 °C 51 % 86 % 1024,8 hPa 0,0 l/m² 3,7 km/h (1 Bft) W 272 ° 0 min 18 W/m² 7,2 °C 9,4 °C 9,7 km/h (2 Bft)
15.09.2024 07:12 23,1 °C 9,4 °C 51 % 86 % 1024,8 hPa 0,0 l/m² 2,5 km/h (1 Bft) W 267 ° 0 min 18 W/m² 7,2 °C 9,4 °C 6,4 km/h (2 Bft)
15.09.2024 07:13 23,1 °C 9,4 °C 51 % 86 % 1024,8 hPa 0,0 l/m² 2,7 km/h (1 Bft) W 279 ° 0 min 19 W/m² 7,2 °C 9,4 °C 6,4 km/h (2 Bft)
15.09.2024 07:15 23,1 °C 9,4 °C 51 % 85 % 1024,8 hPa 0,0 l/m² 2,2 km/h (1 Bft) W 278 ° 0 min 21 W/m² 7,0 °C 9,4 °C 6,4 km/h (2 Bft)
15.09.2024 07:17 23,1 °C 9,4 °C 51 % 85 % 1024,8 hPa 0,0 l/m² 3,5 km/h (1 Bft) W 263 ° 0 min 25 W/m² 7,0 °C 9,4 °C 6,4 km/h (2 Bft)
15.09.2024 07:19 23,1 °C 9,5 °C 51 % 85 % 1024,7 hPa 0,0 l/m² 2,4 km/h (1 Bft) W 279 ° 0 min 32 W/m² 7,1 °C 9,5 °C 6,4 km/h (2 Bft)
15.09.2024 07:21 23,1 °C 9,5 °C 51 % 85 % 1024,7 hPa 0,0 l/m² 5,1 km/h (1 Bft) W-NW 286 ° 0 min 33 W/m² 7,1 °C 9,5 °C 11,3 km/h (2 Bft)
15.09.2024 07:22 23,1 °C 9,5 °C 51 % 85 % 1024,6 hPa 0,0 l/m² 4,4 km/h (1 Bft) W-NW 292 ° 0 min 37 W/m² 7,1 °C 9,5 °C 9,7 km/h (2 Bft)
15.09.2024 07:23 23,1 °C 9,5 °C 51 % 85 % 1024,6 hPa 0,0 l/m² 1,2 km/h (1 Bft) W-NW 290 ° 0 min 37 W/m² 7,1 °C 9,5 °C 6,4 km/h (2 Bft)
15.09.2024 07:25 23,1 °C 9,6 °C 51 % 85 % 1024,7 hPa 0,0 l/m² 3,0 km/h (1 Bft) W 275 ° 0 min 44 W/m² 7,2 °C 9,6 °C 9,7 km/h (2 Bft)
15.09.2024 07:27 23,1 °C 9,6 °C 51 % 85 % 1024,6 hPa 0,0 l/m² 2,8 km/h (1 Bft) W-NW 286 ° 2 min 54 W/m² 7,2 °C 9,6 °C 6,4 km/h (2 Bft)
15.09.2024 07:29 23,1 °C 9,7 °C 51 % 86 % 1024,7 hPa 0,0 l/m² 1,2 km/h (1 Bft) W 260 ° 0 min 49 W/m² 7,5 °C 9,7 °C 4,8 km/h (1 Bft)
15.09.2024 07:31 23,1 °C 9,8 °C 51 % 86 % 1024,7 hPa 0,0 l/m² 1,7 km/h (1 Bft) W-NW 299 ° 2 min 62 W/m² 7,6 °C 9,8 °C 4,8 km/h (1 Bft)
15.09.2024 07:32 23,1 °C 9,8 °C 51 % 86 % 1024,7 hPa 0,0 l/m² 1,1 km/h (1 Bft) W-NW 300 ° 1 min 60 W/m² 7,6 °C 9,8 °C 4,8 km/h (1 Bft)
15.09.2024 07:33 23,1 °C 9,8 °C 51 % 85 % 1024,7 hPa 0,0 l/m² 1,3 km/h (1 Bft) W-NW 296 ° 1 min 63 W/m² 7,4 °C 9,8 °C 3,2 km/h (1 Bft)
15.09.2024 07:35 23,1 °C 9,9 °C 51 % 85 % 1024,8 hPa 0,0 l/m² 3,7 km/h (1 Bft) W-NW 291 ° 2 min 77 W/m² 7,5 °C 9,9 °C 9,7 km/h (2 Bft)
15.09.2024 07:37 23,1 °C 10,1 °C 51 % 85 % 1024,8 hPa 0,0 l/m² 2,7 km/h (1 Bft) NW 306 ° 2 min 84 W/m² 7,7 °C 10,1 °C 8,0 km/h (2 Bft)
15.09.2024 07:39 23,1 °C 10,2 °C 51 % 85 % 1024,7 hPa 0,0 l/m² 3,6 km/h (1 Bft) W-NW 297 ° 2 min 88 W/m² 7,8 °C 10,2 °C 11,3 km/h (2 Bft)
15.09.2024 07:41 23,1 °C 10,3 °C 51 % 85 % 1024,7 hPa 0,0 l/m² 2,9 km/h (1 Bft) W 263 ° 2 min 63 W/m² 7,9 °C 10,3 °C 11,3 km/h (2 Bft)
15.09.2024 07:42 23,1 °C 10,3 °C 51 % 84 % 1024,6 hPa 0,0 l/m² 3,5 km/h (1 Bft) NW 319 ° 1 min 62 W/m² 7,7 °C 10,3 °C 12,9 km/h (3 Bft)
15.09.2024 07:43 23,1 °C 10,4 °C 51 % 84 % 1024,6 hPa 0,0 l/m² 9,0 km/h (2 Bft) NW 313 ° 1 min 100 W/m² 7,8 °C 8,6 °C 14,5 km/h (3 Bft)
15.09.2024 07:45 23,1 °C 10,5 °C 51 % 84 % 1024,6 hPa 0,0 l/m² 3,4 km/h (1 Bft) NW 317 ° 2 min 113 W/m² 7,9 °C 10,5 °C 8,0 km/h (2 Bft)
15.09.2024 07:47 23,1 °C 10,7 °C 51 % 84 % 1024,6 hPa 0,0 l/m² 2,7 km/h (1 Bft) W-NW 303 ° 2 min 118 W/m² 8,1 °C 10,7 °C 11,3 km/h (2 Bft)
15.09.2024 07:49 23,0 °C 10,8 °C 51 % 83 % 1024,7 hPa 0,0 l/m² 5,3 km/h (1 Bft) NW 325 ° 2 min 132 W/m² 8,0 °C 10,8 °C 12,9 km/h (3 Bft)
15.09.2024 07:51 23,0 °C 10,9 °C 51 % 83 % 1024,6 hPa 0,0 l/m² 5,3 km/h (1 Bft) NW 306 ° 2 min 107 W/m² 8,1 °C 10,9 °C 12,9 km/h (3 Bft)
15.09.2024 07:52 23,1 °C 11,0 °C 51 % 82 % 1024,7 hPa 0,0 l/m² 3,8 km/h (1 Bft) W 259 ° 1 min 142 W/m² 8,0 °C 11,0 °C 11,3 km/h (2 Bft)
15.09.2024 07:53 23,1 °C 11,0 °C 51 % 82 % 1024,6 hPa 0,0 l/m² 7,3 km/h (2 Bft) NW 317 ° 1 min 105 W/m² 8,0 °C 10,4 °C 11,3 km/h (2 Bft)
15.09.2024 07:54 23,1 °C 11,1 °C 51 % 82 % 1024,6 hPa 0,0 l/m² 5,5 km/h (2 Bft) W-NW 292 ° 1 min 165 W/m² 8,1 °C 11,1 °C 11,3 km/h (2 Bft)
15.09.2024 07:55 23,0 °C 11,1 °C 51 % 82 % 1024,6 hPa 0,0 l/m² 5,3 km/h (1 Bft) NW 320 ° 1 min 163 W/m² 8,1 °C 11,1 °C 11,3 km/h (2 Bft)
15.09.2024 07:57 23,0 °C 11,2 °C 51 % 81 % 1024,7 hPa 0,0 l/m² 8,7 km/h (2 Bft) W-NW 290 ° 2 min 178 W/m² 8,1 °C 9,7 °C 16,1 km/h (3 Bft)
15.09.2024 07:59 23,0 °C 11,3 °C 51 % 81 % 1024,6 hPa 0,0 l/m² 3,4 km/h (1 Bft) W-NW 289 ° 2 min 100 W/m² 8,2 °C 11,3 °C 14,5 km/h (3 Bft)
15.09.2024 08:01 23,0 °C 11,4 °C 51 % 81 % 1024,6 hPa 0,0 l/m² 5,7 km/h (2 Bft) NW 308 ° 2 min 185 W/m² 8,3 °C 11,4 °C 16,1 km/h (3 Bft)
15.09.2024 08:02 23,0 °C 11,4 °C 51 % 81 % 1024,6 hPa 0,0 l/m² 7,6 km/h (2 Bft) NW 323 ° 1 min 185 W/m² 8,3 °C 10,6 °C 12,9 km/h (3 Bft)
15.09.2024 08:03 23,0 °C 11,4 °C 51 % 81 % 1024,6 hPa 0,0 l/m² 5,3 km/h (1 Bft) W-NW 292 ° 1 min 197 W/m² 8,3 °C 11,4 °C 14,5 km/h (3 Bft)
15.09.2024 08:05 23,0 °C 11,5 °C 51 % 80 % 1024,6 hPa 0,0 l/m² 8,7 km/h (2 Bft) W 273 ° 2 min 202 W/m² 8,2 °C 10,0 °C 20,9 km/h (4 Bft)
15.09.2024 08:07 23,0 °C 11,6 °C 51 % 80 % 1024,6 hPa 0,0 l/m² 8,3 km/h (2 Bft) NW 304 ° 2 min 211 W/m² 8,3 °C 10,3 °C 17,7 km/h (3 Bft)
15.09.2024 08:09 23,0 °C 11,7 °C 51 % 80 % 1024,5 hPa 0,0 l/m² 4,5 km/h (1 Bft) W 274 ° 2 min 216 W/m² 8,4 °C 11,7 °C 12,9 km/h (3 Bft)
15.09.2024 08:11 23,0 °C 11,8 °C 51 % 80 % 1024,6 hPa 0,0 l/m² 5,1 km/h (1 Bft) NW 304 ° 2 min 234 W/m² 8,5 °C 11,8 °C 14,5 km/h (3 Bft)
15.09.2024 08:12 22,9 °C 11,8 °C 51 % 79 % 1024,5 hPa 0,0 l/m² 12,2 km/h (2 Bft) NW 308 ° 1 min 141 W/m² 8,3 °C 8,5 °C 17,7 km/h (3 Bft)
15.09.2024 08:13 22,9 °C 11,8 °C 51 % 79 % 1024,5 hPa 0,0 l/m² 10,2 km/h (2 Bft) W 280 ° 1 min 141 W/m² 8,3 °C 9,5 °C 16,1 km/h (3 Bft)
15.09.2024 08:15 23,0 °C 11,8 °C 51 % 79 % 1024,6 hPa 0,0 l/m² 6,2 km/h (2 Bft) SW 221 ° 2 min 130 W/m² 8,3 °C 11,8 °C 16,1 km/h (3 Bft)
15.09.2024 08:17 23,0 °C 11,8 °C 51 % 79 % 1024,7 hPa 0,0 l/m² 9,0 km/h (2 Bft) W-NW 299 ° 2 min 258 W/m² 8,3 °C 10,1 °C 17,7 km/h (3 Bft)
15.09.2024 08:19 23,0 °C 11,9 °C 51 % 78 % 1024,7 hPa 0,0 l/m² 10,8 km/h (2 Bft) NW 324 ° 2 min 258 W/m² 8,2 °C 9,3 °C 19,3 km/h (3 Bft)
15.09.2024 08:21 23,0 °C 11,9 °C 51 % 79 % 1024,6 hPa 0,0 l/m² 4,0 km/h (1 Bft) W-NW 302 ° 2 min 269 W/m² 8,4 °C 11,9 °C 12,9 km/h (3 Bft)
15.09.2024 08:22 23,0 °C 11,9 °C 51 % 79 % 1024,7 hPa 0,0 l/m² 5,3 km/h (1 Bft) NW 306 ° 1 min 144 W/m² 8,4 °C 11,9 °C 9,7 km/h (2 Bft)
15.09.2024 08:23 23,0 °C 11,9 °C 51 % 78 % 1024,7 hPa 0,0 l/m² 9,7 km/h (2 Bft) W-NW 288 ° 1 min 153 W/m² 8,2 °C 9,9 °C 12,9 km/h (3 Bft)
15.09.2024 08:25 23,1 °C 11,9 °C 51 % 78 % 1024,7 hPa 0,0 l/m² 9,4 km/h (2 Bft) W-NW 302 ° 2 min 292 W/m² 8,2 °C 10,0 °C 16,1 km/h (3 Bft)
15.09.2024 08:27 23,1 °C 11,9 °C 52 % 78 % 1024,8 hPa 0,0 l/m² 10,8 km/h (2 Bft) W-NW 297 ° 2 min 148 W/m² 8,2 °C 9,3 °C 19,3 km/h (3 Bft)
15.09.2024 08:29 23,1 °C 11,9 °C 51 % 78 % 1024,7 hPa 0,0 l/m² 11,9 km/h (2 Bft) W-NW 300 ° 2 min 135 W/m² 8,2 °C 8,7 °C 22,5 km/h (4 Bft)
15.09.2024 08:31 23,1 °C 11,8 °C 51 % 79 % 1024,7 hPa 0,0 l/m² 8,4 km/h (2 Bft) W-NW 298 ° 2 min 207 W/m² 8,3 °C 10,5 °C 17,7 km/h (3 Bft)
15.09.2024 08:32 23,1 °C 11,8 °C 52 % 79 % 1024,7 hPa 0,0 l/m² 6,0 km/h (2 Bft) W-NW 302 ° 1 min 169 W/m² 8,3 °C 11,8 °C 11,3 km/h (2 Bft)
15.09.2024 08:33 23,1 °C 11,8 °C 52 % 78 % 1024,7 hPa 0,0 l/m² 4,7 km/h (1 Bft) W-NW 298 ° 1 min 141 W/m² 8,1 °C 11,8 °C 6,4 km/h (2 Bft)
15.09.2024 08:35 23,1 °C 11,9 °C 52 % 79 % 1024,6 hPa 0,0 l/m² 6,9 km/h (2 Bft) W-NW 294 ° 2 min 151 W/m² 8,4 °C 11,6 °C 16,1 km/h (3 Bft)
15.09.2024 08:37 23,1 °C 11,8 °C 52 % 78 % 1024,6 hPa 0,0 l/m² 9,6 km/h (2 Bft) W-NW 302 ° 2 min 192 W/m² 8,1 °C 9,8 °C 19,3 km/h (3 Bft)
15.09.2024 08:39 23,1 °C 11,8 °C 52 % 78 % 1024,6 hPa 0,0 l/m² 10,6 km/h (2 Bft) W-NW 296 ° 2 min 338 W/m² 8,1 °C 9,3 °C 20,9 km/h (4 Bft)
15.09.2024 08:41 23,2 °C 11,9 °C 52 % 78 % 1024,6 hPa 0,0 l/m² 11,7 km/h (2 Bft) N 5 ° 2 min 125 W/m² 8,2 °C 8,8 °C 20,9 km/h (4 Bft)
15.09.2024 08:42 23,2 °C 11,9 °C 52 % 78 % 1024,6 hPa 0,0 l/m² 12,9 km/h (3 Bft) N-NW 327 ° 1 min 125 W/m² 8,2 °C 8,3 °C 20,9 km/h (4 Bft)
15.09.2024 08:43 23,2 °C 11,9 °C 52 % 78 % 1024,6 hPa 0,0 l/m² 7,2 km/h (2 Bft) W-NW 302 ° 1 min 125 W/m² 8,2 °C 11,4 °C 12,9 km/h (3 Bft)
15.09.2024 08:46 23,2 °C 12,1 °C 52 % 78 % 1024,6 hPa 0,0 l/m² 10,8 km/h (2 Bft) NW 318 ° 3 min 373 W/m² 8,4 °C 9,5 °C 22,5 km/h (4 Bft)
15.09.2024 08:48 23,2 °C 12,3 °C 52 % 78 % 1024,5 hPa 0,0 l/m² 8,0 km/h (2 Bft) N-NW 327 ° 2 min 373 W/m² 8,6 °C 11,3 °C 14,5 km/h (3 Bft)
15.09.2024 08:50 23,3 °C 12,4 °C 52 % 77 % 1024,6 hPa 0,0 l/m² 9,0 km/h (2 Bft) NW 325 ° 2 min 118 W/m² 8,5 °C 10,8 °C 22,5 km/h (4 Bft)
15.09.2024 08:51 23,2 °C 12,3 °C 52 % 77 % 1024,6 hPa 0,0 l/m² 9,5 km/h (2 Bft) W 273 ° 1 min 118 W/m² 8,4 °C 10,4 °C 19,3 km/h (3 Bft)
15.09.2024 08:52 23,2 °C 12,3 °C 52 % 77 % 1024,6 hPa 0,0 l/m² 8,6 km/h (2 Bft) W 259 ° 1 min 118 W/m² 8,4 °C 10,9 °C 14,5 km/h (3 Bft)
15.09.2024 08:55 23,2 °C 12,4 °C 52 % 76 % 1024,6 hPa 0,0 l/m² 11,9 km/h (2 Bft) W-NW 290 ° 3 min 271 W/m² 8,3 °C 9,3 °C 25,7 km/h (4 Bft)
15.09.2024 08:57 23,3 °C 12,6 °C 52 % 77 % 1024,5 hPa 0,0 l/m² 8,9 km/h (2 Bft) NW 306 ° 2 min 373 W/m² 8,7 °C 11,1 °C 17,7 km/h (3 Bft)
15.09.2024 08:59 23,3 °C 12,7 °C 52 % 75 % 1024,6 hPa 0,0 l/m² 18,1 km/h (3 Bft) W 268 ° 2 min 353 W/m² 8,4 °C 7,3 °C 24,1 km/h (4 Bft)
15.09.2024 09:00 23,3 °C 12,7 °C 52 % 75 % 1024,5 hPa 0,0 l/m² 12,9 km/h (3 Bft) W-NW 294 ° 1 min 341 W/m² 8,4 °C 9,2 °C 20,9 km/h (4 Bft)
15.09.2024 09:01 23,3 °C 12,8 °C 52 % 76 % 1024,6 hPa 0,0 l/m² 12,2 km/h (2 Bft) W-NW 303 ° 1 min 348 W/m² 8,7 °C 9,7 °C 17,7 km/h (3 Bft)
15.09.2024 09:02 23,3 °C 12,9 °C 52 % 76 % 1024,6 hPa 0,0 l/m² 10,2 km/h (2 Bft) W-NW 288 ° 1 min 359 W/m² 8,8 °C 10,7 °C 17,7 km/h (3 Bft)
15.09.2024 09:04 23,3 °C 12,9 °C 52 % 75 % 1024,7 hPa 0,0 l/m² 15,0 km/h (3 Bft) NW 311 ° 2 min 144 W/m² 8,6 °C 8,6 °C 30,6 km/h (5 Bft)
15.09.2024 09:06 23,3 °C 12,8 °C 52 % 75 % 1024,6 hPa 0,0 l/m² 17,1 km/h (3 Bft) NW 313 ° 2 min 415 W/m² 8,5 °C 7,8 °C 29,0 km/h (5 Bft)
15.09.2024 09:08 23,3 °C 12,8 °C 52 % 75 % 1024,6 hPa 0,0 l/m² 14,5 km/h (3 Bft) NW 307 ° 2 min 390 W/m² 8,5 °C 8,7 °C 22,5 km/h (4 Bft)
15.09.2024 09:10 23,3 °C 12,8 °C 52 % 75 % 1024,7 hPa 0,0 l/m² 14,1 km/h (3 Bft) W 263 ° 2 min 381 W/m² 8,5 °C 8,9 °C 22,5 km/h (4 Bft)
15.09.2024 09:11 23,3 °C 12,9 °C 52 % 76 % 1024,7 hPa 0,0 l/m² 13,1 km/h (3 Bft) N-NW 335 ° 1 min 392 W/m² 8,8 °C 9,4 °C 24,1 km/h (4 Bft)
15.09.2024 09:12 23,3 °C 13,0 °C 52 % 75 % 1024,7 hPa 0,0 l/m² 19,4 km/h (3 Bft) NW 309 ° 1 min 406 W/m² 8,7 °C 7,3 °C 25,7 km/h (4 Bft)
15.09.2024 09:15 23,3 °C 13,0 °C 52 % 74 % 1024,7 hPa 0,0 l/m² 13,1 km/h (3 Bft) NW 309 ° 3 min 230 W/m² 8,5 °C 9,5 °C 24,1 km/h (4 Bft)
15.09.2024 09:17 23,4 °C 13,2 °C 52 % 75 % 1024,7 hPa 0,0 l/m² 9,4 km/h (2 Bft) NW 318 ° 2 min 459 W/m² 8,9 °C 11,4 °C 22,5 km/h (4 Bft)
15.09.2024 09:19 23,3 °C 13,3 °C 52 % 75 % 1024,7 hPa 0,0 l/m² 12,8 km/h (3 Bft) N-NW 332 ° 2 min 461 W/m² 9,0 °C 10,0 °C 25,7 km/h (4 Bft)
15.09.2024 09:20 23,4 °C 13,4 °C 52 % 74 % 1024,7 hPa 0,0 l/m² 13,1 km/h (3 Bft) W-NW 291 ° 1 min 436 W/m² 8,9 °C 10,0 °C 19,3 km/h (3 Bft)
15.09.2024 09:21 23,4 °C 13,4 °C 52 % 74 % 1024,7 hPa 0,0 l/m² 5,3 km/h (1 Bft) NW 310 ° 1 min 420 W/m² 8,9 °C 13,4 °C 9,7 km/h (2 Bft)
15.09.2024 09:22 23,4 °C 13,6 °C 52 % 74 % 1024,7 hPa 0,0 l/m² 2,7 km/h (1 Bft) N 355 ° 1 min 411 W/m² 9,1 °C 13,6 °C 6,4 km/h (2 Bft)
15.09.2024 09:24 23,4 °C 13,7 °C 52 % 73 % 1024,7 hPa 0,0 l/m² 7,7 km/h (2 Bft) NW 324 ° 2 min 387 W/m² 8,9 °C 12,9 °C 17,7 km/h (3 Bft)
15.09.2024 09:26 23,4 °C 13,7 °C 52 % 74 % 1024,6 hPa 0,0 l/m² 9,0 km/h (2 Bft) NW 317 ° 2 min 411 W/m² 9,2 °C 12,2 °C 17,7 km/h (3 Bft)
15.09.2024 09:28 23,4 °C 13,8 °C 52 % 74 % 1024,6 hPa 0,0 l/m² 10,0 km/h (2 Bft) N-NO 16 ° 2 min 436 W/m² 9,2 °C 11,8 °C 20,9 km/h (4 Bft)
15.09.2024 09:30 23,4 °C 13,7 °C 52 % 73 % 1024,6 hPa 0,0 l/m² 9,8 km/h (2 Bft) NW 309 ° 2 min 162 W/m² 8,9 °C 11,8 °C 20,9 km/h (4 Bft)
15.09.2024 09:31 23,4 °C 13,6 °C 51 % 73 % 1024,6 hPa 0,0 l/m² 8,1 km/h (2 Bft) NW 317 ° 1 min 162 W/m² 8,9 °C 12,6 °C 12,9 km/h (3 Bft)
15.09.2024 09:32 23,4 °C 13,5 °C 51 % 73 % 1024,6 hPa 0,0 l/m² 7,8 km/h (2 Bft) W-SW 242 ° 1 min 162 W/m² 8,8 °C 12,6 °C 12,9 km/h (3 Bft)
15.09.2024 09:33 23,4 °C 13,5 °C 52 % 74 % 1024,7 hPa 0,0 l/m² 9,3 km/h (2 Bft) NW 319 ° 1 min 506 W/m² 9,0 °C 11,8 °C 17,7 km/h (3 Bft)
15.09.2024 09:35 23,4 °C 13,7 °C 51 % 74 % 1024,6 hPa 0,0 l/m² 12,8 km/h (3 Bft) NW 323 ° 2 min 510 W/m² 9,2 °C 10,4 °C 20,9 km/h (4 Bft)
15.09.2024 09:37 23,4 °C 13,9 °C 51 % 74 % 1024,7 hPa 0,0 l/m² 15,5 km/h (3 Bft) W-NW 292 ° 2 min 480 W/m² 9,3 °C 9,7 °C 27,4 km/h (5 Bft)
15.09.2024 09:39 23,4 °C 14,1 °C 51 % 74 % 1024,6 hPa 0,0 l/m² 10,4 km/h (2 Bft) NW 325 ° 2 min 450 W/m² 9,5 °C 11,9 °C 22,5 km/h (4 Bft)
15.09.2024 09:40 23,4 °C 14,2 °C 51 % 73 % 1024,7 hPa 0,0 l/m² 11,9 km/h (2 Bft) NW 304 ° 1 min 468 W/m² 9,4 °C 11,4 °C 20,9 km/h (4 Bft)
15.09.2024 09:41 23,4 °C 14,2 °C 51 % 72 % 1024,7 hPa 0,0 l/m² 14,6 km/h (3 Bft) NW 314 ° 1 min 482 W/m² 9,2 °C 10,4 °C 20,9 km/h (4 Bft)
15.09.2024 09:42 23,4 °C 14,1 °C 51 % 72 % 1024,6 hPa 0,0 l/m² 18,9 km/h (3 Bft) NW 318 ° 1 min 462 W/m² 9,1 °C 8,9 °C 29,0 km/h (5 Bft)
15.09.2024 09:44 23,4 °C 14,1 °C 50 % 73 % 1024,6 hPa 0,0 l/m² 13,7 km/h (3 Bft) N-NW 329 ° 2 min 454 W/m² 9,3 °C 10,6 °C 25,7 km/h (4 Bft)
15.09.2024 09:45 23,4 °C 14,1 °C 50 % 73 % 1024,5 hPa 0,0 l/m² 8,0 km/h (2 Bft) NW 304 ° 1 min 457 W/m² 9,3 °C 13,2 °C 22,5 km/h (4 Bft)
15.09.2024 09:46 23,4 °C 14,1 °C 50 % 73 % 1024,5 hPa 0,0 l/m² 12,5 km/h (2 Bft) NW 325 ° 1 min 459 W/m² 9,3 °C 11,0 °C 22,5 km/h (4 Bft)
15.09.2024 09:47 23,4 °C 14,2 °C 50 % 73 % 1024,5 hPa 0,0 l/m² 11,6 km/h (2 Bft) NW 315 ° 1 min 461 W/m² 9,4 °C 11,5 °C 22,5 km/h (4 Bft)
15.09.2024 09:49 23,4 °C 14,2 °C 50 % 72 % 1024,6 hPa 0,0 l/m² 9,8 km/h (2 Bft) NW 307 ° 2 min 457 W/m² 9,2 °C 12,3 °C 19,3 km/h (3 Bft)
15.09.2024 09:50 23,4 °C 14,3 °C 50 % 72 % 1024,5 hPa 0,0 l/m² 15,1 km/h (3 Bft) NW 314 ° 1 min 455 W/m² 9,3 °C 10,3 °C 25,7 km/h (4 Bft)
15.09.2024 09:51 23,4 °C 14,2 °C 50 % 72 % 1024,5 hPa 0,0 l/m² 12,1 km/h (2 Bft) NW 318 ° 1 min 457 W/m² 9,2 °C 11,3 °C 19,3 km/h (3 Bft)
15.09.2024 09:52 23,4 °C 14,2 °C 50 % 72 % 1024,6 hPa 0,0 l/m² 13,7 km/h (3 Bft) N-NW 344 ° 1 min 461 W/m² 9,2 °C 10,7 °C 20,9 km/h (4 Bft)
15.09.2024 09:54 23,4 °C 14,1 °C 50 % 72 % 1024,5 hPa 0,0 l/m² 14,4 km/h (3 Bft) W-NW 286 ° 2 min 468 W/m² 9,1 °C 10,3 °C 25,7 km/h (4 Bft)
15.09.2024 09:56 23,4 °C 14,2 °C 50 % 72 % 1024,5 hPa 0,0 l/m² 17,1 km/h (3 Bft) NW 307 ° 2 min 473 W/m² 9,2 °C 9,5 °C 27,4 km/h (5 Bft)
15.09.2024 09:58 23,3 °C 14,1 °C 50 % 72 % 1024,4 hPa 0,0 l/m² 16,2 km/h (3 Bft) NW 318 ° 2 min 476 W/m² 9,1 °C 9,7 °C 25,7 km/h (4 Bft)
15.09.2024 10:00 23,4 °C 14,1 °C 50 % 72 % 1024,4 hPa 0,0 l/m² 16,5 km/h (3 Bft) NW 320 ° 2 min 483 W/m² 9,1 °C 9,6 °C 25,7 km/h (4 Bft)
15.09.2024 10:01 23,3 °C 14,1 °C 50 % 72 % 1024,4 hPa 0,0 l/m² 17,0 km/h (3 Bft) N-NW 336 ° 1 min 485 W/m² 9,1 °C 9,4 °C 29,0 km/h (5 Bft)
15.09.2024 10:02 23,3 °C 14,2 °C 50 % 72 % 1024,4 hPa 0,0 l/m² 14,4 km/h (3 Bft) W-NW 302 ° 1 min 485 W/m² 9,2 °C 10,4 °C 27,4 km/h (5 Bft)
15.09.2024 10:03 23,3 °C 14,2 °C 50 % 72 % 1024,4 hPa 0,0 l/m² 14,7 km/h (3 Bft) N-NW 344 ° 1 min 489 W/m² 9,2 °C 10,3 °C 22,5 km/h (4 Bft)
15.09.2024 10:05 23,3 °C 14,4 °C 50 % 73 % 1024,4 hPa 0,0 l/m² 12,2 km/h (2 Bft) NW 310 ° 2 min 490 W/m² 9,6 °C 11,5 °C 22,5 km/h (4 Bft)
15.09.2024 10:07 23,3 °C 14,4 °C 49 % 71 % 1024,3 hPa 0,0 l/m² 15,1 km/h (3 Bft) NW 317 ° 2 min 499 W/m² 9,2 °C 10,4 °C 24,1 km/h (4 Bft)
15.09.2024 10:09 23,3 °C 14,3 °C 48 % 71 % 1024,3 hPa 0,0 l/m² 15,8 km/h (3 Bft) W-NW 292 ° 2 min 506 W/m² 9,1 °C 10,1 °C 29,0 km/h (5 Bft)
15.09.2024 10:10 23,4 °C 14,3 °C 48 % 71 % 1024,4 hPa 0,0 l/m² 16,8 km/h (3 Bft) NW 312 ° 1 min 510 W/m² 9,1 °C 9,8 °C 25,7 km/h (4 Bft)
15.09.2024 10:11 23,4 °C 14,4 °C 48 % 72 % 1024,4 hPa 0,0 l/m² 10,9 km/h (2 Bft) N-NW 328 ° 1 min 508 W/m² 9,4 °C 12,0 °C 22,5 km/h (4 Bft)
15.09.2024 10:12 23,4 °C 14,5 °C 48 % 73 % 1024,3 hPa 0,0 l/m² 12,9 km/h (3 Bft) W-NW 298 ° 1 min 510 W/m² 9,7 °C 11,3 °C 20,9 km/h (4 Bft)
15.09.2024 10:14 23,4 °C 14,6 °C 48 % 71 % 1024,3 hPa 0,0 l/m² 17,5 km/h (3 Bft) NW 315 ° 2 min 517 W/m² 9,4 °C 9,9 °C 25,7 km/h (4 Bft)
15.09.2024 10:16 23,4 °C 14,6 °C 49 % 70 % 1024,3 hPa 0,0 l/m² 19,9 km/h (4 Bft) N-NW 343 ° 2 min 519 W/m² 9,2 °C 9,3 °C 32,2 km/h (5 Bft)
15.09.2024 10:18 23,4 °C 14,6 °C 49 % 71 % 1024,2 hPa 0,0 l/m² 11,9 km/h (2 Bft) W-NW 294 ° 2 min 524 W/m² 9,4 °C 11,9 °C 24,1 km/h (4 Bft)
15.09.2024 10:20 23,5 °C 14,8 °C 48 % 71 % 1024,2 hPa 0,0 l/m² 15,4 km/h (3 Bft) N-NW 343 ° 2 min 533 W/m² 9,6 °C 10,8 °C 27,4 km/h (5 Bft)
15.09.2024 10:21 23,5 °C 14,8 °C 48 % 69 % 1024,1 hPa 0,0 l/m² 20,4 km/h (4 Bft) W-NW 293 ° 1 min 534 W/m² 9,2 °C 9,4 °C 29,0 km/h (5 Bft)
15.09.2024 10:22 23,5 °C 14,9 °C 48 % 69 % 1024,1 hPa 0,0 l/m² 14,0 km/h (3 Bft) W 267 ° 1 min 540 W/m² 9,3 °C 11,4 °C 24,1 km/h (4 Bft)
15.09.2024 10:23 23,6 °C 14,9 °C 48 % 69 % 1024,2 hPa 0,0 l/m² 19,5 km/h (3 Bft) NW 322 ° 1 min 541 W/m² 9,3 °C 9,7 °C 27,4 km/h (5 Bft)
15.09.2024 10:25 23,6 °C 15,0 °C 48 % 69 % 1024,2 hPa 0,0 l/m² 16,3 km/h (3 Bft) NW 306 ° 2 min 545 W/m² 9,4 °C 10,8 °C 30,6 km/h (5 Bft)
15.09.2024 10:27 23,6 °C 15,0 °C 48 % 68 % 1024,1 hPa 0,0 l/m² 18,3 km/h (3 Bft) W-NW 291 ° 2 min 550 W/m² 9,1 °C 10,2 °C 33,8 km/h (5 Bft)
15.09.2024 10:29 23,6 °C 14,8 °C 48 % 68 % 1024,2 hPa 0,0 l/m² 22,8 km/h (4 Bft) NW 320 ° 2 min 555 W/m² 9,0 °C 8,8 °C 33,8 km/h (5 Bft)
15.09.2024 10:30 23,6 °C 14,7 °C 48 % 69 % 1024,0 hPa 0,0 l/m² 18,1 km/h (3 Bft) W-NW 298 ° 1 min 555 W/m² 9,1 °C 9,9 °C 27,4 km/h (5 Bft)
15.09.2024 10:31 23,6 °C 14,8 °C 48 % 69 % 1024,0 hPa 0,0 l/m² 17,8 km/h (3 Bft) N-NW 346 ° 1 min 561 W/m² 9,2 °C 10,1 °C 27,4 km/h (5 Bft)
15.09.2024 10:32 23,6 °C 14,8 °C 48 % 69 % 1024,0 hPa 0,0 l/m² 20,3 km/h (4 Bft) W-NW 292 ° 1 min 568 W/m² 9,2 °C 9,4 °C 29,0 km/h (5 Bft)
15.09.2024 10:34 23,6 °C 14,8 °C 48 % 70 % 1024,1 hPa 0,0 l/m² 20,2 km/h (4 Bft) N-NW 338 ° 2 min 568 W/m² 9,4 °C 9,4 °C 30,6 km/h (5 Bft)
15.09.2024 10:36 23,7 °C 14,9 °C 48 % 69 % 1024,1 hPa 0,0 l/m² 21,0 km/h (4 Bft) NW 321 ° 2 min 568 W/m² 9,3 °C 9,4 °C 33,8 km/h (5 Bft)
15.09.2024 10:37 23,7 °C 14,9 °C 48 % 68 % 1024,1 hPa 0,0 l/m² 24,8 km/h (4 Bft) NW 323 ° 1 min 577 W/m² 9,0 °C 8,5 °C 35,4 km/h (5 Bft)
15.09.2024 10:38 23,7 °C 14,9 °C 48 % 69 % 1024,1 hPa 0,0 l/m² 20,4 km/h (4 Bft) N-NW 336 ° 1 min 580 W/m² 9,3 °C 9,5 °C 33,8 km/h (5 Bft)
15.09.2024 10:40 23,7 °C 15,0 °C 48 % 69 % 1024,1 hPa 0,0 l/m² 16,4 km/h (3 Bft) NW 319 ° 2 min 587 W/m² 9,4 °C 10,7 °C 25,7 km/h (4 Bft)
15.09.2024 10:41 23,7 °C 15,1 °C 48 % 69 % 1024,1 hPa 0,0 l/m² 19,1 km/h (3 Bft) NW 315 ° 1 min 608 W/m² 9,5 °C 10,1 °C 29,0 km/h (5 Bft)
15.09.2024 10:42 23,7 °C 15,2 °C 48 % 68 % 1024,1 hPa 0,0 l/m² 17,2 km/h (3 Bft) W-NW 300 ° 1 min 608 W/m² 9,3 °C 10,8 °C 25,7 km/h (4 Bft)
15.09.2024 10:43 23,7 °C 15,2 °C 48 % 69 % 1024,2 hPa 0,0 l/m² 16,3 km/h (3 Bft) W-NW 296 ° 1 min 608 W/m² 9,6 °C 11,0 °C 27,4 km/h (5 Bft)
15.09.2024 10:45 23,7 °C 15,2 °C 48 % 69 % 1024,2 hPa 0,0 l/m² 20,5 km/h (4 Bft) W-NW 302 ° 2 min 617 W/m² 9,6 °C 9,9 °C 32,2 km/h (5 Bft)
15.09.2024 10:47 23,7 °C 15,2 °C 48 % 69 % 1024,2 hPa 0,0 l/m² 13,8 km/h (3 Bft) N 360 ° 2 min 677 W/m² 9,6 °C 11,8 °C 27,4 km/h (5 Bft)
15.09.2024 10:49 23,7 °C 15,2 °C 48 % 69 % 1024,1 hPa 0,0 l/m² 15,3 km/h (3 Bft) W-NW 302 ° 2 min 146 W/m² 9,6 °C 11,3 °C 29,0 km/h (5 Bft)
15.09.2024 10:50 23,7 °C 15,2 °C 48 % 68 % 1024,2 hPa 0,0 l/m² 19,3 km/h (3 Bft) N-NW 344 ° 1 min 663 W/m² 9,3 °C 10,2 °C 27,4 km/h (5 Bft)
15.09.2024 10:51 23,7 °C 15,1 °C 48 % 69 % 1024,2 hPa 0,0 l/m² 19,8 km/h (3 Bft) NW 308 ° 1 min 700 W/m² 9,5 °C 9,9 °C 27,4 km/h (5 Bft)
15.09.2024 10:52 23,7 °C 15,2 °C 48 % 70 % 1024,2 hPa 0,0 l/m² 14,7 km/h (3 Bft) W-SW 244 ° 1 min 663 W/m² 9,8 °C 11,5 °C 25,7 km/h (4 Bft)
15.09.2024 10:54 23,8 °C 15,1 °C 48 % 69 % 1024,2 hPa 0,0 l/m² 13,3 km/h (3 Bft) N-NW 327 ° 2 min 747 W/m² 9,5 °C 11,9 °C 25,7 km/h (4 Bft)
15.09.2024 10:56 23,7 °C 15,1 °C 48 % 69 % 1024,1 hPa 0,0 l/m² 14,8 km/h (3 Bft) S-SW 213 ° 2 min 745 W/m² 9,5 °C 11,4 °C 32,2 km/h (5 Bft)
15.09.2024 10:58 23,8 °C 15,0 °C 48 % 70 % 1024,2 hPa 0,0 l/m² 13,6 km/h (3 Bft) N-NW 348 ° 2 min 745 W/m² 9,6 °C 11,7 °C 22,5 km/h (4 Bft)
15.09.2024 11:00 23,8 °C 15,1 °C 48 % 70 % 1024,1 hPa 0,0 l/m² 14,2 km/h (3 Bft) NW 319 ° 2 min 234 W/m² 9,7 °C 11,6 °C 24,1 km/h (4 Bft)
15.09.2024 11:01 23,8 °C 15,2 °C 48 % 70 % 1024,1 hPa 0,0 l/m² 13,9 km/h (3 Bft) N-NW 342 ° 1 min 234 W/m² 9,8 °C 11,8 °C 25,7 km/h (4 Bft)
15.09.2024 11:02 23,8 °C 15,2 °C 48 % 69 % 1024,1 hPa 0,0 l/m² 16,1 km/h (3 Bft) W-NW 291 ° 1 min 234 W/m² 9,6 °C 11,1 °C 25,7 km/h (4 Bft)
15.09.2024 11:03 23,8 °C 15,3 °C 48 % 70 % 1024,0 hPa 0,0 l/m² 19,0 km/h (3 Bft) W-NW 302 ° 1 min 577 W/m² 9,9 °C 10,4 °C 33,8 km/h (5 Bft)
15.09.2024 11:05 23,8 °C 15,4 °C 48 % 70 % 1024,1 hPa 0,0 l/m² 18,9 km/h (3 Bft) W 280 ° 2 min 278 W/m² 10,0 °C 10,5 °C 33,8 km/h (5 Bft)
15.09.2024 11:07 23,8 °C 15,3 °C 48 % 68 % 1024,1 hPa 0,0 l/m² 15,5 km/h (3 Bft) N-NW 336 ° 2 min 278 W/m² 9,4 °C 11,4 °C 24,1 km/h (4 Bft)
15.09.2024 11:09 23,8 °C 15,0 °C 48 % 69 % 1024,1 hPa 0,0 l/m² 12,0 km/h (2 Bft) W-NW 300 ° 2 min 253 W/m² 9,4 °C 12,3 °C 22,5 km/h (4 Bft)
15.09.2024 11:10 23,8 °C 15,0 °C 48 % 70 % 1024,1 hPa 0,0 l/m² 11,3 km/h (2 Bft) N-NW 336 ° 1 min 253 W/m² 9,6 °C 12,6 °C 25,7 km/h (4 Bft)
15.09.2024 11:11 23,8 °C 15,1 °C 48 % 71 % 1024,1 hPa 0,0 l/m² 10,5 km/h (2 Bft) N-NW 333 ° 1 min 253 W/m² 9,9 °C 13,0 °C 20,9 km/h (4 Bft)
15.09.2024 11:12 23,8 °C 15,1 °C 48 % 70 % 1024,1 hPa 0,0 l/m² 10,8 km/h (2 Bft) N-NW 336 ° 1 min 253 W/m² 9,7 °C 12,9 °C 17,7 km/h (3 Bft)
15.09.2024 11:14 23,8 °C 15,3 °C 48 % 70 % 1024,1 hPa 0,0 l/m² 16,3 km/h (3 Bft) N-NO 12 ° 2 min 738 W/m² 9,9 °C 11,1 °C 25,7 km/h (4 Bft)
15.09.2024 11:16 23,8 °C 15,5 °C 48 % 70 % 1024,1 hPa 0,0 l/m² 17,9 km/h (3 Bft) W-SW 257 ° 2 min 738 W/m² 10,1 °C 10,9 °C 27,4 km/h (5 Bft)
15.09.2024 11:18 23,8 °C 15,3 °C 48 % 68 % 1024,0 hPa 0,0 l/m² 16,5 km/h (3 Bft) N-NW 346 ° 2 min 216 W/m² 9,4 °C 11,1 °C 33,8 km/h (5 Bft)
15.09.2024 11:20 23,8 °C 15,3 °C 48 % 69 % 1024,1 hPa 0,0 l/m² 15,5 km/h (3 Bft) W-NW 294 ° 2 min 698 W/m² 9,6 °C 11,4 °C 25,7 km/h (4 Bft)
15.09.2024 11:21 23,8 °C 15,4 °C 49 % 69 % 1024,1 hPa 0,0 l/m² 18,4 km/h (3 Bft) W-NW 300 ° 1 min 679 W/m² 9,7 °C 10,7 °C 27,4 km/h (5 Bft)
15.09.2024 11:22 23,8 °C 15,4 °C 49 % 69 % 1024,1 hPa 0,0 l/m² 14,0 km/h (3 Bft) W-NW 298 ° 1 min 675 W/m² 9,7 °C 12,0 °C 20,9 km/h (4 Bft)
15.09.2024 11:23 23,8 °C 15,6 °C 49 % 69 % 1024,1 hPa 0,0 l/m² 17,3 km/h (3 Bft) N-NW 340 ° 1 min 670 W/m² 9,9 °C 11,2 °C 25,7 km/h (4 Bft)
15.09.2024 11:25 23,8 °C 15,7 °C 49 % 68 % 1023,9 hPa 0,0 l/m² 14,5 km/h (3 Bft) W 278 ° 2 min 703 W/m² 9,8 °C 12,2 °C 24,1 km/h (4 Bft)
15.09.2024 11:27 23,8 °C 15,7 °C 49 % 68 % 1024,0 hPa 0,0 l/m² 21,8 km/h (4 Bft) NW 305 ° 2 min 772 W/m² 9,8 °C 10,2 °C 33,8 km/h (5 Bft)
15.09.2024 11:29 23,9 °C 15,9 °C 49 % 68 % 1024,1 hPa 0,0 l/m² 17,2 km/h (3 Bft) NW 325 ° 2 min 772 W/m² 10,0 °C 11,6 °C 30,6 km/h (5 Bft)
15.09.2024 11:30 23,9 °C 15,8 °C 49 % 66 % 1024,0 hPa 0,0 l/m² 18,4 km/h (3 Bft) NW 323 ° 1 min 772 W/m² 9,5 °C 11,2 °C 32,2 km/h (5 Bft)
15.09.2024 11:31 23,9 °C 15,7 °C 49 % 67 % 1024,0 hPa 0,0 l/m² 20,0 km/h (4 Bft) NW 316 ° 1 min 171 W/m² 9,6 °C 10,7 °C 30,6 km/h (5 Bft)
15.09.2024 11:32 23,9 °C 15,4 °C 49 % 67 % 1023,9 hPa 0,0 l/m² 19,1 km/h (3 Bft) NW 326 ° 1 min 171 W/m² 9,3 °C 10,5 °C 30,6 km/h (5 Bft)
15.09.2024 11:34 23,9 °C 15,4 °C 49 % 68 % 1024,1 hPa 0,0 l/m² 20,7 km/h (4 Bft) NW 322 ° 2 min 780 W/m² 9,5 °C 10,1 °C 32,2 km/h (5 Bft)
15.09.2024 11:36 23,9 °C 15,5 °C 49 % 67 % 1024,0 hPa 0,0 l/m² 16,4 km/h (3 Bft) NW 322 ° 2 min 780 W/m² 9,4 °C 11,4 °C 30,6 km/h (5 Bft)
15.09.2024 11:38 23,9 °C 15,7 °C 48 % 68 % 1024,0 hPa 0,0 l/m² 14,9 km/h (3 Bft) W 275 ° 2 min 700 W/m² 9,8 °C 12,1 °C 29,0 km/h (5 Bft)
15.09.2024 11:40 23,9 °C 16,0 °C 49 % 68 % 1023,9 hPa 0,0 l/m² 12,2 km/h (2 Bft) NW 315 ° 2 min 726 W/m² 10,1 °C 13,3 °C 27,4 km/h (5 Bft)
15.09.2024 11:41 23,9 °C 16,1 °C 49 % 67 % 1023,9 hPa 0,0 l/m² 14,6 km/h (3 Bft) W-NW 303 ° 1 min 772 W/m² 10,0 °C 12,6 °C 24,1 km/h (4 Bft)
15.09.2024 11:42 23,9 °C 16,1 °C 49 % 67 % 1023,9 hPa 0,0 l/m² 19,0 km/h (3 Bft) N 355 ° 1 min 772 W/m² 10,0 °C 11,4 °C 27,4 km/h (5 Bft)
15.09.2024 11:43 23,9 °C 16,1 °C 49 % 67 % 1023,8 hPa 0,0 l/m² 11,1 km/h (2 Bft) NW 311 ° 1 min 297 W/m² 10,0 °C 13,9 °C 22,5 km/h (4 Bft)
15.09.2024 11:45 23,9 °C 16,3 °C 49 % 68 % 1023,8 hPa 0,0 l/m² 8,1 km/h (2 Bft) NW 311 ° 2 min 297 W/m² 10,4 °C 15,4 °C 19,3 km/h (3 Bft)
15.09.2024 11:47 23,9 °C 16,3 °C 49 % 65 % 1023,8 hPa 0,0 l/m² 15,5 km/h (3 Bft) N-NW 329 ° 2 min 272 W/m² 9,7 °C 12,6 °C 24,1 km/h (4 Bft)
15.09.2024 11:49 23,9 °C 16,1 °C 49 % 66 % 1023,7 hPa 0,0 l/m² 13,5 km/h (3 Bft) NW 309 ° 2 min 272 W/m² 9,7 °C 13,0 °C 25,7 km/h (4 Bft)
15.09.2024 11:50 23,9 °C 16,0 °C 49 % 65 % 1023,7 hPa 0,0 l/m² 14,6 km/h (3 Bft) N-NW 333 ° 1 min 232 W/m² 9,4 °C 12,5 °C 27,4 km/h (5 Bft)
15.09.2024 11:51 23,9 °C 15,9 °C 49 % 66 % 1023,7 hPa 0,0 l/m² 13,8 km/h (3 Bft) W 274 ° 1 min 272 W/m² 9,6 °C 12,7 °C 29,0 km/h (5 Bft)
15.09.2024 11:52 23,9 °C 15,9 °C 49 % 67 % 1023,7 hPa 0,0 l/m² 18,7 km/h (3 Bft) W-NW 294 ° 1 min 272 W/m² 9,8 °C 11,2 °C 27,4 km/h (5 Bft)
15.09.2024 11:54 23,9 °C 16,2 °C 49 % 64 % 1023,6 hPa 0,0 l/m² 15,5 km/h (3 Bft) N-NW 340 ° 2 min 882 W/m² 9,4 °C 12,5 °C 37,0 km/h (5 Bft)
15.09.2024 11:56 24,0 °C 16,0 °C 49 % 62 % 1023,7 hPa 0,0 l/m² 20,9 km/h (4 Bft) W 278 ° 2 min 202 W/m² 8,7 °C 10,8 °C 33,8 km/h (5 Bft)
15.09.2024 11:58 23,9 °C 15,9 °C 49 % 63 % 1023,6 hPa 0,0 l/m² 17,4 km/h (3 Bft) N-NW 345 ° 2 min 868 W/m² 8,9 °C 11,6 °C 29,0 km/h (5 Bft)
15.09.2024 12:00 24,0 °C 16,0 °C 49 % 62 % 1023,6 hPa 0,0 l/m² 21,1 km/h (4 Bft) W-NW 300 ° 2 min 844 W/m² 8,7 °C 10,8 °C 33,8 km/h (5 Bft)
15.09.2024 12:01 23,9 °C 16,2 °C 49 % 64 % 1023,5 hPa 0,0 l/m² 10,8 km/h (2 Bft) W-NW 292 ° 1 min 773 W/m² 9,4 °C 14,1 °C 19,3 km/h (3 Bft)
15.09.2024 12:02 23,9 °C 16,4 °C 49 % 66 % 1023,5 hPa 0,0 l/m² 5,7 km/h (2 Bft) NW 306 ° 1 min 768 W/m² 10,0 °C 16,4 °C 12,9 km/h (3 Bft)
15.09.2024 12:03 24,0 °C 16,6 °C 49 % 67 % 1023,5 hPa 0,0 l/m² 14,1 km/h (3 Bft) NW 311 ° 1 min 772 W/m² 10,4 °C 13,4 °C 30,6 km/h (5 Bft)
15.09.2024 12:05 24,0 °C 16,6 °C 49 % 61 % 1023,4 hPa 0,0 l/m² 24,3 km/h (4 Bft) W 263 ° 2 min 765 W/m² 9,0 °C 10,9 °C 37,0 km/h (5 Bft)
15.09.2024 12:07 24,0 °C 16,6 °C 49 % 59 % 1023,4 hPa 0,0 l/m² 18,1 km/h (3 Bft) NW 325 ° 2 min 765 W/m² 8,6 °C 12,3 °C 25,7 km/h (4 Bft)
15.09.2024 12:09 24,1 °C 16,6 °C 49 % 60 % 1023,3 hPa 0,0 l/m² 19,5 km/h (3 Bft) NW 310 ° 2 min 780 W/m² 8,8 °C 11,9 °C 32,2 km/h (5 Bft)
15.09.2024 12:10 24,1 °C 16,6 °C 49 % 61 % 1023,3 hPa 0,0 l/m² 23,4 km/h (4 Bft) N-NW 328 ° 1 min 780 W/m² 9,0 °C 11,1 °C 32,2 km/h (5 Bft)
15.09.2024 12:11 24,1 °C 16,5 °C 49 % 61 % 1023,3 hPa 0,0 l/m² 23,8 km/h (4 Bft) NW 322 ° 1 min 780 W/m² 9,0 °C 10,9 °C 33,8 km/h (5 Bft)
15.09.2024 12:12 24,1 °C 16,4 °C 49 % 61 % 1023,3 hPa 0,0 l/m² 18,7 km/h (3 Bft) W-NW 288 ° 1 min 780 W/m² 8,9 °C 11,9 °C 33,8 km/h (5 Bft)
15.09.2024 12:14 24,1 °C 16,2 °C 49 % 61 % 1023,3 hPa 0,0 l/m² 19,7 km/h (3 Bft) NW 305 ° 2 min 197 W/m² 8,7 °C 11,4 °C 32,2 km/h (5 Bft)
15.09.2024 12:15 24,1 °C 16,1 °C 49 % 60 % 1023,3 hPa 0,0 l/m² 17,0 km/h (3 Bft) N 360 ° 1 min 197 W/m² 8,3 °C 11,9 °C 33,8 km/h (5 Bft)
15.09.2024 12:16 24,1 °C 16,2 °C 49 % 61 % 1023,3 hPa 0,0 l/m² 17,5 km/h (3 Bft) W-NW 294 ° 1 min 571 W/m² 8,7 °C 11,9 °C 25,7 km/h (4 Bft)
15.09.2024 12:18 24,1 °C 16,3 °C 48 % 61 % 1023,3 hPa 0,0 l/m² 16,1 km/h (3 Bft) N 355 ° 2 min 745 W/m² 8,8 °C 12,4 °C 27,4 km/h (5 Bft)
15.09.2024 12:20 24,1 °C 16,3 °C 48 % 61 % 1023,3 hPa 0,0 l/m² 20,0 km/h (4 Bft) N-NW 347 ° 2 min 745 W/m² 8,8 °C 11,4 °C 32,2 km/h (5 Bft)
15.09.2024 12:23 24,1 °C 16,4 °C 48 % 60 % 1023,1 hPa 0,0 l/m² 20,0 km/h (4 Bft) N-NW 330 ° 3 min 738 W/m² 8,6 °C 11,6 °C 32,2 km/h (5 Bft)
15.09.2024 12:25 24,1 °C 16,6 °C 48 % 59 % 1023,2 hPa 0,0 l/m² 18,9 km/h (3 Bft) N-NW 348 ° 2 min 722 W/m² 8,6 °C 12,1 °C 32,2 km/h (5 Bft)
15.09.2024 12:27 24,1 °C 16,7 °C 48 % 59 % 1023,2 hPa 0,0 l/m² 15,5 km/h (3 Bft) N-NW 329 ° 2 min 719 W/m² 8,6 °C 13,1 °C 27,4 km/h (5 Bft)
15.09.2024 12:28 24,1 °C 16,9 °C 48 % 59 % 1023,0 hPa 0,0 l/m² 20,2 km/h (4 Bft) NW 321 ° 1 min 735 W/m² 8,8 °C 12,2 °C 29,0 km/h (5 Bft)
15.09.2024 12:29 24,1 °C 16,9 °C 48 % 58 % 1023,0 hPa 0,0 l/m² 19,8 km/h (3 Bft) W 265 ° 1 min 737 W/m² 8,6 °C 12,2 °C 29,0 km/h (5 Bft)
15.09.2024 12:31 24,1 °C 17,1 °C 48 % 60 % 1022,9 hPa 0,0 l/m² 16,5 km/h (3 Bft) W-NW 286 ° 2 min 721 W/m² 9,3 °C 13,3 °C 25,7 km/h (4 Bft)
15.09.2024 12:32 24,2 °C 17,2 °C 48 % 59 % 1022,9 hPa 0,0 l/m² 20,8 km/h (4 Bft) N-NW 327 ° 1 min 703 W/m² 9,1 °C 12,4 °C 25,7 km/h (4 Bft)
15.09.2024 12:33 24,2 °C 17,1 °C 48 % 58 % 1022,9 hPa 0,0 l/m² 19,4 km/h (3 Bft) N 9 ° 1 min 705 W/m² 8,8 °C 12,6 °C 27,4 km/h (5 Bft)
15.09.2024 12:35 24,1 °C 17,1 °C 48 % 59 % 1022,9 hPa 0,0 l/m² 15,3 km/h (3 Bft) N-NW 343 ° 2 min 707 W/m² 9,0 °C 13,6 °C 27,4 km/h (5 Bft)
15.09.2024 12:36 24,2 °C 17,1 °C 48 % 58 % 1022,9 hPa 0,0 l/m² 20,5 km/h (4 Bft) N 355 ° 1 min 701 W/m² 8,8 °C 12,3 °C 33,8 km/h (5 Bft)
15.09.2024 12:37 24,1 °C 17,1 °C 48 % 58 % 1022,9 hPa 0,0 l/m² 15,2 km/h (3 Bft) N-NW 337 ° 1 min 705 W/m² 8,8 °C 13,7 °C 20,9 km/h (4 Bft)
15.09.2024 12:38 24,1 °C 17,2 °C 48 % 59 % 1022,9 hPa 0,0 l/m² 17,6 km/h (3 Bft) NW 310 ° 1 min 708 W/m² 9,1 °C 13,2 °C 24,1 km/h (4 Bft)
15.09.2024 12:40 24,2 °C 17,1 °C 49 % 59 % 1022,9 hPa 0,0 l/m² 19,2 km/h (3 Bft) W 260 ° 2 min 721 W/m² 9,0 °C 12,6 °C 37,0 km/h (5 Bft)
15.09.2024 12:43 24,1 °C 17,3 °C 49 % 59 % 1023,0 hPa 0,0 l/m² 15,3 km/h (3 Bft) NW 321 ° 3 min 708 W/m² 9,2 °C 13,9 °C 32,2 km/h (5 Bft)
15.09.2024 12:45 24,1 °C 17,3 °C 49 % 59 % 1022,9 hPa 0,0 l/m² 16,8 km/h (3 Bft) NW 311 ° 2 min 708 W/m² 9,2 °C 13,5 °C 25,7 km/h (4 Bft)
15.09.2024 12:46 24,1 °C 17,4 °C 49 % 60 % 1022,9 hPa 0,0 l/m² 14,5 km/h (3 Bft) W-NW 287 ° 1 min 707 W/m² 9,6 °C 14,2 °C 20,9 km/h (4 Bft)
15.09.2024 12:47 24,1 °C 17,5 °C 49 % 58 % 1023,0 hPa 0,0 l/m² 20,8 km/h (4 Bft) NW 319 ° 1 min 717 W/m² 9,1 °C 12,8 °C 29,0 km/h (5 Bft)
15.09.2024 12:48 24,1 °C 17,4 °C 49 % 58 % 1022,8 hPa 0,0 l/m² 15,7 km/h (3 Bft) NW 317 ° 1 min 729 W/m² 9,1 °C 13,9 °C 22,5 km/h (4 Bft)
15.09.2024 12:49 24,1 °C 17,4 °C 49 % 59 % 1022,9 hPa 0,0 l/m² 16,7 km/h (3 Bft) W-NW 303 ° 1 min 756 W/m² 9,3 °C 13,6 °C 24,1 km/h (4 Bft)
15.09.2024 12:51 24,1 °C 17,5 °C 49 % 59 % 1022,7 hPa 0,0 l/m² 21,6 km/h (4 Bft) N-NW 340 ° 2 min 747 W/m² 9,4 °C 12,6 °C 38,6 km/h (6 Bft)
15.09.2024 12:53 24,1 °C 17,2 °C 49 % 58 % 1022,8 hPa 0,0 l/m² 20,0 km/h (4 Bft) N-NW 339 ° 2 min 708 W/m² 8,9 °C 12,6 °C 33,8 km/h (5 Bft)
15.09.2024 12:54 24,1 °C 17,2 °C 49 % 59 % 1022,8 hPa 0,0 l/m² 21,7 km/h (4 Bft) NW 325 ° 1 min 701 W/m² 9,1 °C 12,2 °C 32,2 km/h (5 Bft)
15.09.2024 12:55 24,1 °C 17,2 °C 49 % 59 % 1022,7 hPa 0,0 l/m² 13,8 km/h (3 Bft) N-NO 24 ° 1 min 700 W/m² 9,1 °C 14,2 °C 19,3 km/h (3 Bft)
15.09.2024 12:56 24,1 °C 17,2 °C 49 % 60 % 1022,8 hPa 0,0 l/m² 19,4 km/h (3 Bft) NW 321 ° 1 min 703 W/m² 9,4 °C 12,7 °C 27,4 km/h (5 Bft)
15.09.2024 12:57 24,1 °C 17,2 °C 49 % 59 % 1022,8 hPa 0,0 l/m² 19,1 km/h (3 Bft) W 274 ° 1 min 714 W/m² 9,1 °C 12,8 °C 29,0 km/h (5 Bft)
15.09.2024 12:58 24,1 °C 17,2 °C 49 % 59 % 1022,7 hPa 0,0 l/m² 13,1 km/h (3 Bft) W-SW 255 ° 1 min 703 W/m² 9,1 °C 14,4 °C 24,1 km/h (4 Bft)
15.09.2024 12:59 24,0 °C 17,2 °C 49 % 60 % 1022,7 hPa 0,0 l/m² 17,1 km/h (3 Bft) NW 305 ° 1 min 664 W/m² 9,4 °C 13,3 °C 30,6 km/h (5 Bft)
15.09.2024 13:00 24,0 °C 17,3 °C 49 % 59 % 1022,7 hPa 0,0 l/m² 12,9 km/h (3 Bft) NW 324 ° 1 min 585 W/m² 9,2 °C 14,6 °C 19,3 km/h (3 Bft)
15.09.2024 13:02 24,0 °C 17,3 °C 49 % 59 % 1022,7 hPa 0,0 l/m² 17,5 km/h (3 Bft) N-NW 343 ° 2 min 759 W/m² 9,2 °C 13,3 °C 32,2 km/h (5 Bft)
15.09.2024 13:03 24,0 °C 17,4 °C 49 % 61 % 1022,7 hPa 0,0 l/m² 10,5 km/h (2 Bft) W-NW 302 ° 1 min 759 W/m² 9,8 °C 15,6 °C 17,7 km/h (3 Bft)
15.09.2024 13:04 24,0 °C 17,3 °C 49 % 59 % 1022,7 hPa 0,0 l/m² 17,5 km/h (3 Bft) N-NW 338 ° 1 min 267 W/m² 9,2 °C 13,3 °C 25,7 km/h (4 Bft)
15.09.2024 13:05 24,0 °C 17,2 °C 49 % 59 % 1022,7 hPa 0,0 l/m² 22,4 km/h (4 Bft) W-NW 296 ° 1 min 308 W/m² 9,1 °C 12,1 °C 29,0 km/h (5 Bft)
15.09.2024 13:06 24,0 °C 17,1 °C 49 % 60 % 1022,7 hPa 0,0 l/m² 15,1 km/h (3 Bft) NW 314 ° 1 min 308 W/m² 9,3 °C 13,7 °C 22,5 km/h (4 Bft)
15.09.2024 13:07 23,9 °C 17,0 °C 49 % 60 % 1022,7 hPa 0,0 l/m² 20,8 km/h (4 Bft) N-NW 344 ° 1 min 308 W/m² 9,2 °C 12,2 °C 25,7 km/h (4 Bft)
15.09.2024 13:08 23,9 °C 17,0 °C 49 % 59 % 1022,7 hPa 0,0 l/m² 20,1 km/h (4 Bft) N-NW 343 ° 1 min 707 W/m² 8,9 °C 12,3 °C 25,7 km/h (4 Bft)
15.09.2024 13:09 23,9 °C 17,1 °C 49 % 59 % 1022,7 hPa 0,0 l/m² 27,5 km/h (5 Bft) N-NW 336 ° 1 min 710 W/m² 9,0 °C 11,0 °C 37,0 km/h (5 Bft)
15.09.2024 13:11 23,9 °C 17,3 °C 49 % 59 % 1022,5 hPa 0,0 l/m² 16,2 km/h (3 Bft) N-NW 333 ° 2 min 710 W/m² 9,2 °C 13,6 °C 24,1 km/h (4 Bft)
15.09.2024 13:13 23,9 °C 17,6 °C 49 % 58 % 1022,6 hPa 0,0 l/m² 21,4 km/h (4 Bft) N-NW 340 ° 2 min 703 W/m² 9,2 °C 12,8 °C 40,2 km/h (6 Bft)
15.09.2024 13:14 23,9 °C 17,6 °C 49 % 57 % 1022,4 hPa 0,0 l/m² 17,5 km/h (3 Bft) W-NW 296 ° 1 min 707 W/m² 9,0 °C 13,7 °C 30,6 km/h (5 Bft)
15.09.2024 13:15 23,9 °C 17,7 °C 50 % 58 % 1022,5 hPa 0,0 l/m² 15,3 km/h (3 Bft) W 261 ° 1 min 707 W/m² 9,3 °C 14,4 °C 25,7 km/h (4 Bft)
15.09.2024 13:16 23,9 °C 17,7 °C 50 % 58 % 1022,4 hPa 0,0 l/m² 15,9 km/h (3 Bft) W-SW 246 ° 1 min 707 W/m² 9,3 °C 14,2 °C 25,7 km/h (4 Bft)
15.09.2024 13:17 23,9 °C 17,9 °C 50 % 59 % 1022,4 hPa 0,0 l/m² 9,9 km/h (2 Bft) N-NW 330 ° 1 min 717 W/m² 9,8 °C 16,4 °C 19,3 km/h (3 Bft)
15.09.2024 13:18 23,9 °C 18,1 °C 50 % 58 % 1022,5 hPa 0,0 l/m² 17,6 km/h (3 Bft) NW 318 ° 1 min 715 W/m² 9,7 °C 14,3 °C 30,6 km/h (5 Bft)
15.09.2024 13:19 23,9 °C 18,0 °C 50 % 57 % 1022,4 hPa 0,0 l/m² 10,8 km/h (2 Bft) NW 304 ° 1 min 715 W/m² 9,4 °C 16,1 °C 22,5 km/h (4 Bft)
15.09.2024 13:21 23,9 °C 17,9 °C 50 % 56 % 1022,5 hPa 0,0 l/m² 23,8 km/h (4 Bft) NW 324 ° 2 min 705 W/m² 9,0 °C 12,7 °C 40,2 km/h (6 Bft)
15.09.2024 13:23 23,9 °C 17,6 °C 50 % 56 % 1022,5 hPa 0,0 l/m² 21,7 km/h (4 Bft) N-NW 342 ° 2 min 700 W/m² 8,7 °C 12,7 °C 32,2 km/h (5 Bft)
15.09.2024 13:24 23,9 °C 17,6 °C 50 % 57 % 1022,3 hPa 0,0 l/m² 24,3 km/h (4 Bft) N-NW 333 ° 1 min 696 W/m² 9,0 °C 12,3 °C 33,8 km/h (5 Bft)
15.09.2024 13:25 23,9 °C 17,6 °C 50 % 57 % 1022,5 hPa 0,0 l/m² 23,0 km/h (4 Bft) NW 307 ° 1 min 691 W/m² 9,0 °C 12,5 °C 30,6 km/h (5 Bft)
15.09.2024 13:26 23,9 °C 17,5 °C 50 % 57 % 1022,4 hPa 0,0 l/m² 20,3 km/h (4 Bft) NW 313 ° 1 min 693 W/m² 8,9 °C 12,9 °C 30,6 km/h (5 Bft)
15.09.2024 13:27 23,9 °C 17,6 °C 50 % 58 % 1022,4 hPa 0,0 l/m² 17,7 km/h (3 Bft) N 9 ° 1 min 693 W/m² 9,2 °C 13,6 °C 22,5 km/h (4 Bft)
15.09.2024 13:28 23,9 °C 17,5 °C 50 % 58 % 1022,3 hPa 0,0 l/m² 9,0 km/h (2 Bft) N-NW 346 ° 1 min 694 W/m² 9,1 °C 16,3 °C 17,7 km/h (3 Bft)
15.09.2024 13:29 23,9 °C 17,6 °C 50 % 58 % 1022,4 hPa 0,0 l/m² 16,8 km/h (3 Bft) W-NW 293 ° 1 min 693 W/m² 9,2 °C 13,9 °C 27,4 km/h (5 Bft)
15.09.2024 13:31 23,9 °C 17,8 °C 50 % 58 % 1022,2 hPa 0,0 l/m² 13,4 km/h (3 Bft) N-NW 327 ° 2 min 694 W/m² 9,4 °C 15,1 °C 38,6 km/h (6 Bft)
15.09.2024 13:32 23,9 °C 17,8 °C 50 % 57 % 1022,2 hPa 0,0 l/m² 17,1 km/h (3 Bft) N-NW 327 ° 1 min 693 W/m² 9,2 °C 14,0 °C 24,1 km/h (4 Bft)
15.09.2024 13:33 23,9 °C 17,9 °C 50 % 57 % 1022,2 hPa 0,0 l/m² 17,2 km/h (3 Bft) N-NW 339 ° 1 min 693 W/m² 9,3 °C 14,1 °C 27,4 km/h (5 Bft)
15.09.2024 13:34 23,9 °C 17,9 °C 50 % 56 % 1022,3 hPa 0,0 l/m² 20,7 km/h (4 Bft) NW 322 ° 1 min 693 W/m² 9,0 °C 13,3 °C 25,7 km/h (4 Bft)
15.09.2024 13:35 23,9 °C 17,9 °C 50 % 55 % 1022,2 hPa 0,0 l/m² 15,9 km/h (3 Bft) W-SW 253 ° 1 min 696 W/m² 8,7 °C 14,5 °C 25,7 km/h (4 Bft)
15.09.2024 13:36 23,8 °C 17,9 °C 50 % 56 % 1022,2 hPa 0,0 l/m² 17,3 km/h (3 Bft) W 273 ° 1 min 693 W/m² 9,0 °C 14,1 °C 29,0 km/h (5 Bft)
15.09.2024 13:37 23,9 °C 18,0 °C 50 % 56 % 1022,1 hPa 0,0 l/m² 17,2 km/h (3 Bft) NW 316 ° 1 min 693 W/m² 9,1 °C 14,3 °C 29,0 km/h (5 Bft)
15.09.2024 13:38 23,9 °C 18,0 °C 50 % 56 % 1022,1 hPa 0,0 l/m² 13,2 km/h (3 Bft) NW 315 ° 1 min 696 W/m² 9,1 °C 15,3 °C 38,6 km/h (6 Bft)
15.09.2024 13:39 23,8 °C 18,0 °C 50 % 57 % 1022,0 hPa 0,0 l/m² 20,0 km/h (4 Bft) NW 318 ° 1 min 693 W/m² 9,4 °C 13,6 °C 30,6 km/h (5 Bft)
15.09.2024 13:41 23,9 °C 18,0 °C 50 % 56 % 1022,1 hPa 0,0 l/m² 16,5 km/h (3 Bft) W 275 ° 2 min 694 W/m² 9,1 °C 14,4 °C 33,8 km/h (5 Bft)
15.09.2024 13:43 23,9 °C 18,0 °C 50 % 57 % 1021,9 hPa 0,0 l/m² 13,1 km/h (3 Bft) W-SW 248 ° 2 min 689 W/m² 9,4 °C 15,4 °C 32,2 km/h (5 Bft)
15.09.2024 13:44 23,9 °C 18,2 °C 50 % 58 % 1021,9 hPa 0,0 l/m² 16,1 km/h (3 Bft) N-NW 333 ° 1 min 693 W/m² 9,8 °C 14,8 °C 29,0 km/h (5 Bft)
15.09.2024 13:45 23,9 °C 18,1 °C 50 % 55 % 1021,9 hPa 0,0 l/m² 21,6 km/h (4 Bft) NW 315 ° 1 min 693 W/m² 8,9 °C 13,4 °C 30,6 km/h (5 Bft)
15.09.2024 13:46 23,8 °C 18,1 °C 50 % 55 % 1021,9 hPa 0,0 l/m² 19,0 km/h (3 Bft) NW 324 ° 1 min 689 W/m² 8,9 °C 14,0 °C 32,2 km/h (5 Bft)
15.09.2024 13:47 23,9 °C 18,1 °C 50 % 54 % 1022,0 hPa 0,0 l/m² 23,3 km/h (4 Bft) W-NW 303 ° 1 min 691 W/m² 8,6 °C 13,1 °C 40,2 km/h (6 Bft)
15.09.2024 13:48 23,8 °C 18,0 °C 50 % 55 % 1021,9 hPa 0,0 l/m² 17,7 km/h (3 Bft) NW 309 ° 1 min 693 W/m² 8,8 °C 14,1 °C 33,8 km/h (5 Bft)
15.09.2024 13:49 23,9 °C 18,1 °C 51 % 55 % 1021,9 hPa 0,0 l/m² 14,3 km/h (3 Bft) NW 326 ° 1 min 687 W/m² 8,9 °C 15,1 °C 27,4 km/h (5 Bft)
15.09.2024 13:51 23,8 °C 18,1 °C 51 % 56 % 1022,0 hPa 0,0 l/m² 16,7 km/h (3 Bft) N-NW 335 ° 2 min 689 W/m² 9,2 °C 14,5 °C 29,0 km/h (5 Bft)
15.09.2024 13:53 23,8 °C 18,4 °C 51 % 56 % 1021,8 hPa 0,0 l/m² 15,9 km/h (3 Bft) N-NW 348 ° 2 min 686 W/m² 9,5 °C 15,1 °C 27,4 km/h (5 Bft)
15.09.2024 13:54 23,8 °C 18,6 °C 51 % 54 % 1021,9 hPa 0,0 l/m² 13,7 km/h (3 Bft) W-NW 282 ° 1 min 686 W/m² 9,1 °C 15,9 °C 24,1 km/h (4 Bft)
15.09.2024 13:55 23,8 °C 18,6 °C 51 % 53 % 1021,9 hPa 0,0 l/m² 16,3 km/h (3 Bft) N-NW 339 ° 1 min 687 W/m² 8,8 °C 15,2 °C 22,5 km/h (4 Bft)
15.09.2024 13:56 23,8 °C 18,6 °C 51 % 52 % 1021,9 hPa 0,0 l/m² 16,0 km/h (3 Bft) NW 326 ° 1 min 684 W/m² 8,5 °C 15,3 °C 22,5 km/h (4 Bft)
15.09.2024 13:57 23,8 °C 18,6 °C 51 % 53 % 1022,0 hPa 0,0 l/m² 20,9 km/h (4 Bft) NW 309 ° 1 min 684 W/m² 8,8 °C 14,2 °C 27,4 km/h (5 Bft)
15.09.2024 13:58 23,8 °C 18,5 °C 51 % 53 % 1022,0 hPa 0,0 l/m² 14,9 km/h (3 Bft) NW 323 ° 1 min 682 W/m² 8,7 °C 15,5 °C 30,6 km/h (5 Bft)
15.09.2024 13:59 23,8 °C 18,5 °C 51 % 53 % 1022,1 hPa 0,0 l/m² 21,3 km/h (4 Bft) NW 325 ° 1 min 682 W/m² 8,7 °C 14,0 °C 27,4 km/h (5 Bft)
15.09.2024 14:01 23,8 °C 18,4 °C 51 % 53 % 1021,9 hPa 0,0 l/m² 16,8 km/h (3 Bft) NW 304 ° 2 min 682 W/m² 8,6 °C 14,9 °C 27,4 km/h (5 Bft)
15.09.2024 14:03 23,8 °C 18,4 °C 51 % 54 % 1021,9 hPa 0,0 l/m² 19,6 km/h (3 Bft) W-NW 300 ° 2 min 677 W/m² 8,9 °C 14,2 °C 33,8 km/h (5 Bft)
15.09.2024 14:04 23,8 °C 18,4 °C 51 % 53 % 1021,9 hPa 0,0 l/m² 16,7 km/h (3 Bft) NW 318 ° 1 min 675 W/m² 8,6 °C 14,9 °C 24,1 km/h (4 Bft)
15.09.2024 14:05 23,8 °C 18,4 °C 51 % 55 % 1022,0 hPa 0,0 l/m² 16,8 km/h (3 Bft) NW 309 ° 1 min 680 W/m² 9,2 °C 14,9 °C 27,4 km/h (5 Bft)
15.09.2024 14:06 23,8 °C 18,5 °C 51 % 54 % 1021,9 hPa 0,0 l/m² 24,4 km/h (4 Bft) N-NW 331 ° 1 min 679 W/m² 9,0 °C 13,5 °C 37,0 km/h (5 Bft)
15.09.2024 14:07 23,8 °C 18,4 °C 51 % 53 % 1022,0 hPa 0,0 l/m² 17,5 km/h (3 Bft) N-NW 336 ° 1 min 679 W/m² 8,6 °C 14,7 °C 25,7 km/h (4 Bft)
15.09.2024 14:08 23,8 °C 18,5 °C 51 % 53 % 1021,9 hPa 0,0 l/m² 20,2 km/h (4 Bft) W-NW 302 ° 1 min 670 W/m² 8,7 °C 14,2 °C 30,6 km/h (5 Bft)
15.09.2024 14:09 23,8 °C 18,5 °C 51 % 54 % 1021,8 hPa 0,0 l/m² 21,3 km/h (4 Bft) W 269 ° 1 min 664 W/m² 9,0 °C 14,0 °C 25,7 km/h (4 Bft)
15.09.2024 14:11 23,8 °C 18,4 °C 51 % 54 % 1021,8 hPa 0,0 l/m² 19,8 km/h (3 Bft) NW 309 ° 2 min 673 W/m² 8,9 °C 14,2 °C 32,2 km/h (5 Bft)
15.09.2024 14:12 23,8 °C 18,4 °C 51 % 54 % 1021,7 hPa 0,0 l/m² 17,9 km/h (3 Bft) NW 313 ° 1 min 664 W/m² 8,9 °C 14,6 °C 29,0 km/h (5 Bft)
15.09.2024 14:13 23,8 °C 18,5 °C 51 % 55 % 1021,7 hPa 0,0 l/m² 8,0 km/h (2 Bft) NW 317 ° 1 min 668 W/m² 9,3 °C 17,8 °C 17,7 km/h (3 Bft)
15.09.2024 14:14 23,8 °C 18,7 °C 51 % 56 % 1021,8 hPa 0,0 l/m² 12,5 km/h (2 Bft) W-NW 285 ° 1 min 666 W/m² 9,7 °C 16,4 °C 27,4 km/h (5 Bft)
15.09.2024 14:15 23,8 °C 18,7 °C 51 % 55 % 1021,8 hPa 0,0 l/m² 10,9 km/h (2 Bft) NW 309 ° 1 min 668 W/m² 9,5 °C 16,9 °C 27,4 km/h (5 Bft)
15.09.2024 14:16 23,8 °C 18,7 °C 51 % 55 % 1021,8 hPa 0,0 l/m² 15,5 km/h (3 Bft) N-NW 331 ° 1 min 668 W/m² 9,5 °C 15,5 °C 25,7 km/h (4 Bft)
15.09.2024 14:17 23,8 °C 18,7 °C 51 % 56 % 1021,8 hPa 0,0 l/m² 16,9 km/h (3 Bft) W-NW 294 ° 1 min 664 W/m² 9,7 °C 15,2 °C 25,7 km/h (4 Bft)
15.09.2024 14:18 23,8 °C 18,7 °C 51 % 54 % 1021,8 hPa 0,0 l/m² 16,8 km/h (3 Bft) N-NW 336 ° 1 min 661 W/m² 9,2 °C 15,2 °C 24,1 km/h (4 Bft)
15.09.2024 14:19 23,8 °C 18,7 °C 51 % 54 % 1021,8 hPa 0,0 l/m² 27,3 km/h (5 Bft) N-NW 327 ° 1 min 664 W/m² 9,2 °C 13,3 °C 33,8 km/h (5 Bft)
15.09.2024 14:21 23,8 °C 18,5 °C 51 % 57 % 1021,6 hPa 0,0 l/m² 13,3 km/h (3 Bft) W 265 ° 2 min 663 W/m² 9,8 °C 15,9 °C 27,4 km/h (5 Bft)
15.09.2024 14:23 23,8 °C 18,6 °C 51 % 54 % 1021,6 hPa 0,0 l/m² 13,5 km/h (3 Bft) NW 318 ° 2 min 661 W/m² 9,1 °C 16,0 °C 25,7 km/h (4 Bft)
15.09.2024 14:24 23,8 °C 18,6 °C 51 % 54 % 1021,6 hPa 0,0 l/m² 15,1 km/h (3 Bft) NW 317 ° 1 min 661 W/m² 9,1 °C 15,5 °C 27,4 km/h (5 Bft)
15.09.2024 14:25 23,8 °C 18,7 °C 51 % 54 % 1021,6 hPa 0,0 l/m² 15,9 km/h (3 Bft) NW 307 ° 1 min 654 W/m² 9,2 °C 15,4 °C 32,2 km/h (5 Bft)
15.09.2024 14:26 23,8 °C 18,7 °C 51 % 54 % 1021,7 hPa 0,0 l/m² 22,4 km/h (4 Bft) N 355 ° 1 min 654 W/m² 9,2 °C 14,1 °C 33,8 km/h (5 Bft)
15.09.2024 14:27 23,8 °C 18,7 °C 50 % 53 % 1021,6 hPa 0,0 l/m² 22,5 km/h (4 Bft) NW 325 ° 1 min 650 W/m² 8,9 °C 14,0 °C 33,8 km/h (5 Bft)
15.09.2024 14:28 23,8 °C 18,6 °C 50 % 54 % 1021,7 hPa 0,0 l/m² 16,1 km/h (3 Bft) NW 326 ° 1 min 645 W/m² 9,1 °C 15,3 °C 27,4 km/h (5 Bft)
15.09.2024 14:29 23,8 °C 18,6 °C 50 % 54 % 1021,7 hPa 0,0 l/m² 23,4 km/h (4 Bft) W-NW 288 ° 1 min 645 W/m² 9,1 °C 13,8 °C 37,0 km/h (5 Bft)
15.09.2024 14:31 23,8 °C 18,7 °C 50 % 55 % 1021,6 hPa 0,0 l/m² 14,9 km/h (3 Bft) N-NW 333 ° 2 min 643 W/m² 9,5 °C 15,7 °C 27,4 km/h (5 Bft)
15.09.2024 14:33 23,8 °C 18,7 °C 50 % 55 % 1021,6 hPa 0,0 l/m² 19,3 km/h (3 Bft) NW 312 ° 2 min 656 W/m² 9,5 °C 14,7 °C 35,4 km/h (5 Bft)
15.09.2024 14:34 23,8 °C 18,7 °C 50 % 56 % 1021,7 hPa 0,0 l/m² 15,5 km/h (3 Bft) W-NW 289 ° 1 min 652 W/m² 9,7 °C 15,5 °C 24,1 km/h (4 Bft)
15.09.2024 14:35 23,8 °C 18,9 °C 50 % 56 % 1021,6 hPa 0,0 l/m² 8,6 km/h (2 Bft) W-NW 290 ° 1 min 645 W/m² 9,9 °C 18,0 °C 12,9 km/h (3 Bft)
15.09.2024 14:36 23,8 °C 19,0 °C 50 % 56 % 1021,7 hPa 0,0 l/m² 16,3 km/h (3 Bft) W-NW 285 ° 1 min 636 W/m² 10,0 °C 15,7 °C 32,2 km/h (5 Bft)
15.09.2024 14:37 23,8 °C 19,0 °C 50 % 54 % 1021,6 hPa 0,0 l/m² 20,0 km/h (4 Bft) N-NW 331 ° 1 min 638 W/m² 9,5 °C 14,9 °C 37,0 km/h (5 Bft)
15.09.2024 14:38 23,8 °C 18,9 °C 50 % 54 % 1021,7 hPa 0,0 l/m² 17,6 km/h (3 Bft) NW 321 ° 1 min 640 W/m² 9,4 °C 15,3 °C 24,1 km/h (4 Bft)
15.09.2024 14:39 23,8 °C 18,8 °C 50 % 53 % 1021,7 hPa 0,0 l/m² 22,1 km/h (4 Bft) N-NW 328 ° 1 min 642 W/m² 9,0 °C 14,3 °C 35,4 km/h (5 Bft)
15.09.2024 14:41 23,8 °C 18,7 °C 50 % 54 % 1021,7 hPa 0,0 l/m² 19,9 km/h (4 Bft) W-NW 287 ° 2 min 638 W/m² 9,2 °C 14,5 °C 35,4 km/h (5 Bft)
15.09.2024 14:43 23,8 °C 18,8 °C 50 % 55 % 1021,6 hPa 0,0 l/m² 14,6 km/h (3 Bft) N-NW 344 ° 2 min 635 W/m² 9,6 °C 15,9 °C 24,1 km/h (4 Bft)
15.09.2024 14:44 23,8 °C 18,9 °C 50 % 54 % 1021,7 hPa 0,0 l/m² 16,8 km/h (3 Bft) N-NW 336 ° 1 min 629 W/m² 9,4 °C 15,5 °C 25,7 km/h (4 Bft)
15.09.2024 14:45 23,8 °C 18,9 °C 50 % 53 % 1021,6 hPa 0,0 l/m² 18,0 km/h (3 Bft) NW 311 ° 1 min 629 W/m² 9,1 °C 15,2 °C 27,4 km/h (5 Bft)
15.09.2024 14:46 23,8 °C 18,9 °C 50 % 53 % 1021,7 hPa 0,0 l/m² 12,3 km/h (2 Bft) NW 326 ° 1 min 621 W/m² 9,1 °C 16,7 °C 22,5 km/h (4 Bft)
15.09.2024 14:47 23,8 °C 19,0 °C 50 % 53 % 1021,7 hPa 0,0 l/m² 19,8 km/h (3 Bft) NW 315 ° 1 min 621 W/m² 9,2 °C 15,0 °C 29,0 km/h (5 Bft)
15.09.2024 14:48 23,8 °C 18,9 °C 51 % 52 % 1021,7 hPa 0,0 l/m² 14,8 km/h (3 Bft) W-NW 295 ° 1 min 621 W/m² 8,8 °C 16,0 °C 24,1 km/h (4 Bft)
15.09.2024 14:49 23,8 °C 18,9 °C 50 % 53 % 1021,7 hPa 0,0 l/m² 21,9 km/h (4 Bft) W 275 ° 1 min 617 W/m² 9,1 °C 14,4 °C 32,2 km/h (5 Bft)
15.09.2024 14:51 23,8 °C 18,7 °C 51 % 52 % 1021,6 hPa 0,0 l/m² 19,5 km/h (3 Bft) N-NW 336 ° 2 min 613 W/m² 8,6 °C 14,6 °C 38,6 km/h (6 Bft)
15.09.2024 14:53 23,8 °C 18,8 °C 51 % 53 % 1021,5 hPa 0,0 l/m² 16,9 km/h (3 Bft) NW 305 ° 2 min 612 W/m² 9,0 °C 15,3 °C 25,7 km/h (4 Bft)
15.09.2024 14:54 23,8 °C 18,8 °C 51 % 53 % 1021,6 hPa 0,0 l/m² 17,1 km/h (3 Bft) NW 313 ° 1 min 605 W/m² 9,0 °C 15,3 °C 29,0 km/h (5 Bft)
15.09.2024 14:55 23,8 °C 18,7 °C 51 % 52 % 1021,6 hPa 0,0 l/m² 18,2 km/h (3 Bft) NW 324 ° 1 min 606 W/m² 8,6 °C 14,9 °C 32,2 km/h (5 Bft)
15.09.2024 14:56 23,8 °C 18,7 °C 51 % 54 % 1021,6 hPa 0,0 l/m² 19,6 km/h (3 Bft) NW 325 ° 1 min 605 W/m² 9,2 °C 14,6 °C 25,7 km/h (4 Bft)
15.09.2024 14:57 23,8 °C 18,7 °C 51 % 54 % 1021,4 hPa 0,0 l/m² 22,3 km/h (4 Bft) W-NW 296 ° 1 min 603 W/m² 9,2 °C 14,1 °C 32,2 km/h (5 Bft)
15.09.2024 14:58 23,8 °C 18,6 °C 51 % 54 % 1021,5 hPa 0,0 l/m² 19,8 km/h (3 Bft) NW 309 ° 1 min 599 W/m² 9,1 °C 14,4 °C 29,0 km/h (5 Bft)
15.09.2024 14:59 23,8 °C 18,7 °C 51 % 55 % 1021,6 hPa 0,0 l/m² 13,8 km/h (3 Bft) N-NW 328 ° 1 min 599 W/m² 9,5 °C 16,0 °C 27,4 km/h (5 Bft)
15.09.2024 15:01 23,8 °C 18,9 °C 51 % 53 % 1021,5 hPa 0,0 l/m² 14,0 km/h (3 Bft) NW 307 ° 2 min 598 W/m² 9,1 °C 16,2 °C 25,7 km/h (4 Bft)
15.09.2024 15:03 23,8 °C 18,9 °C 51 % 54 % 1021,5 hPa 0,0 l/m² 17,6 km/h (3 Bft) NW 315 ° 2 min 598 W/m² 9,4 °C 15,3 °C 30,6 km/h (5 Bft)
15.09.2024 15:04 23,8 °C 18,9 °C 51 % 54 % 1021,5 hPa 0,0 l/m² 13,4 km/h (3 Bft) NW 323 ° 1 min 599 W/m² 9,4 °C 16,3 °C 17,7 km/h (3 Bft)
15.09.2024 15:05 23,8 °C 18,9 °C 51 % 52 % 1021,5 hPa 0,0 l/m² 12,7 km/h (3 Bft) W-NW 292 ° 1 min 598 W/m² 8,8 °C 16,6 °C 25,7 km/h (4 Bft)
15.09.2024 15:06 23,8 °C 18,9 °C 51 % 52 % 1021,5 hPa 0,0 l/m² 20,9 km/h (4 Bft) N-NW 344 ° 1 min 596 W/m² 8,8 °C 14,6 °C 33,8 km/h (5 Bft)
15.09.2024 15:07 23,8 °C 18,8 °C 51 % 52 % 1021,5 hPa 0,0 l/m² 14,2 km/h (3 Bft) W-NW 302 ° 1 min 591 W/m² 8,7 °C 16,0 °C 29,0 km/h (5 Bft)
15.09.2024 15:08 23,8 °C 18,8 °C 51 % 53 % 1021,5 hPa 0,0 l/m² 13,9 km/h (3 Bft) NW 321 ° 1 min 587 W/m² 9,0 °C 16,1 °C 20,9 km/h (4 Bft)
15.09.2024 15:09 23,8 °C 18,9 °C 51 % 52 % 1021,5 hPa 0,0 l/m² 16,3 km/h (3 Bft) NW 325 ° 1 min 587 W/m² 8,8 °C 15,6 °C 27,4 km/h (5 Bft)
15.09.2024 15:11 23,8 °C 19,1 °C 51 % 52 % 1021,6 hPa 0,0 l/m² 15,4 km/h (3 Bft) W 279 ° 2 min 584 W/m² 9,0 °C 16,1 °C 24,1 km/h (4 Bft)
15.09.2024 15:13 23,8 °C 19,2 °C 51 % 52 % 1021,5 hPa 0,0 l/m² 12,3 km/h (2 Bft) NW 305 ° 2 min 578 W/m² 9,1 °C 17,0 °C 25,7 km/h (4 Bft)
15.09.2024 15:14 23,8 °C 19,2 °C 51 % 52 % 1021,5 hPa 0,0 l/m² 11,5 km/h (2 Bft) N-NW 345 ° 1 min 577 W/m² 9,1 °C 17,3 °C 22,5 km/h (4 Bft)
15.09.2024 15:15 23,8 °C 19,2 °C 51 % 52 % 1021,5 hPa 0,0 l/m² 24,1 km/h (4 Bft) N-NW 335 ° 1 min 573 W/m² 9,1 °C 14,4 °C 38,6 km/h (6 Bft)
15.09.2024 15:16 23,8 °C 19,1 °C 51 % 52 % 1021,5 hPa 0,0 l/m² 23,2 km/h (4 Bft) NW 322 ° 1 min 573 W/m² 9,0 °C 14,5 °C 32,2 km/h (5 Bft)
15.09.2024 15:17 23,8 °C 18,9 °C 51 % 52 % 1021,5 hPa 0,0 l/m² 22,0 km/h (4 Bft) NW 305 ° 1 min 571 W/m² 8,8 °C 14,4 °C 32,2 km/h (5 Bft)
15.09.2024 15:18 23,8 °C 18,8 °C 51 % 52 % 1021,5 hPa 0,0 l/m² 17,0 km/h (3 Bft) W-NW 298 ° 1 min 568 W/m² 8,7 °C 15,3 °C 22,5 km/h (4 Bft)
15.09.2024 15:19 23,8 °C 18,8 °C 51 % 53 % 1021,5 hPa 0,0 l/m² 19,4 km/h (3 Bft) NW 309 ° 1 min 568 W/m² 9,0 °C 14,8 °C 30,6 km/h (5 Bft)
15.09.2024 15:21 23,8 °C 18,7 °C 51 % 53 % 1021,4 hPa 0,0 l/m² 20,3 km/h (4 Bft) N-NW 327 ° 2 min 561 W/m² 8,9 °C 14,5 °C 29,0 km/h (5 Bft)
15.09.2024 15:23 23,8 °C 18,7 °C 51 % 53 % 1021,5 hPa 0,0 l/m² 17,0 km/h (3 Bft) W-NW 296 ° 2 min 555 W/m² 8,9 °C 15,2 °C 29,0 km/h (5 Bft)
15.09.2024 15:24 23,8 °C 18,8 °C 51 % 54 % 1021,5 hPa 0,0 l/m² 15,8 km/h (3 Bft) NW 321 ° 1 min 557 W/m² 9,3 °C 15,6 °C 30,6 km/h (5 Bft)
15.09.2024 15:25 23,9 °C 18,8 °C 51 % 53 % 1021,6 hPa 0,0 l/m² 15,5 km/h (3 Bft) N-NW 329 ° 1 min 559 W/m² 9,0 °C 15,7 °C 24,1 km/h (4 Bft)
15.09.2024 15:26 23,9 °C 18,8 °C 51 % 53 % 1021,4 hPa 0,0 l/m² 15,2 km/h (3 Bft) W-NW 285 ° 1 min 552 W/m² 9,0 °C 15,7 °C 19,3 km/h (3 Bft)
15.09.2024 15:27 23,9 °C 18,9 °C 51 % 53 % 1021,5 hPa 0,0 l/m² 17,6 km/h (3 Bft) W 277 ° 1 min 550 W/m² 9,1 °C 15,3 °C 29,0 km/h (5 Bft)
15.09.2024 15:28 23,9 °C 18,9 °C 51 % 52 % 1021,6 hPa 0,0 l/m² 18,5 km/h (3 Bft) NW 325 ° 1 min 545 W/m² 8,8 °C 15,1 °C 30,6 km/h (5 Bft)
15.09.2024 15:29 23,8 °C 18,9 °C 51 % 52 % 1021,6 hPa 0,0 l/m² 19,2 km/h (3 Bft) W-NW 297 ° 1 min 541 W/m² 8,8 °C 14,9 °C 29,0 km/h (5 Bft)
15.09.2024 15:31 23,9 °C 18,8 °C 51 % 51 % 1021,5 hPa 0,0 l/m² 17,6 km/h (3 Bft) W 273 ° 2 min 541 W/m² 8,4 °C 15,2 °C 33,8 km/h (5 Bft)
15.09.2024 15:33 23,9 °C 18,8 °C 51 % 54 % 1021,5 hPa 0,0 l/m² 15,5 km/h (3 Bft) N-NW 346 ° 2 min 533 W/m² 9,3 °C 15,7 °C 25,7 km/h (4 Bft)
15.09.2024 15:34 23,9 °C 18,9 °C 51 % 53 % 1021,5 hPa 0,0 l/m² 16,2 km/h (3 Bft) N-NW 339 ° 1 min 533 W/m² 9,1 °C 15,6 °C 24,1 km/h (4 Bft)
15.09.2024 15:35 23,9 °C 18,8 °C 51 % 52 % 1021,5 hPa 0,0 l/m² 18,9 km/h (3 Bft) NW 309 ° 1 min 526 W/m² 8,7 °C 14,9 °C 27,4 km/h (5 Bft)
15.09.2024 15:36 23,9 °C 18,8 °C 51 % 53 % 1021,4 hPa 0,0 l/m² 12,2 km/h (2 Bft) N-NW 329 ° 1 min 531 W/m² 9,0 °C 16,6 °C 24,1 km/h (4 Bft)
15.09.2024 15:37 23,9 °C 18,8 °C 51 % 54 % 1021,5 hPa 0,0 l/m² 8,6 km/h (2 Bft) W 278 ° 1 min 534 W/m² 9,3 °C 17,8 °C 16,1 km/h (3 Bft)
15.09.2024 15:38 23,9 °C 19,0 °C 51 % 53 % 1021,5 hPa 0,0 l/m² 9,7 km/h (2 Bft) N-NW 337 ° 1 min 533 W/m² 9,2 °C 17,6 °C 22,5 km/h (4 Bft)
15.09.2024 15:39 23,9 °C 19,1 °C 51 % 53 % 1021,4 hPa 0,0 l/m² 12,7 km/h (3 Bft) NW 324 ° 1 min 524 W/m² 9,3 °C 16,8 °C 22,5 km/h (4 Bft)
15.09.2024 15:41 23,9 °C 19,2 °C 51 % 52 % 1021,5 hPa 0,0 l/m² 18,3 km/h (3 Bft) N-NW 340 ° 2 min 524 W/m² 9,1 °C 15,5 °C 30,6 km/h (5 Bft)
15.09.2024 15:43 23,9 °C 19,0 °C 51 % 53 % 1021,5 hPa 0,0 l/m² 17,3 km/h (3 Bft) W 279 ° 2 min 510 W/m² 9,2 °C 15,5 °C 29,0 km/h (5 Bft)
15.09.2024 15:44 23,9 °C 18,9 °C 51 % 52 % 1021,5 hPa 0,0 l/m² 19,1 km/h (3 Bft) NW 311 ° 1 min 508 W/m² 8,8 °C 15,0 °C 30,6 km/h (5 Bft)
15.09.2024 15:46 23,9 °C 18,8 °C 52 % 54 % 1021,5 hPa 0,0 l/m² 15,7 km/h (3 Bft) W-NW 293 ° 2 min 475 W/m² 9,3 °C 15,6 °C 25,7 km/h (4 Bft)
15.09.2024 15:47 23,9 °C 18,8 °C 52 % 53 % 1021,5 hPa 0,0 l/m² 11,7 km/h (2 Bft) NW 309 ° 1 min 501 W/m² 9,0 °C 16,7 °C 25,7 km/h (4 Bft)
15.09.2024 15:48 23,9 °C 18,8 °C 52 % 53 % 1021,4 hPa 0,0 l/m² 11,8 km/h (2 Bft) N-NW 334 ° 1 min 504 W/m² 9,0 °C 16,7 °C 27,4 km/h (5 Bft)
15.09.2024 15:49 23,9 °C 18,8 °C 52 % 53 % 1021,5 hPa 0,0 l/m² 21,4 km/h (4 Bft) NW 310 ° 1 min 510 W/m² 9,0 °C 14,4 °C 32,2 km/h (5 Bft)
15.09.2024 15:51 23,9 °C 18,8 °C 52 % 53 % 1021,4 hPa 0,0 l/m² 20,3 km/h (4 Bft) N-NW 338 ° 2 min 519 W/m² 9,0 °C 14,6 °C 29,0 km/h (5 Bft)
15.09.2024 15:53 23,9 °C 18,8 °C 52 % 54 % 1021,4 hPa 0,0 l/m² 18,1 km/h (3 Bft) W-NW 302 ° 2 min 519 W/m² 9,3 °C 15,1 °C 32,2 km/h (5 Bft)
15.09.2024 15:54 23,9 °C 18,7 °C 52 % 54 % 1021,3 hPa 0,0 l/m² 22,1 km/h (4 Bft) N-NW 328 ° 1 min 526 W/m² 9,2 °C 14,1 °C 27,4 km/h (5 Bft)
15.09.2024 15:55 23,9 °C 18,8 °C 52 % 54 % 1021,3 hPa 0,0 l/m² 11,5 km/h (2 Bft) W-SW 252 ° 1 min 526 W/m² 9,3 °C 16,8 °C 19,3 km/h (3 Bft)
15.09.2024 15:56 23,9 °C 18,8 °C 52 % 54 % 1021,4 hPa 0,0 l/m² 16,2 km/h (3 Bft) NW 321 ° 1 min 325 W/m² 9,3 °C 15,5 °C 30,6 km/h (5 Bft)
15.09.2024 15:57 23,9 °C 18,8 °C 52 % 54 % 1021,4 hPa 0,0 l/m² 15,3 km/h (3 Bft) NW 305 ° 1 min 487 W/m² 9,3 °C 15,7 °C 22,5 km/h (4 Bft)
15.09.2024 15:58 23,9 °C 18,8 °C 52 % 54 % 1021,4 hPa 0,0 l/m² 15,0 km/h (3 Bft) NW 315 ° 1 min 487 W/m² 9,3 °C 15,8 °C 25,7 km/h (4 Bft)
15.09.2024 15:59 23,9 °C 18,9 °C 52 % 54 % 1021,3 hPa 0,0 l/m² 12,0 km/h (2 Bft) N-NW 345 ° 1 min 483 W/m² 9,4 °C 16,8 °C 19,3 km/h (3 Bft)
15.09.2024 16:01 23,9 °C 18,9 °C 52 % 52 % 1021,4 hPa 0,0 l/m² 16,7 km/h (3 Bft) NW 313 ° 2 min 468 W/m² 8,8 °C 15,5 °C 33,8 km/h (5 Bft)
15.09.2024 16:03 23,9 °C 18,9 °C 52 % 53 % 1021,3 hPa 0,0 l/m² 14,9 km/h (3 Bft) NW 304 ° 2 min 471 W/m² 9,1 °C 15,9 °C 22,5 km/h (4 Bft)
15.09.2024 16:04 23,9 °C 18,8 °C 52 % 53 % 1021,4 hPa 0,0 l/m² 18,8 km/h (3 Bft) W-NW 302 ° 1 min 471 W/m² 9,0 °C 14,9 °C 29,0 km/h (5 Bft)
15.09.2024 16:05 23,9 °C 18,8 °C 52 % 53 % 1021,3 hPa 0,0 l/m² 24,5 km/h (4 Bft) N-NW 345 ° 1 min 464 W/m² 9,0 °C 13,8 °C 33,8 km/h (5 Bft)
15.09.2024 16:06 23,9 °C 18,7 °C 52 % 53 % 1021,3 hPa 0,0 l/m² 20,6 km/h (4 Bft) N-NW 327 ° 1 min 461 W/m² 8,9 °C 14,4 °C 30,6 km/h (5 Bft)
15.09.2024 16:07 23,9 °C 18,7 °C 52 % 52 % 1021,3 hPa 0,0 l/m² 19,7 km/h (3 Bft) W 280 ° 1 min 461 W/m² 8,6 °C 14,6 °C 27,4 km/h (5 Bft)
15.09.2024 16:08 23,9 °C 18,7 °C 52 % 53 % 1021,3 hPa 0,0 l/m² 20,3 km/h (4 Bft) W-NW 292 ° 1 min 459 W/m² 8,9 °C 14,5 °C 29,0 km/h (5 Bft)
15.09.2024 16:09 23,9 °C 18,6 °C 51 % 53 % 1021,2 hPa 0,0 l/m² 11,0 km/h (2 Bft) W-NW 298 ° 1 min 455 W/m² 8,8 °C 16,7 °C 20,9 km/h (4 Bft)
15.09.2024 16:11 23,9 °C 18,8 °C 51 % 54 % 1021,2 hPa 0,0 l/m² 10,4 km/h (2 Bft) N 360 ° 2 min 450 W/m² 9,3 °C 17,2 °C 20,9 km/h (4 Bft)
15.09.2024 16:13 23,9 °C 18,9 °C 51 % 53 % 1021,3 hPa 0,0 l/m² 21,1 km/h (4 Bft) N-NW 336 ° 2 min 446 W/m² 9,1 °C 14,6 °C 30,6 km/h (5 Bft)
15.09.2024 16:14 23,9 °C 18,8 °C 51 % 53 % 1021,3 hPa 0,0 l/m² 17,3 km/h (3 Bft) NW 315 ° 1 min 443 W/m² 9,0 °C 15,2 °C 29,0 km/h (5 Bft)
15.09.2024 16:15 23,9 °C 18,9 °C 51 % 53 % 1021,3 hPa 0,0 l/m² 9,9 km/h (2 Bft) NW 305 ° 1 min 441 W/m² 9,1 °C 17,5 °C 20,9 km/h (4 Bft)
15.09.2024 16:16 23,9 °C 19,0 °C 51 % 54 % 1021,3 hPa 0,0 l/m² 8,2 km/h (2 Bft) N 360 ° 1 min 438 W/m² 9,5 °C 18,2 °C 17,7 km/h (3 Bft)
15.09.2024 16:17 23,9 °C 19,1 °C 51 % 52 % 1021,3 hPa 0,0 l/m² 9,3 km/h (2 Bft) W-NW 303 ° 1 min 434 W/m² 9,0 °C 17,9 °C 20,9 km/h (4 Bft)
15.09.2024 16:18 23,9 °C 19,1 °C 51 % 52 % 1021,3 hPa 0,0 l/m² 6,2 km/h (2 Bft) N-NW 339 ° 1 min 429 W/m² 9,0 °C 19,1 °C 8,0 km/h (2 Bft)
15.09.2024 16:19 23,9 °C 19,1 °C 51 % 52 % 1021,3 hPa 0,0 l/m² 7,6 km/h (2 Bft) NW 313 ° 1 min 427 W/m² 9,0 °C 18,6 °C 16,1 km/h (3 Bft)
15.09.2024 16:21 23,9 °C 19,1 °C 51 % 53 % 1021,3 hPa 0,0 l/m² 14,0 km/h (3 Bft) W-NW 292 ° 2 min 431 W/m² 9,3 °C 16,4 °C 25,7 km/h (4 Bft)
15.09.2024 16:23 23,9 °C 19,1 °C 51 % 52 % 1021,2 hPa 0,0 l/m² 14,5 km/h (3 Bft) W-NW 302 ° 2 min 427 W/m² 9,0 °C 16,3 °C 30,6 km/h (5 Bft)
15.09.2024 16:24 23,9 °C 19,1 °C 51 % 52 % 1021,2 hPa 0,0 l/m² 18,2 km/h (3 Bft) N-NW 335 ° 1 min 427 W/m² 9,0 °C 15,4 °C 29,0 km/h (5 Bft)
15.09.2024 16:25 23,9 °C 18,9 °C 51 % 52 % 1021,2 hPa 0,0 l/m² 21,1 km/h (4 Bft) NW 306 ° 1 min 424 W/m² 8,8 °C 14,6 °C 30,6 km/h (5 Bft)
15.09.2024 16:26 23,9 °C 18,9 °C 51 % 52 % 1021,2 hPa 0,0 l/m² 15,8 km/h (3 Bft) NW 325 ° 1 min 422 W/m² 8,8 °C 15,7 °C 22,5 km/h (4 Bft)
15.09.2024 16:27 23,9 °C 18,8 °C 51 % 53 % 1021,2 hPa 0,0 l/m² 18,1 km/h (3 Bft) W 281 ° 1 min 420 W/m² 9,0 °C 15,1 °C 30,6 km/h (5 Bft)
15.09.2024 16:28 23,9 °C 18,8 °C 51 % 53 % 1021,2 hPa 0,0 l/m² 17,0 km/h (3 Bft) N-NW 327 ° 1 min 418 W/m² 9,0 °C 15,3 °C 24,1 km/h (4 Bft)
15.09.2024 16:29 23,9 °C 18,8 °C 51 % 53 % 1021,2 hPa 0,0 l/m² 15,8 km/h (3 Bft) N-NW 327 ° 1 min 415 W/m² 9,0 °C 15,6 °C 22,5 km/h (4 Bft)
15.09.2024 16:31 23,9 °C 18,8 °C 51 % 52 % 1021,2 hPa 0,0 l/m² 15,7 km/h (3 Bft) NW 309 ° 2 min 411 W/m² 8,7 °C 15,6 °C 29,0 km/h (5 Bft)
15.09.2024 16:33 23,9 °C 18,8 °C 51 % 51 % 1021,2 hPa 0,0 l/m² 19,2 km/h (3 Bft) N-NW 339 ° 2 min 413 W/m² 8,4 °C 14,8 °C 30,6 km/h (5 Bft)
15.09.2024 16:34 23,9 °C 18,9 °C 51 % 52 % 1021,3 hPa 0,0 l/m² 17,2 km/h (3 Bft) NW 317 ° 1 min 417 W/m² 8,8 °C 15,4 °C 30,6 km/h (5 Bft)
15.09.2024 16:35 23,9 °C 18,9 °C 51 % 51 % 1021,3 hPa 0,0 l/m² 19,4 km/h (3 Bft) NW 318 ° 1 min 418 W/m² 8,5 °C 14,9 °C 30,6 km/h (5 Bft)
15.09.2024 16:36 23,9 °C 18,8 °C 51 % 52 % 1021,3 hPa 0,0 l/m² 10,5 km/h (2 Bft) NW 324 ° 1 min 417 W/m² 8,7 °C 17,1 °C 19,3 km/h (3 Bft)
15.09.2024 16:37 23,9 °C 18,9 °C 51 % 51 % 1021,2 hPa 0,0 l/m² 20,3 km/h (4 Bft) N 355 ° 1 min 413 W/m² 8,5 °C 14,7 °C 30,6 km/h (5 Bft)
15.09.2024 16:38 23,9 °C 18,8 °C 51 % 51 % 1021,2 hPa 0,0 l/m² 21,2 km/h (4 Bft) NW 315 ° 1 min 411 W/m² 8,4 °C 14,4 °C 32,2 km/h (5 Bft)
15.09.2024 16:39 23,9 °C 18,8 °C 51 % 52 % 1021,2 hPa 0,0 l/m² 18,2 km/h (3 Bft) W-NW 302 ° 1 min 410 W/m² 8,7 °C 15,0 °C 22,5 km/h (4 Bft)
15.09.2024 16:41 23,9 °C 18,8 °C 51 % 52 % 1021,2 hPa 0,0 l/m² 19,0 km/h (3 Bft) N-NW 333 ° 2 min 410 W/m² 8,7 °C 14,9 °C 29,0 km/h (5 Bft)
15.09.2024 16:43 23,9 °C 18,8 °C 51 % 52 % 1021,3 hPa 0,0 l/m² 17,5 km/h (3 Bft) NW 325 ° 2 min 404 W/m² 8,7 °C 15,2 °C 27,4 km/h (5 Bft)
15.09.2024 16:44 23,9 °C 18,8 °C 51 % 52 % 1021,3 hPa 0,0 l/m² 17,1 km/h (3 Bft) W-NW 300 ° 1 min 404 W/m² 8,7 °C 15,3 °C 24,1 km/h (4 Bft)
15.09.2024 16:45 23,9 °C 18,9 °C 51 % 52 % 1021,4 hPa 0,0 l/m² 16,2 km/h (3 Bft) N-NW 338 ° 1 min 401 W/m² 8,8 °C 15,6 °C 22,5 km/h (4 Bft)
15.09.2024 16:46 23,9 °C 18,8 °C 51 % 52 % 1021,3 hPa 0,0 l/m² 14,1 km/h (3 Bft) N-NW 331 ° 1 min 404 W/m² 8,7 °C 16,0 °C 24,1 km/h (4 Bft)
15.09.2024 16:47 23,9 °C 18,9 °C 51 % 52 % 1021,3 hPa 0,0 l/m² 15,6 km/h (3 Bft) N-NW 343 ° 1 min 408 W/m² 8,8 °C 15,8 °C 22,5 km/h (4 Bft)
15.09.2024 16:48 23,9 °C 18,9 °C 51 % 52 % 1021,3 hPa 0,0 l/m² 21,9 km/h (4 Bft) N-NW 336 ° 1 min 410 W/m² 8,8 °C 14,4 °C 30,6 km/h (5 Bft)
15.09.2024 16:49 23,9 °C 18,8 °C 51 % 51 % 1021,3 hPa 0,0 l/m² 20,8 km/h (4 Bft) N-NW 331 ° 1 min 413 W/m² 8,4 °C 14,5 °C 25,7 km/h (4 Bft)
15.09.2024 16:51 23,9 °C 18,8 °C 51 % 52 % 1021,3 hPa 0,0 l/m² 17,4 km/h (3 Bft) N-NW 331 ° 2 min 352 W/m² 8,7 °C 15,2 °C 27,4 km/h (5 Bft)
15.09.2024 16:53 23,9 °C 18,7 °C 51 % 51 % 1021,3 hPa 0,0 l/m² 23,0 km/h (4 Bft) N 355 ° 2 min 297 W/m² 8,4 °C 14,0 °C 32,2 km/h (5 Bft)
15.09.2024 16:54 23,9 °C 18,6 °C 51 % 51 % 1021,3 hPa 0,0 l/m² 21,2 km/h (4 Bft) N-NW 330 ° 1 min 369 W/m² 8,3 °C 14,2 °C 32,2 km/h (5 Bft)
15.09.2024 16:55 23,9 °C 18,6 °C 51 % 51 % 1021,3 hPa 0,0 l/m² 21,4 km/h (4 Bft) N 11 ° 1 min 309 W/m² 8,3 °C 14,1 °C 27,4 km/h (5 Bft)
15.09.2024 16:56 23,9 °C 18,4 °C 51 % 51 % 1021,3 hPa 0,0 l/m² 19,0 km/h (3 Bft) N 350 ° 1 min 385 W/m² 8,1 °C 14,4 °C 25,7 km/h (4 Bft)
15.09.2024 16:57 23,9 °C 18,4 °C 51 % 51 % 1021,3 hPa 0,0 l/m² 13,6 km/h (3 Bft) N-NW 332 ° 1 min 371 W/m² 8,1 °C 15,7 °C 19,3 km/h (3 Bft)
15.09.2024 16:58 23,9 °C 18,4 °C 51 % 51 % 1021,3 hPa 0,0 l/m² 21,9 km/h (4 Bft) N-NW 329 ° 1 min 385 W/m² 8,1 °C 13,8 °C 29,0 km/h (5 Bft)
15.09.2024 16:59 23,9 °C 18,5 °C 51 % 52 % 1021,3 hPa 0,0 l/m² 12,3 km/h (2 Bft) NW 321 ° 1 min 385 W/m² 8,5 °C 16,2 °C 19,3 km/h (3 Bft)
15.09.2024 17:01 23,9 °C 18,6 °C 51 % 52 % 1021,2 hPa 0,0 l/m² 20,5 km/h (4 Bft) W-NW 302 ° 2 min 369 W/m² 8,5 °C 14,3 °C 29,0 km/h (5 Bft)
15.09.2024 17:03 23,9 °C 18,7 °C 51 % 53 % 1021,4 hPa 0,0 l/m² 14,9 km/h (3 Bft) W-NW 292 ° 2 min 364 W/m² 8,9 °C 15,7 °C 24,1 km/h (4 Bft)
15.09.2024 17:04 23,9 °C 18,8 °C 51 % 52 % 1021,5 hPa 0,0 l/m² 12,1 km/h (2 Bft) N 355 ° 1 min 381 W/m² 8,7 °C 16,6 °C 17,7 km/h (3 Bft)
15.09.2024 17:05 23,9 °C 18,9 °C 51 % 52 % 1021,3 hPa 0,0 l/m² 12,9 km/h (3 Bft) W-NW 301 ° 1 min 381 W/m² 8,8 °C 16,5 °C 19,3 km/h (3 Bft)
15.09.2024 17:06 23,9 °C 18,9 °C 52 % 52 % 1021,3 hPa 0,0 l/m² 16,5 km/h (3 Bft) NW 304 ° 1 min 383 W/m² 8,8 °C 15,5 °C 22,5 km/h (4 Bft)
15.09.2024 17:07 23,9 °C 18,9 °C 52 % 52 % 1021,3 hPa 0,0 l/m² 22,7 km/h (4 Bft) N-NW 330 ° 1 min 385 W/m² 8,8 °C 14,3 °C 35,4 km/h (5 Bft)
15.09.2024 17:08 23,9 °C 18,8 °C 52 % 52 % 1021,3 hPa 0,0 l/m² 24,7 km/h (4 Bft) N-NW 342 ° 1 min 385 W/m² 8,7 °C 13,8 °C 35,4 km/h (5 Bft)
15.09.2024 17:09 23,9 °C 18,8 °C 52 % 52 % 1021,3 hPa 0,0 l/m² 20,3 km/h (4 Bft) N 355 ° 1 min 387 W/m² 8,7 °C 14,6 °C 32,2 km/h (5 Bft)
15.09.2024 17:11 23,9 °C 18,7 °C 51 % 53 % 1021,3 hPa 0,0 l/m² 15,5 km/h (3 Bft) N-NW 327 ° 2 min 388 W/m² 8,9 °C 15,5 °C 25,7 km/h (4 Bft)
15.09.2024 17:13 23,9 °C 18,8 °C 51 % 52 % 1021,2 hPa 0,0 l/m² 15,6 km/h (3 Bft) NW 320 ° 2 min 381 W/m² 8,7 °C 15,6 °C 25,7 km/h (4 Bft)
15.09.2024 17:14 23,9 °C 18,8 °C 51 % 53 % 1021,3 hPa 0,0 l/m² 6,4 km/h (2 Bft) W 281 ° 1 min 374 W/m² 9,0 °C 18,8 °C 16,1 km/h (3 Bft)
15.09.2024 17:15 23,9 °C 18,9 °C 51 % 52 % 1021,2 hPa 0,0 l/m² 15,2 km/h (3 Bft) N-NO 22 ° 1 min 355 W/m² 8,8 °C 15,9 °C 24,1 km/h (4 Bft)
15.09.2024 17:16 23,9 °C 18,9 °C 51 % 51 % 1021,2 hPa 0,0 l/m² 15,0 km/h (3 Bft) NW 304 ° 1 min 322 W/m² 8,5 °C 15,9 °C 24,1 km/h (4 Bft)
15.09.2024 17:17 23,9 °C 18,9 °C 52 % 51 % 1021,2 hPa 0,0 l/m² 18,5 km/h (3 Bft) NW 323 ° 1 min 315 W/m² 8,5 °C 15,1 °C 30,6 km/h (5 Bft)
15.09.2024 17:18 23,9 °C 18,9 °C 52 % 51 % 1021,3 hPa 0,0 l/m² 23,5 km/h (4 Bft) N-NW 344 ° 1 min 265 W/m² 8,5 °C 14,1 °C 35,4 km/h (5 Bft)
15.09.2024 17:19 23,9 °C 18,8 °C 52 % 51 % 1021,3 hPa 0,0 l/m² 19,7 km/h (3 Bft) N 349 ° 1 min 190 W/m² 8,4 °C 14,7 °C 30,6 km/h (5 Bft)
15.09.2024 17:21 23,9 °C 18,6 °C 52 % 52 % 1021,3 hPa 0,0 l/m² 19,0 km/h (3 Bft) N-NW 344 ° 2 min 169 W/m² 8,5 °C 14,6 °C 29,0 km/h (5 Bft)
15.09.2024 17:23 23,9 °C 18,3 °C 52 % 53 % 1021,3 hPa 0,0 l/m² 18,0 km/h (3 Bft) NW 325 ° 2 min 209 W/m² 8,6 °C 14,4 °C 25,7 km/h (4 Bft)
15.09.2024 17:24 23,8 °C 18,2 °C 52 % 53 % 1021,3 hPa 0,0 l/m² 16,1 km/h (3 Bft) N-NW 342 ° 1 min 209 W/m² 8,5 °C 14,8 °C 24,1 km/h (4 Bft)
15.09.2024 17:25 23,8 °C 18,2 °C 52 % 53 % 1021,2 hPa 0,0 l/m² 19,1 km/h (3 Bft) N-NW 345 ° 1 min 211 W/m² 8,5 °C 14,1 °C 30,6 km/h (5 Bft)
15.09.2024 17:26 23,9 °C 18,1 °C 52 % 53 % 1021,2 hPa 0,0 l/m² 20,5 km/h (4 Bft) N 349 ° 1 min 199 W/m² 8,4 °C 13,6 °C 29,0 km/h (5 Bft)
15.09.2024 17:27 23,9 °C 18,1 °C 52 % 54 % 1021,2 hPa 0,0 l/m² 18,0 km/h (3 Bft) N-NW 327 ° 1 min 167 W/m² 8,6 °C 14,2 °C 27,4 km/h (5 Bft)
15.09.2024 17:28 23,8 °C 18,1 °C 52 % 54 % 1021,2 hPa 0,0 l/m² 18,0 km/h (3 Bft) N 355 ° 1 min 176 W/m² 8,6 °C 14,2 °C 22,5 km/h (4 Bft)
15.09.2024 17:29 23,9 °C 17,9 °C 52 % 54 % 1021,2 hPa 0,0 l/m² 22,5 km/h (4 Bft) NW 317 ° 1 min 151 W/m² 8,5 °C 13,0 °C 30,6 km/h (5 Bft)
15.09.2024 17:31 23,8 °C 17,9 °C 52 % 54 % 1021,2 hPa 0,0 l/m² 13,5 km/h (3 Bft) NW 308 ° 2 min 193 W/m² 8,5 °C 15,1 °C 20,9 km/h (4 Bft)
15.09.2024 17:33 23,8 °C 18,0 °C 52 % 54 % 1021,2 hPa 0,0 l/m² 14,3 km/h (3 Bft) W 278 ° 2 min 230 W/m² 8,6 °C 15,0 °C 24,1 km/h (4 Bft)
15.09.2024 17:34 23,8 °C 18,1 °C 52 % 54 % 1021,1 hPa 0,0 l/m² 14,7 km/h (3 Bft) N-NW 346 ° 1 min 248 W/m² 8,6 °C 15,0 °C 20,9 km/h (4 Bft)
15.09.2024 17:35 23,8 °C 18,1 °C 52 % 55 % 1021,2 hPa 0,0 l/m² 13,0 km/h (3 Bft) N-NW 335 ° 1 min 218 W/m² 8,9 °C 15,5 °C 19,3 km/h (3 Bft)
15.09.2024 17:36 23,8 °C 18,2 °C 52 % 54 % 1021,1 hPa 0,0 l/m² 16,1 km/h (3 Bft) NW 310 ° 1 min 142 W/m² 8,7 °C 14,8 °C 29,0 km/h (5 Bft)
15.09.2024 17:37 23,8 °C 18,2 °C 52 % 54 % 1021,1 hPa 0,0 l/m² 19,5 km/h (3 Bft) N-NW 334 ° 1 min 142 W/m² 8,7 °C 14,0 °C 27,4 km/h (5 Bft)
15.09.2024 17:38 23,8 °C 18,2 °C 52 % 54 % 1021,1 hPa 0,0 l/m² 20,1 km/h (4 Bft) N-NW 331 ° 1 min 158 W/m² 8,7 °C 13,9 °C 29,0 km/h (5 Bft)
15.09.2024 17:39 23,8 °C 18,2 °C 52 % 54 % 1021,2 hPa 0,0 l/m² 18,9 km/h (3 Bft) N-NW 328 ° 1 min 216 W/m² 8,7 °C 14,1 °C 30,6 km/h (5 Bft)
15.09.2024 17:41 23,8 °C 18,2 °C 52 % 54 % 1021,1 hPa 0,0 l/m² 19,5 km/h (3 Bft) N-NW 331 ° 2 min 193 W/m² 8,7 °C 14,0 °C 32,2 km/h (5 Bft)
15.09.2024 17:43 23,8 °C 18,2 °C 52 % 54 % 1021,2 hPa 0,0 l/m² 20,9 km/h (4 Bft) NW 319 ° 2 min 202 W/m² 8,7 °C 13,7 °C 30,6 km/h (5 Bft)
15.09.2024 17:44 23,8 °C 18,1 °C 52 % 54 % 1021,1 hPa 0,0 l/m² 19,4 km/h (3 Bft) NW 321 ° 1 min 204 W/m² 8,6 °C 13,9 °C 25,7 km/h (4 Bft)
15.09.2024 17:45 23,8 °C 18,1 °C 52 % 54 % 1021,1 hPa 0,0 l/m² 20,7 km/h (4 Bft) N-NW 338 ° 1 min 142 W/m² 8,6 °C 13,6 °C 27,4 km/h (5 Bft)
15.09.2024 17:46 23,9 °C 18,1 °C 52 % 54 % 1021,1 hPa 0,0 l/m² 16,6 km/h (3 Bft) N-NW 337 ° 1 min 220 W/m² 8,6 °C 14,5 °C 22,5 km/h (4 Bft)
15.09.2024 17:47 23,8 °C 18,1 °C 52 % 54 % 1021,1 hPa 0,0 l/m² 17,2 km/h (3 Bft) N-NW 342 ° 1 min 214 W/m² 8,6 °C 14,4 °C 27,4 km/h (5 Bft)
15.09.2024 17:48 23,8 °C 18,2 °C 52 % 54 % 1021,1 hPa 0,0 l/m² 18,6 km/h (3 Bft) N 355 ° 1 min 120 W/m² 8,7 °C 14,2 °C 27,4 km/h (5 Bft)
15.09.2024 17:49 23,8 °C 18,2 °C 52 % 54 % 1021,1 hPa 0,0 l/m² 17,5 km/h (3 Bft) NW 323 ° 1 min 123 W/m² 8,7 °C 14,4 °C 24,1 km/h (4 Bft)
15.09.2024 17:51 23,8 °C 18,2 °C 52 % 54 % 1021,1 hPa 0,0 l/m² 15,3 km/h (3 Bft) N 349 ° 2 min 120 W/m² 8,7 °C 15,0 °C 24,1 km/h (4 Bft)
15.09.2024 17:53 23,8 °C 18,2 °C 52 % 54 % 1021,0 hPa 0,0 l/m² 15,5 km/h (3 Bft) NW 325 ° 2 min 118 W/m² 8,7 °C 14,9 °C 22,5 km/h (4 Bft)
15.09.2024 17:54 23,8 °C 18,2 °C 52 % 54 % 1021,1 hPa 0,0 l/m² 16,7 km/h (3 Bft) N-NW 342 ° 1 min 81 W/m² 8,7 °C 14,6 °C 24,1 km/h (4 Bft)
15.09.2024 17:55 23,8 °C 18,2 °C 52 % 54 % 1021,2 hPa 0,0 l/m² 13,3 km/h (3 Bft) W-NW 302 ° 1 min 102 W/m² 8,7 °C 15,6 °C 20,9 km/h (4 Bft)
15.09.2024 17:56 23,8 °C 18,2 °C 52 % 54 % 1021,1 hPa 0,0 l/m² 17,7 km/h (3 Bft) N 5 ° 1 min 65 W/m² 8,7 °C 14,4 °C 27,4 km/h (5 Bft)
15.09.2024 17:57 23,8 °C 18,2 °C 52 % 54 % 1021,2 hPa 0,0 l/m² 20,6 km/h (4 Bft) N-NW 338 ° 1 min 65 W/m² 8,7 °C 13,8 °C 29,0 km/h (5 Bft)
15.09.2024 17:58 23,9 °C 18,2 °C 53 % 54 % 1021,2 hPa 0,0 l/m² 20,6 km/h (4 Bft) NW 325 ° 1 min 67 W/m² 8,7 °C 13,8 °C 29,0 km/h (5 Bft)
15.09.2024 17:59 23,9 °C 18,1 °C 53 % 54 % 1021,1 hPa 0,0 l/m² 18,0 km/h (3 Bft) N 350 ° 1 min 67 W/m² 8,6 °C 14,2 °C 24,1 km/h (4 Bft)
15.09.2024 18:01 23,9 °C 18,1 °C 53 % 54 % 1021,1 hPa 0,0 l/m² 15,6 km/h (3 Bft) N-NW 329 ° 2 min 69 W/m² 8,6 °C 14,8 °C 20,9 km/h (4 Bft)
15.09.2024 18:03 24,1 °C 18,1 °C 53 % 53 % 1021,1 hPa 0,0 l/m² 19,8 km/h (3 Bft) N-NW 337 ° 2 min 69 W/m² 8,4 °C 13,8 °C 30,6 km/h (5 Bft)
15.09.2024 18:04 24,1 °C 18,0 °C 53 % 53 % 1021,1 hPa 0,0 l/m² 18,6 km/h (3 Bft) NW 321 ° 1 min 67 W/m² 8,3 °C 13,9 °C 24,1 km/h (4 Bft)
15.09.2024 18:05 24,2 °C 17,9 °C 53 % 53 % 1021,2 hPa 0,0 l/m² 17,0 km/h (3 Bft) NW 315 ° 1 min 67 W/m² 8,2 °C 14,2 °C 22,5 km/h (4 Bft)
15.09.2024 18:06 24,2 °C 17,9 °C 52 % 53 % 1021,2 hPa 0,0 l/m² 17,1 km/h (3 Bft) NW 319 ° 1 min 67 W/m² 8,2 °C 14,2 °C 25,7 km/h (4 Bft)
15.09.2024 18:07 24,3 °C 17,9 °C 52 % 54 % 1021,3 hPa 0,0 l/m² 13,5 km/h (3 Bft) W-NW 292 ° 1 min 69 W/m² 8,5 °C 15,1 °C 22,5 km/h (4 Bft)
15.09.2024 18:08 24,4 °C 17,9 °C 52 % 54 % 1021,3 hPa 0,0 l/m² 17,7 km/h (3 Bft) N 355 ° 1 min 69 W/m² 8,5 °C 14,0 °C 24,1 km/h (4 Bft)
15.09.2024 18:09 24,5 °C 17,8 °C 53 % 54 % 1021,4 hPa 0,0 l/m² 13,9 km/h (3 Bft) N-NW 344 ° 1 min 69 W/m² 8,4 °C 14,9 °C 20,9 km/h (4 Bft)
15.09.2024 18:11 24,8 °C 17,8 °C 53 % 54 % 1021,4 hPa 0,0 l/m² 16,1 km/h (3 Bft) NW 318 ° 2 min 70 W/m² 8,4 °C 14,3 °C 24,1 km/h (4 Bft)
15.09.2024 18:13 25,0 °C 17,8 °C 52 % 54 % 1021,4 hPa 0,0 l/m² 16,4 km/h (3 Bft) NW 318 ° 2 min 74 W/m² 8,4 °C 14,2 °C 22,5 km/h (4 Bft)
15.09.2024 18:14 25,2 °C 17,8 °C 52 % 54 % 1021,4 hPa 0,0 l/m² 12,5 km/h (2 Bft) N-NO 23 ° 1 min 76 W/m² 8,4 °C 15,3 °C 16,1 km/h (3 Bft)
15.09.2024 18:15 25,3 °C 17,8 °C 52 % 54 % 1021,2 hPa 0,0 l/m² 18,8 km/h (3 Bft) N-NW 337 ° 1 min 76 W/m² 8,4 °C 13,6 °C 27,4 km/h (5 Bft)
15.09.2024 18:16 25,4 °C 17,7 °C 52 % 55 % 1021,3 hPa 0,0 l/m² 16,3 km/h (3 Bft) N-NW 342 ° 1 min 77 W/m² 8,5 °C 14,1 °C 24,1 km/h (4 Bft)
15.09.2024 18:17 25,6 °C 17,7 °C 52 % 54 % 1021,3 hPa 0,0 l/m² 21,5 km/h (4 Bft) NW 318 ° 1 min 79 W/m² 8,3 °C 12,9 °C 29,0 km/h (5 Bft)
15.09.2024 18:18 25,7 °C 17,7 °C 52 % 54 % 1021,3 hPa 0,0 l/m² 14,6 km/h (3 Bft) NW 308 ° 1 min 79 W/m² 8,3 °C 14,6 °C 20,9 km/h (4 Bft)
15.09.2024 18:19 25,9 °C 17,7 °C 51 % 55 % 1021,3 hPa 0,0 l/m² 16,6 km/h (3 Bft) N-NW 346 ° 1 min 79 W/m² 8,5 °C 14,0 °C 20,9 km/h (4 Bft)
15.09.2024 18:21 26,2 °C 17,8 °C 51 % 54 % 1021,3 hPa 0,0 l/m² 17,5 km/h (3 Bft) NW 313 ° 2 min 77 W/m² 8,4 °C 13,9 °C 32,2 km/h (5 Bft)
15.09.2024 18:23 26,4 °C 17,8 °C 50 % 54 % 1021,3 hPa 0,0 l/m² 14,5 km/h (3 Bft) N-NW 336 ° 2 min 70 W/m² 8,4 °C 14,7 °C 20,9 km/h (4 Bft)
15.09.2024 18:24 26,6 °C 17,8 °C 49 % 54 % 1021,3 hPa 0,0 l/m² 19,7 km/h (3 Bft) N-NW 348 ° 1 min 69 W/m² 8,4 °C 13,4 °C 24,1 km/h (4 Bft)
15.09.2024 18:25 26,7 °C 17,8 °C 49 % 54 % 1021,3 hPa 0,0 l/m² 17,5 km/h (3 Bft) N-NW 336 ° 1 min 65 W/m² 8,4 °C 13,9 °C 22,5 km/h (4 Bft)
15.09.2024 18:26 26,8 °C 17,8 °C 48 % 54 % 1021,3 hPa 0,0 l/m² 21,1 km/h (4 Bft) N 360 ° 1 min 65 W/m² 8,4 °C 13,1 °C 29,0 km/h (5 Bft)
15.09.2024 18:27 26,9 °C 17,8 °C 48 % 54 % 1021,3 hPa 0,0 l/m² 17,7 km/h (3 Bft) NW 318 ° 1 min 62 W/m² 8,4 °C 13,9 °C 22,5 km/h (4 Bft)
15.09.2024 18:28 27,1 °C 17,8 °C 48 % 54 % 1021,4 hPa 0,0 l/m² 17,5 km/h (3 Bft) N 351 ° 1 min 60 W/m² 8,4 °C 13,9 °C 29,0 km/h (5 Bft)
15.09.2024 18:29 27,2 °C 17,8 °C 48 % 54 % 1021,4 hPa 0,0 l/m² 14,1 km/h (3 Bft) N 355 ° 1 min 54 W/m² 8,4 °C 14,8 °C 19,3 km/h (3 Bft)
15.09.2024 18:31 27,4 °C 17,9 °C 47 % 55 % 1021,3 hPa 0,0 l/m² 15,0 km/h (3 Bft) N-NW 344 ° 2 min 53 W/m² 8,7 °C 14,7 °C 22,5 km/h (4 Bft)
15.09.2024 18:33 27,6 °C 17,9 °C 47 % 54 % 1021,3 hPa 0,0 l/m² 15,4 km/h (3 Bft) NW 317 ° 0 min 49 W/m² 8,5 °C 14,6 °C 22,5 km/h (4 Bft)
15.09.2024 18:34 27,7 °C 17,9 °C 47 % 54 % 1021,3 hPa 0,0 l/m² 15,8 km/h (3 Bft) W-NW 302 ° 0 min 47 W/m² 8,5 °C 14,5 °C 22,5 km/h (4 Bft)
15.09.2024 18:35 27,8 °C 17,9 °C 47 % 54 % 1021,4 hPa 0,0 l/m² 16,4 km/h (3 Bft) W-NW 291 ° 0 min 47 W/m² 8,5 °C 14,3 °C 25,7 km/h (4 Bft)
15.09.2024 18:36 27,9 °C 17,9 °C 46 % 54 % 1021,3 hPa 0,0 l/m² 15,7 km/h (3 Bft) NW 310 ° 0 min 46 W/m² 8,5 °C 14,5 °C 27,4 km/h (5 Bft)
15.09.2024 18:37 28,0 °C 17,9 °C 46 % 54 % 1021,4 hPa 0,0 l/m² 15,7 km/h (3 Bft) NW 304 ° 0 min 46 W/m² 8,5 °C 14,5 °C 20,9 km/h (4 Bft)
15.09.2024 18:38 28,1 °C 17,9 °C 46 % 54 % 1021,3 hPa 0,0 l/m² 14,7 km/h (3 Bft) N 5 ° 0 min 44 W/m² 8,5 °C 14,8 °C 25,7 km/h (4 Bft)
15.09.2024 18:39 28,2 °C 17,9 °C 46 % 55 % 1021,3 hPa 0,0 l/m² 14,9 km/h (3 Bft) N-NW 342 ° 0 min 44 W/m² 8,7 °C 14,7 °C 20,9 km/h (4 Bft)
15.09.2024 18:41 28,3 °C 17,8 °C 46 % 55 % 1021,3 hPa 0,0 l/m² 15,9 km/h (3 Bft) NW 325 ° 0 min 42 W/m² 8,6 °C 14,3 °C 22,5 km/h (4 Bft)
15.09.2024 18:43 28,6 °C 17,8 °C 46 % 55 % 1021,3 hPa 0,0 l/m² 12,5 km/h (2 Bft) N-NW 332 ° 0 min 40 W/m² 8,6 °C 15,3 °C 22,5 km/h (4 Bft)
15.09.2024 18:44 28,7 °C 17,8 °C 45 % 55 % 1021,4 hPa 0,0 l/m² 13,4 km/h (3 Bft) NW 320 ° 0 min 40 W/m² 8,6 °C 15,1 °C 17,7 km/h (3 Bft)
15.09.2024 18:46 29,0 °C 17,8 °C 45 % 55 % 1021,4 hPa 0,0 l/m² 15,8 km/h (3 Bft) N 355 ° 0 min 39 W/m² 8,6 °C 14,4 °C 22,5 km/h (4 Bft)
15.09.2024 18:47 29,2 °C 17,7 °C 45 % 55 % 1021,4 hPa 0,0 l/m² 18,2 km/h (3 Bft) N-NW 329 ° 0 min 40 W/m² 8,5 °C 13,6 °C 25,7 km/h (4 Bft)
15.09.2024 18:48 29,3 °C 17,7 °C 45 % 54 % 1021,4 hPa 0,0 l/m² 14,6 km/h (3 Bft) NW 320 ° 0 min 40 W/m² 8,3 °C 14,6 °C 22,5 km/h (4 Bft)
15.09.2024 18:49 29,6 °C 17,7 °C 44 % 55 % 1021,4 hPa 0,0 l/m² 18,2 km/h (3 Bft) N 360 ° 0 min 40 W/m² 8,5 °C 13,6 °C 25,7 km/h (4 Bft)
15.09.2024 18:51 29,9 °C 17,6 °C 44 % 55 % 1021,5 hPa 0,0 l/m² 17,8 km/h (3 Bft) NW 312 ° 0 min 37 W/m² 8,5 °C 13,6 °C 25,7 km/h (4 Bft)
15.09.2024 18:53 30,2 °C 17,6 °C 43 % 55 % 1021,6 hPa 0,0 l/m² 11,0 km/h (2 Bft) N-NW 333 ° 0 min 33 W/m² 8,5 °C 15,6 °C 16,1 km/h (3 Bft)
15.09.2024 18:54 30,3 °C 17,6 °C 43 % 55 % 1021,7 hPa 0,0 l/m² 8,0 km/h (2 Bft) NW 325 ° 0 min 33 W/m² 8,5 °C 16,8 °C 14,5 km/h (3 Bft)
15.09.2024 18:55 30,5 °C 17,6 °C 43 % 56 % 1021,8 hPa 0,0 l/m² 10,4 km/h (2 Bft) W-NW 290 ° 0 min 33 W/m² 8,7 °C 15,8 °C 14,5 km/h (3 Bft)
15.09.2024 18:56 30,7 °C 17,6 °C 43 % 56 % 1021,7 hPa 0,0 l/m² 7,3 km/h (2 Bft) N-NW 331 ° 0 min 33 W/m² 8,7 °C 17,2 °C 12,9 km/h (3 Bft)
15.09.2024 18:57 30,8 °C 17,6 °C 42 % 56 % 1021,7 hPa 0,0 l/m² 8,5 km/h (2 Bft) NW 315 ° 0 min 33 W/m² 8,7 °C 16,6 °C 12,9 km/h (3 Bft)
15.09.2024 18:58 30,9 °C 17,6 °C 42 % 56 % 1021,6 hPa 0,0 l/m² 9,6 km/h (2 Bft) NW 325 ° 0 min 33 W/m² 8,7 °C 16,1 °C 12,9 km/h (3 Bft)
15.09.2024 18:59 31,0 °C 17,6 °C 42 % 56 % 1021,6 hPa 0,0 l/m² 12,3 km/h (2 Bft) N-NW 331 ° 0 min 33 W/m² 8,7 °C 15,2 °C 17,7 km/h (3 Bft)
15.09.2024 19:01 31,2 °C 17,6 °C 42 % 55 % 1021,8 hPa 0,0 l/m² 15,5 km/h (3 Bft) NW 305 ° 0 min 33 W/m² 8,5 °C 14,2 °C 24,1 km/h (4 Bft)
15.09.2024 19:03 31,3 °C 17,5 °C 41 % 55 % 1021,8 hPa 0,0 l/m² 11,2 km/h (2 Bft) N 355 ° 0 min 35 W/m² 8,4 °C 15,4 °C 17,7 km/h (3 Bft)
15.09.2024 19:04 31,4 °C 17,6 °C 41 % 55 % 1021,7 hPa 0,0 l/m² 15,7 km/h (3 Bft) NW 326 ° 0 min 37 W/m² 8,5 °C 14,1 °C 29,0 km/h (5 Bft)
15.09.2024 19:05 31,5 °C 17,5 °C 41 % 55 % 1021,7 hPa 0,0 l/m² 18,6 km/h (3 Bft) N 360 ° 0 min 37 W/m² 8,4 °C 13,3 °C 24,1 km/h (4 Bft)
15.09.2024 19:06 31,6 °C 17,5 °C 41 % 55 % 1021,7 hPa 0,0 l/m² 17,6 km/h (3 Bft) NW 321 ° 0 min 35 W/m² 8,4 °C 13,5 °C 24,1 km/h (4 Bft)
15.09.2024 19:07 31,6 °C 17,5 °C 41 % 55 % 1021,7 hPa 0,0 l/m² 17,0 km/h (3 Bft) NW 325 ° 0 min 33 W/m² 8,4 °C 13,7 °C 24,1 km/h (4 Bft)
15.09.2024 19:08 31,7 °C 17,5 °C 41 % 55 % 1021,7 hPa 0,0 l/m² 15,0 km/h (3 Bft) N-NW 333 ° 0 min 30 W/m² 8,4 °C 14,2 °C 22,5 km/h (4 Bft)
15.09.2024 19:09 31,7 °C 17,4 °C 40 % 55 % 1021,7 hPa 0,0 l/m² 15,4 km/h (3 Bft) N 355 ° 0 min 28 W/m² 8,3 °C 14,0 °C 20,9 km/h (4 Bft)
15.09.2024 19:11 31,8 °C 17,4 °C 40 % 55 % 1021,8 hPa 0,0 l/m² 12,3 km/h (2 Bft) N-NW 335 ° 0 min 21 W/m² 8,3 °C 14,9 °C 19,3 km/h (3 Bft)
15.09.2024 19:13 31,9 °C 17,4 °C 40 % 55 % 1021,8 hPa 0,0 l/m² 16,4 km/h (3 Bft) N-NW 330 ° 0 min 19 W/m² 8,3 °C 13,7 °C 22,5 km/h (4 Bft)
15.09.2024 19:14 31,9 °C 17,3 °C 40 % 55 % 1021,8 hPa 0,0 l/m² 15,6 km/h (3 Bft) NW 317 ° 0 min 18 W/m² 8,2 °C 13,8 °C 19,3 km/h (3 Bft)
15.09.2024 19:15 31,9 °C 17,3 °C 40 % 55 % 1021,9 hPa 0,0 l/m² 8,8 km/h (2 Bft) N-NW 347 ° 0 min 12 W/m² 8,2 °C 16,2 °C 14,5 km/h (3 Bft)
15.09.2024 19:16 31,9 °C 17,3 °C 40 % 55 % 1021,8 hPa 0,0 l/m² 13,5 km/h (3 Bft) N-NW 327 ° 0 min 11 W/m² 8,2 °C 14,4 °C 19,3 km/h (3 Bft)
15.09.2024 19:17 31,9 °C 17,3 °C 40 % 55 % 1021,9 hPa 0,0 l/m² 11,6 km/h (2 Bft) N-NW 334 ° 0 min 9 W/m² 8,2 °C 15,1 °C 17,7 km/h (3 Bft)
15.09.2024 19:18 32,0 °C 17,3 °C 40 % 55 % 1021,8 hPa 0,0 l/m² 6,5 km/h (2 Bft) NW 325 ° 0 min 7 W/m² 8,2 °C 17,3 °C 12,9 km/h (3 Bft)
15.09.2024 19:20 32,1 °C 17,2 °C 40 % 56 % 1021,9 hPa 0,0 l/m² 12,6 km/h (3 Bft) N-NW 345 ° 0 min 7 W/m² 8,3 °C 14,6 °C 17,7 km/h (3 Bft)
15.09.2024 19:21 32,1 °C 17,2 °C 40 % 56 % 1021,9 hPa 0,0 l/m² 8,6 km/h (2 Bft) W 271 ° 0 min 9 W/m² 8,3 °C 16,1 °C 16,1 km/h (3 Bft)
15.09.2024 19:22 32,1 °C 17,2 °C 40 % 56 % 1021,9 hPa 0,0 l/m² 5,8 km/h (2 Bft) N-NW 344 ° 0 min 9 W/m² 8,3 °C 17,2 °C 12,9 km/h (3 Bft)
15.09.2024 19:23 32,1 °C 17,2 °C 40 % 57 % 1021,9 hPa 0,0 l/m² 7,8 km/h (2 Bft) N-NW 333 ° 0 min 7 W/m² 8,6 °C 16,5 °C 14,5 km/h (3 Bft)
15.09.2024 19:24 32,1 °C 17,1 °C 40 % 57 % 1021,9 hPa 0,0 l/m² 8,6 km/h (2 Bft) W-NW 286 ° 0 min 7 W/m² 8,5 °C 16,0 °C 16,1 km/h (3 Bft)
15.09.2024 19:25 32,2 °C 17,1 °C 40 % 57 % 1022,0 hPa 0,0 l/m² 7,6 km/h (2 Bft) N-NW 339 ° 0 min 5 W/m² 8,5 °C 16,5 °C 9,7 km/h (2 Bft)
15.09.2024 19:26 32,2 °C 17,1 °C 40 % 57 % 1022,0 hPa 0,0 l/m² 5,4 km/h (2 Bft) N-NW 327 ° 0 min 5 W/m² 8,5 °C 17,1 °C 8,0 km/h (2 Bft)
15.09.2024 19:27 32,2 °C 17,1 °C 40 % 57 % 1021,9 hPa 0,0 l/m² 4,7 km/h (1 Bft) NW 313 ° 0 min 0 W/m² 8,5 °C 17,1 °C 6,4 km/h (2 Bft)
15.09.2024 19:28 32,2 °C 17,0 °C 40 % 57 % 1022,0 hPa 0,0 l/m² 6,4 km/h (2 Bft) N 355 ° 0 min 0 W/m² 8,4 °C 17,0 °C 14,5 km/h (3 Bft)
15.09.2024 19:29 32,2 °C 17,0 °C 40 % 57 % 1022,0 hPa 0,0 l/m² 12,7 km/h (3 Bft) NW 313 ° 0 min 0 W/m² 8,4 °C 14,3 °C 17,7 km/h (3 Bft)
15.09.2024 19:31 32,2 °C 16,9 °C 40 % 58 % 1022,0 hPa 0,0 l/m² 12,1 km/h (2 Bft) N-NW 338 ° 0 min 0 W/m² 8,6 °C 14,4 °C 17,7 km/h (3 Bft)
15.09.2024 19:33 32,2 °C 16,9 °C 40 % 58 % 1022,1 hPa 0,0 l/m² 12,3 km/h (2 Bft) NW 305 ° 0 min 0 W/m² 8,6 °C 14,4 °C 19,3 km/h (3 Bft)
15.09.2024 19:34 32,2 °C 16,9 °C 40 % 57 % 1022,1 hPa 0,0 l/m² 9,7 km/h (2 Bft) N-NW 338 ° 0 min 0 W/m² 8,3 °C 15,3 °C 16,1 km/h (3 Bft)
15.09.2024 19:35 32,2 °C 16,9 °C 40 % 58 % 1022,1 hPa 0,0 l/m² 9,9 km/h (2 Bft) NW 309 ° 0 min 0 W/m² 8,6 °C 15,3 °C 17,7 km/h (3 Bft)
15.09.2024 19:36 32,2 °C 16,9 °C 40 % 58 % 1022,1 hPa 0,0 l/m² 8,0 km/h (2 Bft) NW 305 ° 0 min 0 W/m² 8,6 °C 16,1 °C 12,9 km/h (3 Bft)
15.09.2024 19:37 32,2 °C 16,9 °C 40 % 58 % 1022,2 hPa 0,0 l/m² 9,8 km/h (2 Bft) NW 317 ° 0 min 0 W/m² 8,6 °C 15,3 °C 22,5 km/h (4 Bft)
15.09.2024 19:38 32,2 °C 16,9 °C 40 % 57 % 1022,1 hPa 0,0 l/m² 14,0 km/h (3 Bft) N-NW 336 ° 0 min 0 W/m² 8,3 °C 13,8 °C 17,7 km/h (3 Bft)
15.09.2024 19:39 32,1 °C 16,9 °C 40 % 58 % 1022,1 hPa 0,0 l/m² 7,4 km/h (2 Bft) W-NW 295 ° 0 min 0 W/m² 8,6 °C 16,4 °C 14,5 km/h (3 Bft)
15.09.2024 19:41 32,2 °C 16,9 °C 40 % 58 % 1022,2 hPa 0,0 l/m² 10,2 km/h (2 Bft) N 355 ° 0 min 0 W/m² 8,6 °C 15,1 °C 17,7 km/h (3 Bft)
15.09.2024 19:43 32,1 °C 16,8 °C 40 % 58 % 1022,2 hPa 0,0 l/m² 6,6 km/h (2 Bft) NW 311 ° 0 min 0 W/m² 8,5 °C 16,7 °C 14,5 km/h (3 Bft)
15.09.2024 19:44 32,1 °C 16,8 °C 40 % 58 % 1022,2 hPa 0,0 l/m² 8,9 km/h (2 Bft) NW 319 ° 0 min 0 W/m² 8,5 °C 15,6 °C 16,1 km/h (3 Bft)
15.09.2024 19:45 32,1 °C 16,8 °C 40 % 58 % 1022,2 hPa 0,0 l/m² 12,1 km/h (2 Bft) W-NW 294 ° 0 min 0 W/m² 8,5 °C 14,3 °C 19,3 km/h (3 Bft)
15.09.2024 19:46 32,0 °C 16,8 °C 40 % 58 % 1022,2 hPa 0,0 l/m² 9,1 km/h (2 Bft) W-NW 290 ° 0 min 0 W/m² 8,5 °C 15,5 °C 17,7 km/h (3 Bft)
15.09.2024 19:47 32,0 °C 16,8 °C 40 % 58 % 1022,2 hPa 0,0 l/m² 11,5 km/h (2 Bft) NW 313 ° 0 min 0 W/m² 8,5 °C 14,5 °C 17,7 km/h (3 Bft)
15.09.2024 19:48 32,0 °C 16,8 °C 39 % 58 % 1022,2 hPa 0,0 l/m² 8,0 km/h (2 Bft) W-NW 300 ° 0 min 0 W/m² 8,5 °C 16,0 °C 12,9 km/h (3 Bft)
15.09.2024 19:49 31,9 °C 16,8 °C 39 % 58 % 1022,3 hPa 0,0 l/m² 4,2 km/h (1 Bft) NW 306 ° 0 min 0 W/m² 8,5 °C 16,8 °C 6,4 km/h (2 Bft)
15.09.2024 19:51 31,9 °C 16,7 °C 40 % 58 % 1022,2 hPa 0,0 l/m² 9,0 km/h (2 Bft) N-NW 330 ° 0 min 0 W/m² 8,4 °C 15,4 °C 16,1 km/h (3 Bft)
15.09.2024 19:53 31,8 °C 16,7 °C 40 % 58 % 1022,2 hPa 0,0 l/m² 6,8 km/h (2 Bft) NW 316 ° 0 min 0 W/m² 8,4 °C 16,5 °C 11,3 km/h (2 Bft)
15.09.2024 19:54 31,8 °C 16,6 °C 40 % 58 % 1022,3 hPa 0,0 l/m² 7,0 km/h (2 Bft) N 5 ° 0 min 0 W/m² 8,3 °C 16,3 °C 9,7 km/h (2 Bft)
15.09.2024 19:55 31,8 °C 16,7 °C 40 % 59 % 1022,4 hPa 0,0 l/m² 9,4 km/h (2 Bft) W-NW 298 ° 0 min 0 W/m² 8,6 °C 15,2 °C 17,7 km/h (3 Bft)
15.09.2024 19:56 31,8 °C 16,7 °C 40 % 59 % 1022,3 hPa 0,0 l/m² 8,6 km/h (2 Bft) W-NW 299 ° 0 min 0 W/m² 8,6 °C 15,6 °C 14,5 km/h (3 Bft)
15.09.2024 19:57 31,7 °C 16,6 °C 40 % 59 % 1022,4 hPa 0,0 l/m² 6,2 km/h (2 Bft) NW 321 ° 0 min 0 W/m² 8,6 °C 16,6 °C 11,3 km/h (2 Bft)
15.09.2024 19:58 31,7 °C 16,6 °C 40 % 59 % 1022,4 hPa 0,0 l/m² 8,4 km/h (2 Bft) NW 313 ° 0 min 0 W/m² 8,6 °C 15,6 °C 14,5 km/h (3 Bft)
15.09.2024 19:59 31,7 °C 16,6 °C 40 % 59 % 1022,4 hPa 0,0 l/m² 12,0 km/h (2 Bft) N 349 ° 0 min 0 W/m² 8,6 °C 14,1 °C 17,7 km/h (3 Bft)
15.09.2024 20:01 31,6 °C 16,6 °C 39 % 59 % 1022,3 hPa 0,0 l/m² 9,3 km/h (2 Bft) W 278 ° 0 min 0 W/m² 8,6 °C 15,2 °C 20,9 km/h (4 Bft)
15.09.2024 20:03 31,5 °C 16,6 °C 39 % 59 % 1022,4 hPa 0,0 l/m² 6,0 km/h (2 Bft) N-NW 335 ° 0 min 0 W/m² 8,6 °C 16,6 °C 11,3 km/h (2 Bft)
15.09.2024 20:04 31,4 °C 16,6 °C 40 % 59 % 1022,3 hPa 0,0 l/m² 7,6 km/h (2 Bft) NW 305 ° 0 min 0 W/m² 8,6 °C 16,0 °C 14,5 km/h (3 Bft)
15.09.2024 20:05 31,4 °C 16,6 °C 40 % 59 % 1022,3 hPa 0,0 l/m² 8,8 km/h (2 Bft) N-NW 339 ° 0 min 0 W/m² 8,6 °C 15,4 °C 14,5 km/h (3 Bft)
15.09.2024 20:06 31,4 °C 16,6 °C 40 % 59 % 1022,3 hPa 0,0 l/m² 7,2 km/h (2 Bft) N-NW 333 ° 0 min 0 W/m² 8,6 °C 16,2 °C 9,7 km/h (2 Bft)
15.09.2024 20:07 31,4 °C 16,5 °C 40 % 59 % 1022,3 hPa 0,0 l/m² 9,1 km/h (2 Bft) N-NW 339 ° 0 min 0 W/m² 8,5 °C 15,2 °C 12,9 km/h (3 Bft)
15.09.2024 20:08 31,3 °C 16,5 °C 40 % 59 % 1022,2 hPa 0,0 l/m² 6,0 km/h (2 Bft) NO 40 ° 0 min 0 W/m² 8,5 °C 16,5 °C 12,9 km/h (3 Bft)
15.09.2024 20:09 31,3 °C 16,5 °C 40 % 59 % 1022,2 hPa 0,0 l/m² 7,4 km/h (2 Bft) N-NW 340 ° 0 min 0 W/m² 8,5 °C 16,0 °C 11,3 km/h (2 Bft)
15.09.2024 20:11 31,2 °C 16,4 °C 40 % 59 % 1022,2 hPa 0,0 l/m² 7,4 km/h (2 Bft) NW 313 ° 0 min 0 W/m² 8,4 °C 15,9 °C 14,5 km/h (3 Bft)
15.09.2024 20:13 31,2 °C 16,4 °C 40 % 59 % 1022,3 hPa 0,0 l/m² 5,2 km/h (1 Bft) W-NW 288 ° 0 min 0 W/m² 8,4 °C 16,4 °C 16,1 km/h (3 Bft)
15.09.2024 20:14 31,1 °C 16,4 °C 40 % 59 % 1022,2 hPa 0,0 l/m² 2,8 km/h (1 Bft) N-NW 327 ° 0 min 0 W/m² 8,4 °C 16,4 °C 4,8 km/h (1 Bft)
15.09.2024 20:15 31,1 °C 16,4 °C 40 % 60 % 1022,2 hPa 0,0 l/m² 4,6 km/h (1 Bft) N-NW 334 ° 0 min 0 W/m² 8,6 °C 16,4 °C 8,0 km/h (2 Bft)
15.09.2024 20:16 31,0 °C 16,4 °C 40 % 60 % 1022,2 hPa 0,0 l/m² 5,1 km/h (1 Bft) NW 323 ° 0 min 0 W/m² 8,6 °C 16,4 °C 9,7 km/h (2 Bft)
15.09.2024 20:17 31,0 °C 16,3 °C 40 % 60 % 1022,3 hPa 0,0 l/m² 7,7 km/h (2 Bft) W-NW 296 ° 0 min 0 W/m² 8,5 °C 15,6 °C 12,9 km/h (3 Bft)
15.09.2024 20:18 30,9 °C 16,3 °C 40 % 60 % 1022,4 hPa 0,0 l/m² 8,9 km/h (2 Bft) NW 321 ° 0 min 0 W/m² 8,5 °C 15,0 °C 14,5 km/h (3 Bft)
15.09.2024 20:19 30,9 °C 16,3 °C 40 % 60 % 1022,4 hPa 0,0 l/m² 7,2 km/h (2 Bft) N 350 ° 0 min 0 W/m² 8,5 °C 15,9 °C 9,7 km/h (2 Bft)
15.09.2024 20:21 30,8 °C 16,3 °C 40 % 61 % 1022,4 hPa 0,0 l/m² 6,0 km/h (2 Bft) N-NW 334 ° 0 min 0 W/m² 8,8 °C 16,3 °C 14,5 km/h (3 Bft)
15.09.2024 20:23 30,7 °C 16,3 °C 40 % 61 % 1022,3 hPa 0,0 l/m² 9,3 km/h (2 Bft) W 274 ° 0 min 0 W/m² 8,8 °C 14,9 °C 16,1 km/h (3 Bft)
15.09.2024 20:24 30,7 °C 16,3 °C 40 % 60 % 1022,4 hPa 0,0 l/m² 7,8 km/h (2 Bft) NW 304 ° 0 min 0 W/m² 8,5 °C 15,6 °C 11,3 km/h (2 Bft)
15.09.2024 20:25 30,6 °C 16,3 °C 40 % 60 % 1022,3 hPa 0,0 l/m² 7,3 km/h (2 Bft) N-NW 335 ° 0 min 0 W/m² 8,5 °C 15,8 °C 9,7 km/h (2 Bft)
15.09.2024 20:26 30,6 °C 16,3 °C 40 % 60 % 1022,3 hPa 0,0 l/m² 7,8 km/h (2 Bft) NW 304 ° 0 min 0 W/m² 8,5 °C 15,6 °C 14,5 km/h (3 Bft)
15.09.2024 20:27 30,5 °C 16,3 °C 41 % 60 % 1022,3 hPa 0,0 l/m² 7,7 km/h (2 Bft) N-NW 343 ° 0 min 0 W/m² 8,5 °C 15,6 °C 14,5 km/h (3 Bft)
15.09.2024 20:28 30,4 °C 16,3 °C 41 % 61 % 1022,2 hPa 0,0 l/m² 8,4 km/h (2 Bft) NW 305 ° 0 min 0 W/m² 8,8 °C 15,3 °C 14,5 km/h (3 Bft)
15.09.2024 20:29 30,4 °C 16,3 °C 41 % 61 % 1022,2 hPa 0,0 l/m² 8,4 km/h (2 Bft) N-NW 327 ° 0 min 0 W/m² 8,8 °C 15,3 °C 14,5 km/h (3 Bft)
15.09.2024 20:31 30,3 °C 16,2 °C 41 % 61 % 1022,2 hPa 0,0 l/m² 8,5 km/h (2 Bft) NW 325 ° 0 min 0 W/m² 8,7 °C 15,1 °C 16,1 km/h (3 Bft)
15.09.2024 20:33 30,2 °C 16,2 °C 41 % 61 % 1022,1 hPa 0,0 l/m² 7,0 km/h (2 Bft) W-NW 290 ° 0 min 0 W/m² 8,7 °C 15,9 °C 12,9 km/h (3 Bft)
15.09.2024 20:34 30,2 °C 16,1 °C 41 % 61 % 1022,1 hPa 0,0 l/m² 9,3 km/h (2 Bft) W-NW 289 ° 0 min 0 W/m² 8,6 °C 14,6 °C 16,1 km/h (3 Bft)
15.09.2024 20:35 30,2 °C 16,1 °C 41 % 62 % 1022,2 hPa 0,0 l/m² 7,4 km/h (2 Bft) N-NW 340 ° 0 min 0 W/m² 8,8 °C 15,6 °C 9,7 km/h (2 Bft)
15.09.2024 20:36 30,2 °C 16,1 °C 41 % 62 % 1022,1 hPa 0,0 l/m² 5,2 km/h (1 Bft) W-NW 296 ° 0 min 0 W/m² 8,8 °C 16,1 °C 9,7 km/h (2 Bft)
15.09.2024 20:37 30,1 °C 16,1 °C 41 % 62 % 1022,0 hPa 0,0 l/m² 6,2 km/h (2 Bft) NW 315 ° 0 min 0 W/m² 8,8 °C 16,1 °C 12,9 km/h (3 Bft)
15.09.2024 20:38 30,1 °C 16,1 °C 41 % 63 % 1022,1 hPa 0,0 l/m² 6,2 km/h (2 Bft) W-NW 303 ° 0 min 0 W/m² 9,1 °C 16,1 °C 14,5 km/h (3 Bft)
15.09.2024 20:39 30,0 °C 16,0 °C 42 % 63 % 1022,1 hPa 0,0 l/m² 4,7 km/h (1 Bft) NW 318 ° 0 min 0 W/m² 9,0 °C 16,0 °C 6,4 km/h (2 Bft)
15.09.2024 20:41 29,9 °C 15,9 °C 42 % 64 % 1022,0 hPa 0,0 l/m² 6,3 km/h (2 Bft) W-NW 296 ° 0 min 0 W/m² 9,1 °C 15,9 °C 9,7 km/h (2 Bft)
15.09.2024 20:43 29,8 °C 15,8 °C 42 % 64 % 1022,0 hPa 0,0 l/m² 4,5 km/h (1 Bft) W-NW 285 ° 0 min 0 W/m² 9,0 °C 15,8 °C 11,3 km/h (2 Bft)
15.09.2024 20:44 29,8 °C 15,8 °C 42 % 65 % 1022,1 hPa 0,0 l/m² 3,0 km/h (1 Bft) W-NW 291 ° 0 min 0 W/m² 9,2 °C 15,8 °C 4,8 km/h (1 Bft)
15.09.2024 20:45 29,8 °C 15,7 °C 42 % 65 % 1022,0 hPa 0,0 l/m² 7,2 km/h (2 Bft) W-NW 301 ° 0 min 0 W/m² 9,1 °C 15,3 °C 14,5 km/h (3 Bft)
15.09.2024 20:46 29,7 °C 15,7 °C 42 % 64 % 1022,0 hPa 0,0 l/m² 9,7 km/h (2 Bft) W-NW 302 ° 0 min 0 W/m² 8,9 °C 14,0 °C 17,7 km/h (3 Bft)
15.09.2024 20:47 29,7 °C 15,7 °C 42 % 64 % 1022,0 hPa 0,0 l/m² 4,7 km/h (1 Bft) W-NW 284 ° 0 min 0 W/m² 8,9 °C 15,7 °C 9,7 km/h (2 Bft)
15.09.2024 20:48 29,7 °C 15,7 °C 42 % 64 % 1022,0 hPa 0,0 l/m² 3,2 km/h (1 Bft) W-NW 290 ° 0 min 0 W/m² 8,9 °C 15,7 °C 8,0 km/h (2 Bft)
15.09.2024 20:49 29,6 °C 15,6 °C 42 % 64 % 1022,0 hPa 0,0 l/m² 7,5 km/h (2 Bft) W-NW 287 ° 0 min 0 W/m² 8,8 °C 15,0 °C 16,1 km/h (3 Bft)
15.09.2024 20:51 29,5 °C 15,6 °C 42 % 64 % 1022,1 hPa 0,0 l/m² 6,2 km/h (2 Bft) W 278 ° 0 min 0 W/m² 8,8 °C 15,6 °C 12,9 km/h (3 Bft)
15.09.2024 20:53 29,4 °C 15,6 °C 42 % 65 % 1022,2 hPa 0,0 l/m² 6,5 km/h (2 Bft) NW 326 ° 0 min 0 W/m² 9,0 °C 15,6 °C 16,1 km/h (3 Bft)
15.09.2024 20:54 29,4 °C 15,6 °C 42 % 65 % 1022,1 hPa 0,0 l/m² 7,0 km/h (2 Bft) N-NW 328 ° 0 min 0 W/m² 9,0 °C 15,3 °C 16,1 km/h (3 Bft)
15.09.2024 20:55 29,3 °C 15,6 °C 42 % 65 % 1022,1 hPa 0,0 l/m² 6,3 km/h (2 Bft) N 355 ° 0 min 0 W/m² 9,0 °C 15,6 °C 8,0 km/h (2 Bft)
15.09.2024 20:57 29,2 °C 15,5 °C 43 % 65 % 1022,2 hPa 0,0 l/m² 7,8 km/h (2 Bft) N-NW 333 ° 0 min 0 W/m² 8,9 °C 14,7 °C 16,1 km/h (3 Bft)
15.09.2024 20:58 29,2 °C 15,5 °C 43 % 65 % 1022,2 hPa 0,0 l/m² 8,3 km/h (2 Bft) NW 325 ° 0 min 0 W/m² 8,9 °C 14,5 °C 12,9 km/h (3 Bft)
15.09.2024 20:59 29,2 °C 15,5 °C 43 % 65 % 1022,3 hPa 0,0 l/m² 8,3 km/h (2 Bft) NW 307 ° 0 min 0 W/m² 8,9 °C 14,5 °C 17,7 km/h (3 Bft)
15.09.2024 21:01 29,1 °C 15,4 °C 43 % 66 % 1022,2 hPa 0,0 l/m² 5,9 km/h (2 Bft) N-NW 348 ° 0 min 0 W/m² 9,1 °C 15,4 °C 9,7 km/h (2 Bft)
15.09.2024 21:03 29,0 °C 15,4 °C 43 % 66 % 1022,3 hPa 0,0 l/m² 7,2 km/h (2 Bft) NW 320 ° 0 min 0 W/m² 9,1 °C 15,0 °C 14,5 km/h (3 Bft)
15.09.2024 21:04 28,9 °C 15,4 °C 43 % 66 % 1022,2 hPa 0,0 l/m² 9,5 km/h (2 Bft) N-NW 344 ° 0 min 0 W/m² 9,1 °C 13,8 °C 16,1 km/h (3 Bft)
15.09.2024 21:05 28,9 °C 15,4 °C 43 % 66 % 1022,2 hPa 0,0 l/m² 10,2 km/h (2 Bft) NW 313 ° 0 min 0 W/m² 9,1 °C 13,5 °C 14,5 km/h (3 Bft)
15.09.2024 21:06 28,9 °C 15,3 °C 43 % 67 % 1022,1 hPa 0,0 l/m² 5,5 km/h (2 Bft) NW 325 ° 0 min 0 W/m² 9,2 °C 15,3 °C 8,0 km/h (2 Bft)
15.09.2024 21:07 28,8 °C 15,3 °C 43 % 67 % 1022,2 hPa 0,0 l/m² 9,1 km/h (2 Bft) N 355 ° 0 min 0 W/m² 9,2 °C 13,9 °C 12,9 km/h (3 Bft)
15.09.2024 21:08 28,8 °C 15,3 °C 43 % 67 % 1022,2 hPa 0,0 l/m² 8,8 km/h (2 Bft) N-NW 327 ° 0 min 0 W/m² 9,2 °C 14,0 °C 12,9 km/h (3 Bft)
15.09.2024 21:09 28,8 °C 15,3 °C 44 % 67 % 1022,1 hPa 0,0 l/m² 8,5 km/h (2 Bft) N 360 ° 0 min 0 W/m² 9,2 °C 14,2 °C 12,9 km/h (3 Bft)
15.09.2024 21:11 28,7 °C 15,2 °C 44 % 68 % 1022,2 hPa 0,0 l/m² 7,9 km/h (2 Bft) N-NW 346 ° 0 min 0 W/m² 9,3 °C 14,4 °C 14,5 km/h (3 Bft)
15.09.2024 21:13 28,6 °C 15,2 °C 44 % 68 % 1022,2 hPa 0,0 l/m² 7,9 km/h (2 Bft) N-NW 329 ° 0 min 0 W/m² 9,3 °C 14,4 °C 14,5 km/h (3 Bft)
15.09.2024 21:14 28,6 °C 15,2 °C 44 % 68 % 1022,3 hPa 0,0 l/m² 5,0 km/h (1 Bft) NW 308 ° 0 min 0 W/m² 9,3 °C 15,2 °C 8,0 km/h (2 Bft)
15.09.2024 21:15 28,5 °C 15,1 °C 44 % 69 % 1022,3 hPa 0,0 l/m² 5,9 km/h (2 Bft) N-NW 328 ° 0 min 0 W/m² 9,5 °C 15,1 °C 9,7 km/h (2 Bft)
15.09.2024 21:16 28,4 °C 15,1 °C 44 % 70 % 1022,3 hPa 0,0 l/m² 6,8 km/h (2 Bft) N-NW 336 ° 0 min 0 W/m² 9,7 °C 14,9 °C 9,7 km/h (2 Bft)
15.09.2024 21:17 28,4 °C 14,9 °C 44 % 70 % 1022,3 hPa 0,0 l/m² 4,0 km/h (1 Bft) N-NW 342 ° 0 min 0 W/m² 9,5 °C 14,9 °C 6,4 km/h (2 Bft)
15.09.2024 21:18 28,4 °C 14,9 °C 44 % 71 % 1022,3 hPa 0,0 l/m² 3,8 km/h (1 Bft) N-NW 333 ° 0 min 0 W/m² 9,7 °C 14,9 °C 6,4 km/h (2 Bft)
15.09.2024 21:19 28,3 °C 14,8 °C 44 % 71 % 1022,4 hPa 0,0 l/m² 5,2 km/h (1 Bft) N-NW 333 ° 0 min 0 W/m² 9,6 °C 14,8 °C 6,4 km/h (2 Bft)
15.09.2024 21:21 28,3 °C 14,7 °C 44 % 71 % 1022,3 hPa 0,0 l/m² 5,2 km/h (1 Bft) N 355 ° 0 min 0 W/m² 9,5 °C 14,7 °C 8,0 km/h (2 Bft)
15.09.2024 21:23 28,2 °C 14,6 °C 44 % 72 % 1022,3 hPa 0,0 l/m² 5,0 km/h (1 Bft) N-NW 336 ° 0 min 0 W/m² 9,6 °C 14,6 °C 8,0 km/h (2 Bft)
15.09.2024 21:24 28,2 °C 14,6 °C 44 % 72 % 1022,2 hPa 0,0 l/m² 5,5 km/h (2 Bft) N-NW 329 ° 0 min 0 W/m² 9,6 °C 14,6 °C 8,0 km/h (2 Bft)
15.09.2024 21:25 28,1 °C 14,6 °C 45 % 72 % 1022,2 hPa 0,0 l/m² 4,2 km/h (1 Bft) NW 326 ° 0 min 0 W/m² 9,6 °C 14,6 °C 6,4 km/h (2 Bft)
15.09.2024 21:26 28,1 °C 14,5 °C 45 % 72 % 1022,2 hPa 0,0 l/m² 2,6 km/h (1 Bft) N-NW 329 ° 0 min 0 W/m² 9,5 °C 14,5 °C 4,8 km/h (1 Bft)
15.09.2024 21:27 28,1 °C 14,5 °C 45 % 73 % 1022,2 hPa 0,0 l/m² 3,2 km/h (1 Bft) N-NW 333 ° 0 min 0 W/m² 9,7 °C 14,5 °C 4,8 km/h (1 Bft)
15.09.2024 21:28 28,0 °C 14,4 °C 45 % 73 % 1022,2 hPa 0,0 l/m² 4,8 km/h (1 Bft) N-NW 327 ° 0 min 0 W/m² 9,6 °C 14,4 °C 6,4 km/h (2 Bft)
15.09.2024 21:29 28,0 °C 14,4 °C 45 % 73 % 1022,2 hPa 0,0 l/m² 5,1 km/h (1 Bft) N-NW 342 ° 0 min 0 W/m² 9,6 °C 14,4 °C 8,0 km/h (2 Bft)
15.09.2024 21:31 27,9 °C 14,4 °C 45 % 74 % 1022,2 hPa 0,0 l/m² 2,9 km/h (1 Bft) W-NW 300 ° 0 min 0 W/m² 9,8 °C 14,4 °C 6,4 km/h (2 Bft)
15.09.2024 21:33 27,9 °C 14,3 °C 45 % 74 % 1022,3 hPa 0,0 l/m² 3,8 km/h (1 Bft) N-NW 330 ° 0 min 0 W/m² 9,7 °C 14,3 °C 6,4 km/h (2 Bft)
15.09.2024 21:34 27,8 °C 14,3 °C 45 % 74 % 1022,3 hPa 0,0 l/m² 2,8 km/h (1 Bft) N-NW 337 ° 0 min 0 W/m² 9,7 °C 14,3 °C 4,8 km/h (1 Bft)
15.09.2024 21:35 27,8 °C 14,3 °C 45 % 74 % 1022,2 hPa 0,0 l/m² 5,3 km/h (1 Bft) N-NW 327 ° 0 min 0 W/m² 9,7 °C 14,3 °C 6,4 km/h (2 Bft)
15.09.2024 21:36 27,8 °C 14,3 °C 45 % 75 % 1022,2 hPa 0,0 l/m² 4,2 km/h (1 Bft) NW 317 ° 0 min 0 W/m² 9,9 °C 14,3 °C 6,4 km/h (2 Bft)
15.09.2024 21:37 27,8 °C 14,2 °C 45 % 75 % 1022,2 hPa 0,0 l/m² 3,1 km/h (1 Bft) N-NW 333 ° 0 min 0 W/m² 9,8 °C 14,2 °C 4,8 km/h (1 Bft)
15.09.2024 21:38 27,7 °C 14,2 °C 45 % 75 % 1022,2 hPa 0,0 l/m² 4,0 km/h (1 Bft) W-NW 298 ° 0 min 0 W/m² 9,8 °C 14,2 °C 6,4 km/h (2 Bft)
15.09.2024 21:39 27,7 °C 14,2 °C 45 % 75 % 1022,2 hPa 0,0 l/m² 3,5 km/h (1 Bft) W-NW 303 ° 0 min 0 W/m² 9,8 °C 14,2 °C 6,4 km/h (2 Bft)
15.09.2024 21:41 27,7 °C 14,2 °C 45 % 75 % 1022,3 hPa 0,0 l/m² 4,5 km/h (1 Bft) N-NW 347 ° 0 min 0 W/m² 9,8 °C 14,2 °C 6,4 km/h (2 Bft)
15.09.2024 21:42 27,6 °C 14,1 °C 46 % 75 % 1022,3 hPa 0,0 l/m² 3,8 km/h (1 Bft) N-NW 327 ° 0 min 0 W/m² 9,7 °C 14,1 °C 6,4 km/h (2 Bft)
15.09.2024 21:43 27,6 °C 14,1 °C 46 % 75 % 1022,3 hPa 0,0 l/m² 4,7 km/h (1 Bft) NW 325 ° 0 min 0 W/m² 9,7 °C 14,1 °C 6,4 km/h (2 Bft)
15.09.2024 21:45 27,6 °C 14,1 °C 46 % 75 % 1022,3 hPa 0,0 l/m² 5,6 km/h (2 Bft) NW 308 ° 0 min 0 W/m² 9,7 °C 14,1 °C 8,0 km/h (2 Bft)
15.09.2024 21:46 27,5 °C 14,1 °C 46 % 76 % 1022,3 hPa 0,0 l/m² 3,9 km/h (1 Bft) NW 317 ° 0 min 0 W/m² 9,9 °C 14,1 °C 6,4 km/h (2 Bft)
15.09.2024 21:47 27,4 °C 14,1 °C 46 % 76 % 1022,2 hPa 0,0 l/m² 1,6 km/h (1 Bft) W-NW 286 ° 0 min 0 W/m² 9,9 °C 14,1 °C 4,8 km/h (1 Bft)
15.09.2024 21:48 27,4 °C 14,0 °C 46 % 77 % 1022,2 hPa 0,0 l/m² 2,3 km/h (1 Bft) N 355 ° 0 min 0 W/m² 10,0 °C 14,0 °C 6,4 km/h (2 Bft)
15.09.2024 21:49 27,4 °C 14,0 °C 46 % 76 % 1022,3 hPa 0,0 l/m² 6,0 km/h (2 Bft) NW 325 ° 0 min 0 W/m² 9,8 °C 14,0 °C 8,0 km/h (2 Bft)
15.09.2024 21:51 27,4 °C 14,0 °C 46 % 76 % 1022,3 hPa 0,0 l/m² 6,3 km/h (2 Bft) N-NW 333 ° 0 min 0 W/m² 9,8 °C 14,0 °C 8,0 km/h (2 Bft)
15.09.2024 21:53 27,3 °C 14,0 °C 46 % 75 % 1022,2 hPa 0,0 l/m² 6,0 km/h (2 Bft) N-NW 328 ° 0 min 0 W/m² 9,6 °C 14,0 °C 9,7 km/h (2 Bft)
15.09.2024 21:54 27,3 °C 14,1 °C 46 % 75 % 1022,2 hPa 0,0 l/m² 4,8 km/h (1 Bft) NW 319 ° 0 min 0 W/m² 9,7 °C 14,1 °C 6,4 km/h (2 Bft)
15.09.2024 21:55 27,3 °C 14,1 °C 46 % 75 % 1022,1 hPa 0,0 l/m² 5,0 km/h (1 Bft) N-NW 341 ° 0 min 0 W/m² 9,7 °C 14,1 °C 9,7 km/h (2 Bft)
15.09.2024 21:56 27,2 °C 14,1 °C 46 % 75 % 1022,2 hPa 0,2 l/m² 7,9 km/h (2 Bft) N-NW 346 ° 0 min 0 W/m² 9,7 °C 13,2 °C 9,7 km/h (2 Bft)
15.09.2024 21:57 27,2 °C 14,1 °C 46 % 75 % 1022,1 hPa 0,0 l/m² 7,4 km/h (2 Bft) NW 311 ° 0 min 0 W/m² 9,7 °C 13,5 °C 12,9 km/h (3 Bft)
15.09.2024 21:58 27,2 °C 14,1 °C 46 % 75 % 1022,2 hPa 0,0 l/m² 6,8 km/h (2 Bft) W-NW 293 ° 0 min 0 W/m² 9,7 °C 13,9 °C 9,7 km/h (2 Bft)
15.09.2024 21:59 27,2 °C 14,1 °C 46 % 75 % 1022,1 hPa 0,0 l/m² 7,0 km/h (2 Bft) NW 317 ° 0 min 0 W/m² 9,7 °C 13,7 °C 12,9 km/h (3 Bft)
15.09.2024 22:01 27,1 °C 14,1 °C 46 % 74 % 1022,1 hPa 0,0 l/m² 7,3 km/h (2 Bft) NW 309 ° 0 min 0 W/m² 9,5 °C 13,6 °C 11,3 km/h (2 Bft)
15.09.2024 22:03 27,1 °C 14,1 °C 46 % 74 % 1022,0 hPa 0,0 l/m² 5,1 km/h (1 Bft) W-NW 298 ° 0 min 0 W/m² 9,5 °C 14,1 °C 11,3 km/h (2 Bft)
15.09.2024 22:04 27,1 °C 14,1 °C 46 % 75 % 1022,0 hPa 0,0 l/m² 6,6 km/h (2 Bft) NW 317 ° 0 min 0 W/m² 9,7 °C 14,0 °C 12,9 km/h (3 Bft)
15.09.2024 22:05 27,0 °C 14,1 °C 46 % 75 % 1021,9 hPa 0,0 l/m² 5,0 km/h (1 Bft) W-NW 300 ° 0 min 0 W/m² 9,7 °C 14,1 °C 9,7 km/h (2 Bft)
15.09.2024 22:06 27,0 °C 14,1 °C 46 % 75 % 1021,9 hPa 0,0 l/m² 5,6 km/h (2 Bft) NW 317 ° 0 min 0 W/m² 9,7 °C 14,1 °C 8,0 km/h (2 Bft)
15.09.2024 22:07 27,0 °C 14,1 °C 46 % 75 % 1021,9 hPa 0,0 l/m² 7,0 km/h (2 Bft) N-NW 336 ° 0 min 0 W/m² 9,7 °C 13,7 °C 12,9 km/h (3 Bft)
15.09.2024 22:08 26,9 °C 14,1 °C 46 % 75 % 1021,9 hPa 0,0 l/m² 7,1 km/h (2 Bft) W-NW 294 ° 0 min 0 W/m² 9,7 °C 13,7 °C 9,7 km/h (2 Bft)
15.09.2024 22:09 26,9 °C 14,1 °C 46 % 75 % 1021,9 hPa 0,0 l/m² 3,9 km/h (1 Bft) NW 324 ° 0 min 0 W/m² 9,7 °C 14,1 °C 6,4 km/h (2 Bft)
15.09.2024 22:11 26,9 °C 14,1 °C 46 % 75 % 1021,9 hPa 0,0 l/m² 5,5 km/h (2 Bft) N-NW 335 ° 0 min 0 W/m² 9,7 °C 14,1 °C 14,5 km/h (3 Bft)
15.09.2024 22:13 26,8 °C 14,1 °C 46 % 74 % 1022,1 hPa 0,0 l/m² 9,3 km/h (2 Bft) N-NW 328 ° 0 min 0 W/m² 9,5 °C 12,5 °C 16,1 km/h (3 Bft)
15.09.2024 22:14 26,8 °C 14,1 °C 46 % 74 % 1022,0 hPa 0,0 l/m² 6,3 km/h (2 Bft) N-NW 339 ° 0 min 0 W/m² 9,5 °C 14,1 °C 9,7 km/h (2 Bft)
15.09.2024 22:15 26,8 °C 14,1 °C 46 % 74 % 1022,1 hPa 0,0 l/m² 6,2 km/h (2 Bft) N-NW 348 ° 0 min 0 W/m² 9,5 °C 14,1 °C 8,0 km/h (2 Bft)
15.09.2024 22:16 26,8 °C 14,1 °C 47 % 74 % 1022,0 hPa 0,0 l/m² 9,4 km/h (2 Bft) N-NW 340 ° 0 min 0 W/m² 9,5 °C 12,4 °C 12,9 km/h (3 Bft)
15.09.2024 22:17 26,7 °C 14,0 °C 47 % 74 % 1022,0 hPa 0,0 l/m² 7,2 km/h (2 Bft) N 350 ° 0 min 0 W/m² 9,4 °C 13,5 °C 12,9 km/h (3 Bft)
15.09.2024 22:18 26,7 °C 14,0 °C 47 % 74 % 1022,0 hPa 0,0 l/m² 7,3 km/h (2 Bft) N-NW 340 ° 0 min 0 W/m² 9,4 °C 13,5 °C 9,7 km/h (2 Bft)
15.09.2024 22:19 26,7 °C 13,9 °C 47 % 75 % 1021,9 hPa 0,0 l/m² 7,9 km/h (2 Bft) N 349 ° 0 min 0 W/m² 9,5 °C 13,0 °C 12,9 km/h (3 Bft)
15.09.2024 22:21 26,7 °C 13,9 °C 47 % 76 % 1022,0 hPa 0,0 l/m² 6,9 km/h (2 Bft) N-NW 337 ° 0 min 0 W/m² 9,7 °C 13,6 °C 9,7 km/h (2 Bft)
15.09.2024 22:23 26,7 °C 13,8 °C 47 % 76 % 1022,0 hPa 0,0 l/m² 5,0 km/h (1 Bft) N 5 ° 0 min 0 W/m² 9,6 °C 13,8 °C 9,7 km/h (2 Bft)
15.09.2024 22:24 26,6 °C 13,8 °C 47 % 76 % 1022,0 hPa 0,0 l/m² 4,0 km/h (1 Bft) N-NW 335 ° 0 min 0 W/m² 9,6 °C 13,8 °C 6,4 km/h (2 Bft)
15.09.2024 22:25 26,6 °C 13,7 °C 47 % 77 % 1022,1 hPa 0,2 l/m² 5,2 km/h (1 Bft) N 9 ° 0 min 0 W/m² 9,7 °C 13,7 °C 8,0 km/h (2 Bft)
15.09.2024 22:26 26,6 °C 13,7 °C 47 % 77 % 1022,1 hPa 0,0 l/m² 5,9 km/h (2 Bft) N-NW 338 ° 0 min 0 W/m² 9,7 °C 13,7 °C 9,7 km/h (2 Bft)
15.09.2024 22:27 26,6 °C 13,6 °C 47 % 78 % 1022,0 hPa 0,0 l/m² 5,1 km/h (1 Bft) N 349 ° 0 min 0 W/m² 9,8 °C 13,6 °C 6,4 km/h (2 Bft)
15.09.2024 22:28 26,6 °C 13,6 °C 47 % 78 % 1022,1 hPa 0,0 l/m² 6,6 km/h (2 Bft) N-NW 344 ° 0 min 0 W/m² 9,8 °C 13,5 °C 12,9 km/h (3 Bft)
15.09.2024 22:29 26,5 °C 13,6 °C 47 % 78 % 1022,1 hPa 0,0 l/m² 9,7 km/h (2 Bft) N-NW 328 ° 0 min 0 W/m² 9,8 °C 11,7 °C 12,9 km/h (3 Bft)
15.09.2024 22:31 26,4 °C 13,4 °C 47 % 79 % 1022,0 hPa 0,2 l/m² 6,4 km/h (2 Bft) N-NW 344 ° 0 min 0 W/m² 9,8 °C 13,4 °C 9,7 km/h (2 Bft)
15.09.2024 22:32 26,4 °C 13,4 °C 47 % 79 % 1022,0 hPa 0,0 l/m² 6,1 km/h (2 Bft) N-NW 345 ° 0 min 0 W/m² 9,8 °C 13,4 °C 8,0 km/h (2 Bft)
15.09.2024 22:33 26,4 °C 13,3 °C 47 % 79 % 1022,0 hPa 0,0 l/m² 5,2 km/h (1 Bft) N 350 ° 0 min 0 W/m² 9,7 °C 13,3 °C 8,0 km/h (2 Bft)
15.09.2024 22:34 26,4 °C 13,3 °C 47 % 80 % 1022,0 hPa 0,0 l/m² 5,3 km/h (1 Bft) N 355 ° 0 min 0 W/m² 9,9 °C 13,3 °C 6,4 km/h (2 Bft)
15.09.2024 22:35 26,4 °C 13,2 °C 47 % 80 % 1022,0 hPa 0,0 l/m² 4,2 km/h (1 Bft) NW 326 ° 0 min 0 W/m² 9,8 °C 13,2 °C 6,4 km/h (2 Bft)
15.09.2024 22:36 26,4 °C 13,2 °C 47 % 81 % 1022,1 hPa 0,0 l/m² 4,9 km/h (1 Bft) N-NW 340 ° 0 min 0 W/m² 10,0 °C 13,2 °C 6,4 km/h (2 Bft)
15.09.2024 22:37 26,3 °C 13,1 °C 47 % 81 % 1022,1 hPa 0,0 l/m² 4,4 km/h (1 Bft) N-NW 342 ° 0 min 0 W/m² 9,9 °C 13,1 °C 6,4 km/h (2 Bft)
15.09.2024 22:38 26,3 °C 13,1 °C 47 % 81 % 1021,9 hPa 0,0 l/m² 2,9 km/h (1 Bft) N-NW 329 ° 0 min 0 W/m² 9,9 °C 13,1 °C 4,8 km/h (1 Bft)
15.09.2024 22:39 26,3 °C 13,1 °C 47 % 81 % 1022,0 hPa 0,0 l/m² 3,4 km/h (1 Bft) N-NW 340 ° 0 min 0 W/m² 9,9 °C 13,1 °C 6,4 km/h (2 Bft)
15.09.2024 22:40 26,3 °C 13,0 °C 47 % 82 % 1022,0 hPa 0,0 l/m² 4,4 km/h (1 Bft) NW 320 ° 0 min 0 W/m² 10,0 °C 13,0 °C 6,4 km/h (2 Bft)
15.09.2024 22:41 26,3 °C 13,0 °C 48 % 82 % 1022,0 hPa 0,2 l/m² 4,7 km/h (1 Bft) N-NW 333 ° 0 min 0 W/m² 10,0 °C 13,0 °C 6,4 km/h (2 Bft)
15.09.2024 22:42 26,3 °C 12,9 °C 48 % 82 % 1022,0 hPa 0,0 l/m² 3,0 km/h (1 Bft) NW 321 ° 0 min 0 W/m² 9,9 °C 12,9 °C 4,8 km/h (1 Bft)
15.09.2024 22:43 26,2 °C 12,9 °C 48 % 82 % 1022,0 hPa 0,0 l/m² 2,9 km/h (1 Bft) NW 326 ° 0 min 0 W/m² 9,9 °C 12,9 °C 4,8 km/h (1 Bft)
15.09.2024 22:44 26,2 °C 12,9 °C 48 % 83 % 1022,0 hPa 0,0 l/m² 1,3 km/h (1 Bft) N-NW 328 ° 0 min 0 W/m² 10,1 °C 12,9 °C 3,2 km/h (1 Bft)
15.09.2024 22:45 26,2 °C 12,8 °C 48 % 83 % 1022,1 hPa 0,0 l/m² 1,9 km/h (1 Bft) NW 304 ° 0 min 0 W/m² 10,0 °C 12,8 °C 3,2 km/h (1 Bft)
15.09.2024 22:46 26,2 °C 12,8 °C 48 % 83 % 1022,1 hPa 0,0 l/m² 3,9 km/h (1 Bft) N-NW 330 ° 0 min 0 W/m² 10,0 °C 12,8 °C 8,0 km/h (2 Bft)
15.09.2024 22:47 26,2 °C 12,8 °C 48 % 83 % 1022,2 hPa 0,0 l/m² 5,6 km/h (2 Bft) NW 315 ° 0 min 0 W/m² 10,0 °C 12,8 °C 8,0 km/h (2 Bft)
15.09.2024 22:48 26,2 °C 12,8 °C 48 % 84 % 1022,1 hPa 0,0 l/m² 5,7 km/h (2 Bft) N-NW 333 ° 0 min 0 W/m² 10,2 °C 12,8 °C 9,7 km/h (2 Bft)
15.09.2024 22:49 26,2 °C 12,7 °C 48 % 84 % 1022,1 hPa 0,2 l/m² 8,9 km/h (2 Bft) NW 305 ° 0 min 0 W/m² 10,1 °C 11,2 °C 14,5 km/h (3 Bft)
15.09.2024 22:50 26,2 °C 12,7 °C 48 % 84 % 1022,2 hPa 0,0 l/m² 6,0 km/h (2 Bft) NW 314 ° 0 min 0 W/m² 10,1 °C 12,7 °C 8,0 km/h (2 Bft)
15.09.2024 22:51 26,1 °C 12,7 °C 48 % 84 % 1022,1 hPa 0,0 l/m² 5,3 km/h (1 Bft) N-NW 337 ° 0 min 0 W/m² 10,1 °C 12,7 °C 8,0 km/h (2 Bft)
15.09.2024 22:52 26,1 °C 12,7 °C 48 % 84 % 1022,1 hPa 0,0 l/m² 7,6 km/h (2 Bft) N 355 ° 0 min 0 W/m² 10,1 °C 11,9 °C 14,5 km/h (3 Bft)
15.09.2024 22:53 26,1 °C 12,7 °C 48 % 84 % 1022,2 hPa 0,0 l/m² 6,5 km/h (2 Bft) N-NW 340 ° 0 min 0 W/m² 10,1 °C 12,7 °C 9,7 km/h (2 Bft)
15.09.2024 22:54 26,1 °C 12,7 °C 48 % 84 % 1022,1 hPa 0,0 l/m² 4,7 km/h (1 Bft) N 355 ° 0 min 0 W/m² 10,1 °C 12,7 °C 6,4 km/h (2 Bft)
15.09.2024 22:55 26,1 °C 12,7 °C 48 % 84 % 1022,1 hPa 0,0 l/m² 1,7 km/h (1 Bft) N-NW 347 ° 0 min 0 W/m² 10,1 °C 12,7 °C 4,8 km/h (1 Bft)
15.09.2024 22:56 26,1 °C 12,6 °C 48 % 84 % 1022,2 hPa 0,0 l/m² 3,0 km/h (1 Bft) N-NW 342 ° 0 min 0 W/m² 10,0 °C 12,6 °C 4,8 km/h (1 Bft)
15.09.2024 22:57 26,0 °C 12,6 °C 48 % 84 % 1022,1 hPa 0,0 l/m² 3,6 km/h (1 Bft) N-NW 329 ° 0 min 0 W/m² 10,0 °C 12,6 °C 4,8 km/h (1 Bft)
15.09.2024 22:58 26,0 °C 12,6 °C 48 % 84 % 1022,1 hPa 0,0 l/m² 3,6 km/h (1 Bft) N-NW 333 ° 0 min 0 W/m² 10,0 °C 12,6 °C 4,8 km/h (1 Bft)
15.09.2024 22:59 26,0 °C 12,6 °C 48 % 84 % 1022,0 hPa 0,0 l/m² 3,0 km/h (1 Bft) N-NW 335 ° 0 min 0 W/m² 10,0 °C 12,6 °C 4,8 km/h (1 Bft)
15.09.2024 23:00 25,9 °C 12,5 °C 48 % 85 % 1022,0 hPa 0,0 l/m² 2,7 km/h (1 Bft) NW 319 ° 0 min 0 W/m² 10,0 °C 12,5 °C 4,8 km/h (1 Bft)
15.09.2024 23:01 26,0 °C 12,5 °C 48 % 85 % 1022,0 hPa 0,0 l/m² 2,1 km/h (1 Bft) NW 321 ° 0 min 0 W/m² 10,0 °C 12,5 °C 4,8 km/h (1 Bft)
15.09.2024 23:02 25,9 °C 12,4 °C 48 % 85 % 1021,9 hPa 0,0 l/m² 3,0 km/h (1 Bft) N-NW 328 ° 0 min 0 W/m² 9,9 °C 12,4 °C 4,8 km/h (1 Bft)
15.09.2024 23:03 25,9 °C 12,4 °C 48 % 85 % 1022,0 hPa 0,0 l/m² 2,1 km/h (1 Bft) N-NW 327 ° 0 min 0 W/m² 9,9 °C 12,4 °C 4,8 km/h (1 Bft)
15.09.2024 23:04 25,9 °C 12,4 °C 48 % 86 % 1021,9 hPa 0,2 l/m² 0,1 km/h (0 Bft) NW 323 ° 0 min 0 W/m² 10,1 °C 12,4 °C 1,6 km/h (1 Bft)
15.09.2024 23:05 25,9 °C 12,4 °C 48 % 86 % 1021,9 hPa 0,0 l/m² 1,0 km/h (0 Bft) NW 323 ° 0 min 0 W/m² 10,1 °C 12,4 °C 3,2 km/h (1 Bft)
15.09.2024 23:06 25,9 °C 12,4 °C 48 % 86 % 1021,9 hPa 0,0 l/m² 1,5 km/h (1 Bft) NW 320 ° 0 min 0 W/m² 10,1 °C 12,4 °C 3,2 km/h (1 Bft)
15.09.2024 23:07 25,8 °C 12,4 °C 48 % 86 % 1021,9 hPa 0,0 l/m² 1,4 km/h (1 Bft) NW 317 ° 0 min 0 W/m² 10,1 °C 12,4 °C 3,2 km/h (1 Bft)
15.09.2024 23:08 25,8 °C 12,4 °C 48 % 86 % 1021,9 hPa 0,0 l/m² 0,9 km/h (0 Bft) NW 317 ° 0 min 0 W/m² 10,1 °C 12,4 °C 3,2 km/h (1 Bft)
15.09.2024 23:09 25,8 °C 12,4 °C 48 % 86 % 1021,9 hPa 0,0 l/m² 2,6 km/h (1 Bft) NW 304 ° 0 min 0 W/m² 10,1 °C 12,4 °C 6,4 km/h (2 Bft)
15.09.2024 23:10 25,8 °C 12,3 °C 48 % 86 % 1021,9 hPa 0,0 l/m² 0,2 km/h (0 Bft) NW 309 ° 0 min 0 W/m² 10,0 °C 12,3 °C 1,6 km/h (1 Bft)
15.09.2024 23:11 25,8 °C 12,3 °C 48 % 87 % 1022,0 hPa 0,0 l/m² 3,2 km/h (1 Bft) NW 315 ° 0 min 0 W/m² 10,2 °C 12,3 °C 4,8 km/h (1 Bft)
15.09.2024 23:12 25,8 °C 12,3 °C 49 % 87 % 1021,9 hPa 0,0 l/m² 1,7 km/h (1 Bft) N-NW 327 ° 0 min 0 W/m² 10,2 °C 12,3 °C 4,8 km/h (1 Bft)
15.09.2024 23:13 25,8 °C 12,3 °C 49 % 87 % 1021,9 hPa 0,0 l/m² 2,8 km/h (1 Bft) NW 324 ° 0 min 0 W/m² 10,2 °C 12,3 °C 4,8 km/h (1 Bft)
15.09.2024 23:14 25,7 °C 12,3 °C 49 % 87 % 1021,9 hPa 0,0 l/m² 2,2 km/h (1 Bft) NW 317 ° 0 min 0 W/m² 10,2 °C 12,3 °C 4,8 km/h (1 Bft)
15.09.2024 23:15 25,7 °C 12,3 °C 49 % 87 % 1022,0 hPa 0,0 l/m² 3,9 km/h (1 Bft) N-NW 331 ° 0 min 0 W/m² 10,2 °C 12,3 °C 4,8 km/h (1 Bft)
15.09.2024 23:16 25,7 °C 12,3 °C 49 % 87 % 1021,9 hPa 0,0 l/m² 3,2 km/h (1 Bft) N-NW 337 ° 0 min 0 W/m² 10,2 °C 12,3 °C 6,4 km/h (2 Bft)
15.09.2024 23:17 25,7 °C 12,3 °C 49 % 87 % 1021,9 hPa 0,0 l/m² 1,6 km/h (1 Bft) N-NW 337 ° 0 min 0 W/m² 10,2 °C 12,3 °C 3,2 km/h (1 Bft)
15.09.2024 23:18 25,7 °C 12,3 °C 49 % 87 % 1021,9 hPa 0,0 l/m² 1,6 km/h (1 Bft) N-NW 337 ° 0 min 0 W/m² 10,2 °C 12,3 °C 3,2 km/h (1 Bft)
15.09.2024 23:19 25,7 °C 12,3 °C 49 % 87 % 1021,9 hPa 0,0 l/m² 1,6 km/h (1 Bft) N-NW 337 ° 0 min 0 W/m² 10,2 °C 12,3 °C 3,2 km/h (1 Bft)
15.09.2024 23:20 25,7 °C 12,3 °C 49 % 87 % 1022,0 hPa 0,0 l/m² 0,0 km/h (0 Bft) N-NW 337 ° 0 min 0 W/m² 10,2 °C 12,3 °C 1,6 km/h (1 Bft)
15.09.2024 23:21 25,7 °C 12,3 °C 49 % 87 % 1021,8 hPa 0,0 l/m² 1,6 km/h (1 Bft) NW 315 ° 0 min 0 W/m² 10,2 °C 12,3 °C 4,8 km/h (1 Bft)
15.09.2024 23:27 25,6 °C 12,2 °C 49 % 87 % 1021,8 hPa 0,2 l/m² 3,3 km/h (1 Bft) W 268 ° 0 min 0 W/m² 10,1 °C 12,2 °C 4,8 km/h (1 Bft)
15.09.2024 23:29 25,5 °C 12,2 °C 49 % 87 % 1021,7 hPa 0,0 l/m² 3,2 km/h (1 Bft) W 275 ° 0 min 0 W/m² 10,1 °C 12,2 °C 6,4 km/h (2 Bft)
15.09.2024 23:30 25,5 °C 12,2 °C 49 % 87 % 1021,7 hPa 0,0 l/m² 1,6 km/h (1 Bft) W 275 ° 0 min 0 W/m² 10,1 °C 12,2 °C 4,8 km/h (1 Bft)
15.09.2024 23:32 25,5 °C 12,2 °C 49 % 88 % 1021,7 hPa 0,0 l/m² 3,3 km/h (1 Bft) NW 304 ° 0 min 0 W/m² 10,3 °C 12,2 °C 11,3 km/h (2 Bft)
15.09.2024 23:34 25,5 °C 12,2 °C 49 % 88 % 1021,7 hPa 0,0 l/m² 1,5 km/h (1 Bft) NW 311 ° 0 min 0 W/m² 10,3 °C 12,2 °C 4,8 km/h (1 Bft)
15.09.2024 23:36 25,5 °C 12,2 °C 49 % 88 % 1021,7 hPa 0,0 l/m² 0,9 km/h (0 Bft) W-NW 290 ° 0 min 0 W/m² 10,3 °C 12,2 °C 4,8 km/h (1 Bft)
15.09.2024 23:38 25,4 °C 12,2 °C 49 % 88 % 1021,7 hPa 0,0 l/m² 2,9 km/h (1 Bft) W-NW 287 ° 0 min 0 W/m² 10,3 °C 12,2 °C 4,8 km/h (1 Bft)
15.09.2024 23:40 25,4 °C 12,1 °C 49 % 88 % 1021,8 hPa 0,2 l/m² 0,1 km/h (0 Bft) W-NW 287 ° 0 min 0 W/m² 10,2 °C 12,1 °C 1,6 km/h (1 Bft)
15.09.2024 23:41 25,4 °C 12,1 °C 49 % 88 % 1021,8 hPa 0,0 l/m² 0,7 km/h (0 Bft) W-NW 288 ° 0 min 0 W/m² 10,2 °C 12,1 °C 1,6 km/h (1 Bft)
15.09.2024 23:42 25,4 °C 12,2 °C 49 % 88 % 1021,8 hPa 0,0 l/m² 0,3 km/h (0 Bft) W-NW 288 ° 0 min 0 W/m² 10,3 °C 12,2 °C 1,6 km/h (1 Bft)
15.09.2024 23:45 25,4 °C 12,1 °C 49 % 89 % 1021,8 hPa 0,0 l/m² 1,3 km/h (1 Bft) W-NW 303 ° 0 min 0 W/m² 10,3 °C 12,1 °C 4,8 km/h (1 Bft)
15.09.2024 23:47 25,3 °C 12,1 °C 49 % 89 % 1021,8 hPa 0,0 l/m² 2,9 km/h (1 Bft) W-NW 303 ° 0 min 0 W/m² 10,3 °C 12,1 °C 6,4 km/h (2 Bft)
15.09.2024 23:49 25,3 °C 12,2 °C 49 % 88 % 1021,7 hPa 0,0 l/m² 2,9 km/h (1 Bft) W 272 ° 0 min 0 W/m² 10,3 °C 12,2 °C 6,4 km/h (2 Bft)
15.09.2024 23:50 25,3 °C 12,1 °C 49 % 88 % 1021,6 hPa 0,0 l/m² 1,2 km/h (1 Bft) W 272 ° 0 min 0 W/m² 10,2 °C 12,1 °C 3,2 km/h (1 Bft)
15.09.2024 23:51 25,3 °C 12,1 °C 50 % 88 % 1021,6 hPa 0,0 l/m² 1,0 km/h (0 Bft) W 273 ° 0 min 0 W/m² 10,2 °C 12,1 °C 4,8 km/h (1 Bft)
15.09.2024 23:52 25,3 °C 12,1 °C 50 % 89 % 1021,6 hPa 0,0 l/m² 1,0 km/h (0 Bft) W 274 ° 0 min 0 W/m² 10,3 °C 12,1 °C 3,2 km/h (1 Bft)
15.09.2024 23:54 25,3 °C 12,1 °C 50 % 89 % 1021,6 hPa 0,0 l/m² 2,4 km/h (1 Bft) W 281 ° 0 min 0 W/m² 10,3 °C 12,1 °C 6,4 km/h (2 Bft)
15.09.2024 23:55 25,3 °C 12,1 °C 50 % 89 % 1021,6 hPa 0,0 l/m² 3,5 km/h (1 Bft) W-NW 296 ° 0 min 0 W/m² 10,3 °C 12,1 °C 9,7 km/h (2 Bft)
15.09.2024 23:57 25,2 °C 12,1 °C 50 % 89 % 1021,6 hPa 0,0 l/m² 2,0 km/h (1 Bft) W 271 ° 0 min 0 W/m² 10,3 °C 12,1 °C 6,4 km/h (2 Bft)
15.09.2024 23:59 25,3 °C 12,1 °C 50 % 89 % 1021,7 hPa 0,0 l/m² 1,4 km/h (1 Bft) W 271 ° 0 min 0 W/m² 10,3 °C 12,1 °C 6,4 km/h (2 Bft)
_ Min-Zeit 08:13 01:59 20:03 17:19 17:53 - 23:20 - - - - 02:55 01:59 02:52
Minimum _ 22,9 °C 6,2 °C 39 % 51 % 1021,0 hPa - 0,0 km/h (0 Bft) - - - - 4,1 °C 6,2 °C 0,0 km/h (0 Bft)
_ Max-Zeit 19:41 15:41 18:11 23:59 00:05 23:40 13:09 - - 12:43 11:54 12:03 16:18 13:47
Maximum _ 32,2 °C 19,2 °C 53 % 89 % 1026,4 hPa 0,2 l/m² 27,5 km/h
N-NW (5 Bft)
- - 3 min 882 W/m² 10,4 °C 19,1 °C 40,2 km/h
NW (6 Bft)
Durchschnitt _ 25,0 °C 13,4 °C 49 % 71 % 1023,4 hPa #1,6 l/m² 9,2 km/h (2 Bft) NW - #11:04 h 210 W/m² 8,0 °C 11,7 °C 16,1 km/h (3 Bft)
© 2009 Mathias Hoßbach